<?xml version="1.0" encoding="utf-8"?>
<gpx xmlns:tc2="http://www.garmin.com/xmlschemas/TrainingCenterDatabase/v2" xmlns:xsi="http://www.w3.org/2001/XMLSchema-instance" xmlns:tp1="http://www.garmin.com/xmlschemas/TrackPointExtension/v1" xmlns="http://www.topografix.com/GPX/1/1" version="1.1" creator="TC2 to GPX11 XSLT stylesheet" xsi:schemaLocation="http://www.topografix.com/GPX/1/1 http://www.topografix.com/GPX/1/1/gpx.xsd http://www.garmin.com/xmlschemas/TrackPointExtension/v1 http://www.garmin.com/xmlschemas/TrackPointExtensionv1.xsd">
<trk>
<name>2010-10-09T11:33:35Z</name>
<trkseg>
<trkpt lat="52.5355925" lon="13.4267368">
<ele>57.8165283</ele>
<time>2010-10-09T11:33:36Z</time>
<extensions>
<tp1:TrackPointExtension>
<tp1:hr>122</tp1:hr>
</tp1:TrackPointExtension>
</extensions>
</trkpt>
<trkpt lat="52.5358474" lon="13.4269094">
<ele>57.8165283</ele>
<time>2010-10-09T11:33:40Z</time>
<extensions>
<tp1:TrackPointExtension>
<tp1:hr>124</tp1:hr>
</tp1:TrackPointExtension>
</extensions>
</trkpt>
<trkpt lat="52.5360598" lon="13.4272201">
<ele>55.8937988</ele>
<time>2010-10-09T11:33:45Z</time>
<extensions>
<tp1:TrackPointExtension>
<tp1:hr>128</tp1:hr>
</tp1:TrackPointExtension>
</extensions>
</trkpt>
<trkpt lat="52.5364535" lon="13.4275683">
<ele>57.3358154</ele>
<time>2010-10-09T11:33:52Z</time>
<extensions>
<tp1:TrackPointExtension>
<tp1:hr>131</tp1:hr>
</tp1:TrackPointExtension>
</extensions>
</trkpt>
<trkpt lat="52.5366840" lon="13.4278081">
<ele>56.8551025</ele>
<time>2010-10-09T11:33:57Z</time>
<extensions>
<tp1:TrackPointExtension>
<tp1:hr>130</tp1:hr>
</tp1:TrackPointExtension>
</extensions>
</trkpt>
<trkpt lat="52.5369699" lon="13.4280088">
<ele>55.8937988</ele>
<time>2010-10-09T11:34:02Z</time>
<extensions>
<tp1:TrackPointExtension>
<tp1:hr>128</tp1:hr>
</tp1:TrackPointExtension>
</extensions>
</trkpt>
<trkpt lat="52.5371743" lon="13.4283110">
<ele>52.0485840</ele>
<time>2010-10-09T11:34:07Z</time>
<extensions>
<tp1:TrackPointExtension>
<tp1:hr>128</tp1:hr>
</tp1:TrackPointExtension>
</extensions>
</trkpt>
<trkpt lat="52.5372237" lon="13.4283398">
<ele>51.5678711</ele>
<time>2010-10-09T11:34:08Z</time>
<extensions>
<tp1:TrackPointExtension>
<tp1:hr>127</tp1:hr>
</tp1:TrackPointExtension>
</extensions>
</trkpt>
<trkpt lat="52.5374266" lon="13.4284479">
<ele>50.6065674</ele>
<time>2010-10-09T11:34:14Z</time>
<extensions>
<tp1:TrackPointExtension>
<tp1:hr>127</tp1:hr>
</tp1:TrackPointExtension>
</extensions>
</trkpt>
<trkpt lat="52.5375525" lon="13.4285229">
<ele>48.2033691</ele>
<time>2010-10-09T11:34:21Z</time>
<extensions>
<tp1:TrackPointExtension>
<tp1:hr>127</tp1:hr>
</tp1:TrackPointExtension>
</extensions>
</trkpt>
<trkpt lat="52.5375790" lon="13.4285335">
<ele>47.2418213</ele>
<time>2010-10-09T11:34:27Z</time>
<extensions>
<tp1:TrackPointExtension>
<tp1:hr>123</tp1:hr>
</tp1:TrackPointExtension>
</extensions>
</trkpt>
<trkpt lat="52.5375673" lon="13.4285382">
<ele>42.4354248</ele>
<time>2010-10-09T11:34:38Z</time>
<extensions>
<tp1:TrackPointExtension>
<tp1:hr>117</tp1:hr>
</tp1:TrackPointExtension>
</extensions>
</trkpt>
<trkpt lat="52.5375671" lon="13.4285384">
<ele>40.9934082</ele>
<time>2010-10-09T11:34:41Z</time>
<extensions>
<tp1:TrackPointExtension>
<tp1:hr>112</tp1:hr>
</tp1:TrackPointExtension>
</extensions>
</trkpt>
<trkpt lat="52.5375670" lon="13.4285418">
<ele>39.0706787</ele>
<time>2010-10-09T11:34:49Z</time>
<extensions>
<tp1:TrackPointExtension>
<tp1:hr>107</tp1:hr>
</tp1:TrackPointExtension>
</extensions>
</trkpt>
<trkpt lat="52.5375790" lon="13.4285550">
<ele>39.0706787</ele>
<time>2010-10-09T11:34:50Z</time>
<extensions>
<tp1:TrackPointExtension>
<tp1:hr>107</tp1:hr>
</tp1:TrackPointExtension>
</extensions>
</trkpt>
<trkpt lat="52.5377573" lon="13.4287532">
<ele>40.9934082</ele>
<time>2010-10-09T11:34:56Z</time>
<extensions>
<tp1:TrackPointExtension>
<tp1:hr>113</tp1:hr>
</tp1:TrackPointExtension>
</extensions>
</trkpt>
<trkpt lat="52.5378889" lon="13.4288130">
<ele>41.4739990</ele>
<time>2010-10-09T11:34:59Z</time>
<extensions>
<tp1:TrackPointExtension>
<tp1:hr>116</tp1:hr>
</tp1:TrackPointExtension>
</extensions>
</trkpt>
<trkpt lat="52.5380151" lon="13.4285082">
<ele>40.5128174</ele>
<time>2010-10-09T11:35:03Z</time>
<extensions>
<tp1:TrackPointExtension>
<tp1:hr>124</tp1:hr>
</tp1:TrackPointExtension>
</extensions>
</trkpt>
<trkpt lat="52.5381127" lon="13.4281208">
<ele>41.4739990</ele>
<time>2010-10-09T11:35:07Z</time>
<extensions>
<tp1:TrackPointExtension>
<tp1:hr>130</tp1:hr>
</tp1:TrackPointExtension>
</extensions>
</trkpt>
<trkpt lat="52.5381690" lon="13.4279286">
<ele>42.4354248</ele>
<time>2010-10-09T11:35:09Z</time>
<extensions>
<tp1:TrackPointExtension>
<tp1:hr>136</tp1:hr>
</tp1:TrackPointExtension>
</extensions>
</trkpt>
<trkpt lat="52.5384463" lon="13.4270807">
<ele>44.8386230</ele>
<time>2010-10-09T11:35:18Z</time>
<extensions>
<tp1:TrackPointExtension>
<tp1:hr>141</tp1:hr>
</tp1:TrackPointExtension>
</extensions>
</trkpt>
<trkpt lat="52.5387638" lon="13.4261571">
<ele>46.7612305</ele>
<time>2010-10-09T11:35:28Z</time>
<extensions>
<tp1:TrackPointExtension>
<tp1:hr>142</tp1:hr>
</tp1:TrackPointExtension>
</extensions>
</trkpt>
<trkpt lat="52.5390587" lon="13.4253320">
<ele>48.2033691</ele>
<time>2010-10-09T11:35:37Z</time>
<extensions>
<tp1:TrackPointExtension>
<tp1:hr>146</tp1:hr>
</tp1:TrackPointExtension>
</extensions>
</trkpt>
<trkpt lat="52.5391860" lon="13.4249636">
<ele>49.1645508</ele>
<time>2010-10-09T11:35:42Z</time>
<extensions>
<tp1:TrackPointExtension>
<tp1:hr>147</tp1:hr>
</tp1:TrackPointExtension>
</extensions>
</trkpt>
<trkpt lat="52.5392937" lon="13.4246601">
<ele>48.6839600</ele>
<time>2010-10-09T11:35:49Z</time>
<extensions>
<tp1:TrackPointExtension>
<tp1:hr>145</tp1:hr>
</tp1:TrackPointExtension>
</extensions>
</trkpt>
<trkpt lat="52.5393192" lon="13.4245925">
<ele>49.1645508</ele>
<time>2010-10-09T11:35:51Z</time>
<extensions>
<tp1:TrackPointExtension>
<tp1:hr>145</tp1:hr>
</tp1:TrackPointExtension>
</extensions>
</trkpt>
<trkpt lat="52.5394481" lon="13.4246239">
<ele>49.6452637</ele>
<time>2010-10-09T11:35:55Z</time>
<extensions>
<tp1:TrackPointExtension>
<tp1:hr>141</tp1:hr>
</tp1:TrackPointExtension>
</extensions>
</trkpt>
<trkpt lat="52.5396858" lon="13.4246959">
<ele>51.5678711</ele>
<time>2010-10-09T11:36:00Z</time>
<extensions>
<tp1:TrackPointExtension>
<tp1:hr>141</tp1:hr>
</tp1:TrackPointExtension>
</extensions>
</trkpt>
<trkpt lat="52.5397408" lon="13.4247215">
<ele>52.0485840</ele>
<time>2010-10-09T11:36:01Z</time>
<extensions>
<tp1:TrackPointExtension>
<tp1:hr>141</tp1:hr>
</tp1:TrackPointExtension>
</extensions>
</trkpt>
<trkpt lat="52.5398452" lon="13.4247993">
<ele>53.9711914</ele>
<time>2010-10-09T11:36:03Z</time>
<extensions>
<tp1:TrackPointExtension>
<tp1:hr>142</tp1:hr>
</tp1:TrackPointExtension>
</extensions>
</trkpt>
<trkpt lat="52.5401064" lon="13.4249683">
<ele>51.0871582</ele>
<time>2010-10-09T11:36:07Z</time>
<extensions>
<tp1:TrackPointExtension>
<tp1:hr>145</tp1:hr>
</tp1:TrackPointExtension>
</extensions>
</trkpt>
<trkpt lat="52.5405573" lon="13.4252195">
<ele>51.5678711</ele>
<time>2010-10-09T11:36:14Z</time>
<extensions>
<tp1:TrackPointExtension>
<tp1:hr>144</tp1:hr>
</tp1:TrackPointExtension>
</extensions>
</trkpt>
<trkpt lat="52.5408638" lon="13.4254325">
<ele>51.5678711</ele>
<time>2010-10-09T11:36:19Z</time>
<extensions>
<tp1:TrackPointExtension>
<tp1:hr>144</tp1:hr>
</tp1:TrackPointExtension>
</extensions>
</trkpt>
<trkpt lat="52.5411449" lon="13.4256097">
<ele>51.5678711</ele>
<time>2010-10-09T11:36:23Z</time>
<extensions>
<tp1:TrackPointExtension>
<tp1:hr>145</tp1:hr>
</tp1:TrackPointExtension>
</extensions>
</trkpt>
<trkpt lat="52.5415901" lon="13.4258624">
<ele>50.1259766</ele>
<time>2010-10-09T11:36:29Z</time>
<extensions>
<tp1:TrackPointExtension>
<tp1:hr>147</tp1:hr>
</tp1:TrackPointExtension>
</extensions>
</trkpt>
<trkpt lat="52.5420058" lon="13.4261241">
<ele>50.6065674</ele>
<time>2010-10-09T11:36:35Z</time>
<extensions>
<tp1:TrackPointExtension>
<tp1:hr>148</tp1:hr>
</tp1:TrackPointExtension>
</extensions>
</trkpt>
<trkpt lat="52.5422662" lon="13.4262750">
<ele>53.4904785</ele>
<time>2010-10-09T11:36:39Z</time>
<extensions>
<tp1:TrackPointExtension>
<tp1:hr>149</tp1:hr>
</tp1:TrackPointExtension>
</extensions>
</trkpt>
<trkpt lat="52.5425967" lon="13.4264463">
<ele>52.0485840</ele>
<time>2010-10-09T11:36:44Z</time>
<extensions>
<tp1:TrackPointExtension>
<tp1:hr>149</tp1:hr>
</tp1:TrackPointExtension>
</extensions>
</trkpt>
<trkpt lat="52.5427549" lon="13.4265244">
<ele>51.5678711</ele>
<time>2010-10-09T11:36:48Z</time>
<extensions>
<tp1:TrackPointExtension>
<tp1:hr>149</tp1:hr>
</tp1:TrackPointExtension>
</extensions>
</trkpt>
<trkpt lat="52.5428219" lon="13.4265719">
<ele>50.6065674</ele>
<time>2010-10-09T11:36:53Z</time>
<extensions>
<tp1:TrackPointExtension>
<tp1:hr>146</tp1:hr>
</tp1:TrackPointExtension>
</extensions>
</trkpt>
<trkpt lat="52.5428352" lon="13.4265698">
<ele>51.5678711</ele>
<time>2010-10-09T11:37:01Z</time>
<extensions>
<tp1:TrackPointExtension>
<tp1:hr>140</tp1:hr>
</tp1:TrackPointExtension>
</extensions>
</trkpt>
<trkpt lat="52.5428482" lon="13.4265685">
<ele>51.0871582</ele>
<time>2010-10-09T11:37:12Z</time>
<extensions>
<tp1:TrackPointExtension>
<tp1:hr>134</tp1:hr>
</tp1:TrackPointExtension>
</extensions>
</trkpt>
<trkpt lat="52.5428583" lon="13.4265715">
<ele>51.0871582</ele>
<time>2010-10-09T11:37:13Z</time>
<extensions>
<tp1:TrackPointExtension>
<tp1:hr>134</tp1:hr>
</tp1:TrackPointExtension>
</extensions>
</trkpt>
<trkpt lat="52.5430185" lon="13.4266537">
<ele>50.6065674</ele>
<time>2010-10-09T11:37:18Z</time>
<extensions>
<tp1:TrackPointExtension>
<tp1:hr>132</tp1:hr>
</tp1:TrackPointExtension>
</extensions>
</trkpt>
<trkpt lat="52.5433481" lon="13.4268467">
<ele>49.6452637</ele>
<time>2010-10-09T11:37:24Z</time>
<extensions>
<tp1:TrackPointExtension>
<tp1:hr>137</tp1:hr>
</tp1:TrackPointExtension>
</extensions>
</trkpt>
<trkpt lat="52.5436936" lon="13.4270512">
<ele>49.6452637</ele>
<time>2010-10-09T11:37:30Z</time>
<extensions>
<tp1:TrackPointExtension>
<tp1:hr>142</tp1:hr>
</tp1:TrackPointExtension>
</extensions>
</trkpt>
<trkpt lat="52.5440369" lon="13.4272228">
<ele>52.0485840</ele>
<time>2010-10-09T11:37:36Z</time>
<extensions>
<tp1:TrackPointExtension>
<tp1:hr>146</tp1:hr>
</tp1:TrackPointExtension>
</extensions>
</trkpt>
<trkpt lat="52.5444491" lon="13.4274317">
<ele>53.0097656</ele>
<time>2010-10-09T11:37:43Z</time>
<extensions>
<tp1:TrackPointExtension>
<tp1:hr>148</tp1:hr>
</tp1:TrackPointExtension>
</extensions>
</trkpt>
<trkpt lat="52.5446049" lon="13.4275529">
<ele>54.4517822</ele>
<time>2010-10-09T11:37:46Z</time>
<extensions>
<tp1:TrackPointExtension>
<tp1:hr>149</tp1:hr>
</tp1:TrackPointExtension>
</extensions>
</trkpt>
<trkpt lat="52.5450049" lon="13.4277204">
<ele>58.2971191</ele>
<time>2010-10-09T11:37:53Z</time>
<extensions>
<tp1:TrackPointExtension>
<tp1:hr>150</tp1:hr>
</tp1:TrackPointExtension>
</extensions>
</trkpt>
<trkpt lat="52.5453147" lon="13.4278148">
<ele>59.2584229</ele>
<time>2010-10-09T11:37:58Z</time>
<extensions>
<tp1:TrackPointExtension>
<tp1:hr>151</tp1:hr>
</tp1:TrackPointExtension>
</extensions>
</trkpt>
<trkpt lat="52.5454301" lon="13.4280375">
<ele>60.7003174</ele>
<time>2010-10-09T11:38:02Z</time>
<extensions>
<tp1:TrackPointExtension>
<tp1:hr>149</tp1:hr>
</tp1:TrackPointExtension>
</extensions>
</trkpt>
<trkpt lat="52.5453715" lon="13.4282367">
<ele>58.7777100</ele>
<time>2010-10-09T11:38:04Z</time>
<extensions>
<tp1:TrackPointExtension>
<tp1:hr>148</tp1:hr>
</tp1:TrackPointExtension>
</extensions>
</trkpt>
<trkpt lat="52.5450887" lon="13.4289254">
<ele>54.4517822</ele>
<time>2010-10-09T11:38:11Z</time>
<extensions>
<tp1:TrackPointExtension>
<tp1:hr>148</tp1:hr>
</tp1:TrackPointExtension>
</extensions>
</trkpt>
<trkpt lat="52.5446261" lon="13.4298161">
<ele>51.0871582</ele>
<time>2010-10-09T11:38:20Z</time>
<extensions>
<tp1:TrackPointExtension>
<tp1:hr>151</tp1:hr>
</tp1:TrackPointExtension>
</extensions>
</trkpt>
<trkpt lat="52.5443044" lon="13.4307000">
<ele>49.6452637</ele>
<time>2010-10-09T11:38:28Z</time>
<extensions>
<tp1:TrackPointExtension>
<tp1:hr>151</tp1:hr>
</tp1:TrackPointExtension>
</extensions>
</trkpt>
<trkpt lat="52.5440460" lon="13.4313453">
<ele>49.6452637</ele>
<time>2010-10-09T11:38:34Z</time>
<extensions>
<tp1:TrackPointExtension>
<tp1:hr>151</tp1:hr>
</tp1:TrackPointExtension>
</extensions>
</trkpt>
<trkpt lat="52.5437735" lon="13.4320810">
<ele>51.0871582</ele>
<time>2010-10-09T11:38:40Z</time>
<extensions>
<tp1:TrackPointExtension>
<tp1:hr>152</tp1:hr>
</tp1:TrackPointExtension>
</extensions>
</trkpt>
<trkpt lat="52.5434395" lon="13.4326245">
<ele>48.6839600</ele>
<time>2010-10-09T11:38:47Z</time>
<extensions>
<tp1:TrackPointExtension>
<tp1:hr>152</tp1:hr>
</tp1:TrackPointExtension>
</extensions>
</trkpt>
<trkpt lat="52.5431550" lon="13.4333306">
<ele>46.7612305</ele>
<time>2010-10-09T11:38:54Z</time>
<extensions>
<tp1:TrackPointExtension>
<tp1:hr>152</tp1:hr>
</tp1:TrackPointExtension>
</extensions>
</trkpt>
<trkpt lat="52.5428576" lon="13.4342017">
<ele>44.8386230</ele>
<time>2010-10-09T11:39:03Z</time>
<extensions>
<tp1:TrackPointExtension>
<tp1:hr>152</tp1:hr>
</tp1:TrackPointExtension>
</extensions>
</trkpt>
<trkpt lat="52.5427685" lon="13.4345576">
<ele>43.8773193</ele>
<time>2010-10-09T11:39:07Z</time>
<extensions>
<tp1:TrackPointExtension>
<tp1:hr>152</tp1:hr>
</tp1:TrackPointExtension>
</extensions>
</trkpt>
<trkpt lat="52.5428047" lon="13.4348373">
<ele>42.9160156</ele>
<time>2010-10-09T11:39:11Z</time>
<extensions>
<tp1:TrackPointExtension>
<tp1:hr>151</tp1:hr>
</tp1:TrackPointExtension>
</extensions>
</trkpt>
<trkpt lat="52.5428935" lon="13.4349400">
<ele>42.9160156</ele>
<time>2010-10-09T11:39:13Z</time>
<extensions>
<tp1:TrackPointExtension>
<tp1:hr>150</tp1:hr>
</tp1:TrackPointExtension>
</extensions>
</trkpt>
<trkpt lat="52.5432854" lon="13.4352849">
<ele>41.4739990</ele>
<time>2010-10-09T11:39:20Z</time>
<extensions>
<tp1:TrackPointExtension>
<tp1:hr>151</tp1:hr>
</tp1:TrackPointExtension>
</extensions>
</trkpt>
<trkpt lat="52.5436818" lon="13.4356211">
<ele>45.3192139</ele>
<time>2010-10-09T11:39:26Z</time>
<extensions>
<tp1:TrackPointExtension>
<tp1:hr>153</tp1:hr>
</tp1:TrackPointExtension>
</extensions>
</trkpt>
<trkpt lat="52.5441568" lon="13.4359335">
<ele>48.6839600</ele>
<time>2010-10-09T11:39:33Z</time>
<extensions>
<tp1:TrackPointExtension>
<tp1:hr>153</tp1:hr>
</tp1:TrackPointExtension>
</extensions>
</trkpt>
<trkpt lat="52.5442251" lon="13.4359900">
<ele>49.1645508</ele>
<time>2010-10-09T11:39:34Z</time>
<extensions>
<tp1:TrackPointExtension>
<tp1:hr>154</tp1:hr>
</tp1:TrackPointExtension>
</extensions>
</trkpt>
<trkpt lat="52.5444325" lon="13.4361801">
<ele>52.5291748</ele>
<time>2010-10-09T11:39:37Z</time>
<extensions>
<tp1:TrackPointExtension>
<tp1:hr>154</tp1:hr>
</tp1:TrackPointExtension>
</extensions>
</trkpt>
<trkpt lat="52.5449015" lon="13.4366484">
<ele>52.5291748</ele>
<time>2010-10-09T11:39:44Z</time>
<extensions>
<tp1:TrackPointExtension>
<tp1:hr>152</tp1:hr>
</tp1:TrackPointExtension>
</extensions>
</trkpt>
<trkpt lat="52.5450566" lon="13.4367251">
<ele>53.0097656</ele>
<time>2010-10-09T11:39:46Z</time>
<extensions>
<tp1:TrackPointExtension>
<tp1:hr>152</tp1:hr>
</tp1:TrackPointExtension>
</extensions>
</trkpt>
<trkpt lat="52.5454658" lon="13.4373157">
<ele>48.2033691</ele>
<time>2010-10-09T11:39:54Z</time>
<extensions>
<tp1:TrackPointExtension>
<tp1:hr>154</tp1:hr>
</tp1:TrackPointExtension>
</extensions>
</trkpt>
<trkpt lat="52.5458409" lon="13.4376974">
<ele>46.2806396</ele>
<time>2010-10-09T11:40:00Z</time>
<extensions>
<tp1:TrackPointExtension>
<tp1:hr>154</tp1:hr>
</tp1:TrackPointExtension>
</extensions>
</trkpt>
<trkpt lat="52.5462770" lon="13.4381018">
<ele>44.3580322</ele>
<time>2010-10-09T11:40:07Z</time>
<extensions>
<tp1:TrackPointExtension>
<tp1:hr>156</tp1:hr>
</tp1:TrackPointExtension>
</extensions>
</trkpt>
<trkpt lat="52.5467520" lon="13.4385852">
<ele>42.9160156</ele>
<time>2010-10-09T11:40:15Z</time>
<extensions>
<tp1:TrackPointExtension>
<tp1:hr>156</tp1:hr>
</tp1:TrackPointExtension>
</extensions>
</trkpt>
<trkpt lat="52.5470571" lon="13.4388960">
<ele>42.9160156</ele>
<time>2010-10-09T11:40:21Z</time>
<extensions>
<tp1:TrackPointExtension>
<tp1:hr>157</tp1:hr>
</tp1:TrackPointExtension>
</extensions>
</trkpt>
<trkpt lat="52.5474291" lon="13.4392724">
<ele>41.9547119</ele>
<time>2010-10-09T11:40:28Z</time>
<extensions>
<tp1:TrackPointExtension>
<tp1:hr>156</tp1:hr>
</tp1:TrackPointExtension>
</extensions>
</trkpt>
<trkpt lat="52.5478885" lon="13.4397119">
<ele>41.4739990</ele>
<time>2010-10-09T11:40:36Z</time>
<extensions>
<tp1:TrackPointExtension>
<tp1:hr>157</tp1:hr>
</tp1:TrackPointExtension>
</extensions>
</trkpt>
<trkpt lat="52.5484133" lon="13.4402138">
<ele>40.5128174</ele>
<time>2010-10-09T11:40:45Z</time>
<extensions>
<tp1:TrackPointExtension>
<tp1:hr>158</tp1:hr>
</tp1:TrackPointExtension>
</extensions>
</trkpt>
<trkpt lat="52.5489040" lon="13.4406480">
<ele>41.4739990</ele>
<time>2010-10-09T11:40:53Z</time>
<extensions>
<tp1:TrackPointExtension>
<tp1:hr>159</tp1:hr>
</tp1:TrackPointExtension>
</extensions>
</trkpt>
<trkpt lat="52.5492181" lon="13.4409653">
<ele>40.5128174</ele>
<time>2010-10-09T11:40:58Z</time>
<extensions>
<tp1:TrackPointExtension>
<tp1:hr>158</tp1:hr>
</tp1:TrackPointExtension>
</extensions>
</trkpt>
<trkpt lat="52.5497672" lon="13.4414886">
<ele>39.5512695</ele>
<time>2010-10-09T11:41:07Z</time>
<extensions>
<tp1:TrackPointExtension>
<tp1:hr>158</tp1:hr>
</tp1:TrackPointExtension>
</extensions>
</trkpt>
<trkpt lat="52.5503917" lon="13.4420823">
<ele>40.9934082</ele>
<time>2010-10-09T11:41:17Z</time>
<extensions>
<tp1:TrackPointExtension>
<tp1:hr>158</tp1:hr>
</tp1:TrackPointExtension>
</extensions>
</trkpt>
<trkpt lat="52.5507369" lon="13.4423946">
<ele>45.7999268</ele>
<time>2010-10-09T11:41:23Z</time>
<extensions>
<tp1:TrackPointExtension>
<tp1:hr>159</tp1:hr>
</tp1:TrackPointExtension>
</extensions>
</trkpt>
<trkpt lat="52.5509837" lon="13.4423827">
<ele>47.2418213</ele>
<time>2010-10-09T11:41:27Z</time>
<extensions>
<tp1:TrackPointExtension>
<tp1:hr>157</tp1:hr>
</tp1:TrackPointExtension>
</extensions>
</trkpt>
<trkpt lat="52.5510210" lon="13.4424194">
<ele>47.2418213</ele>
<time>2010-10-09T11:41:29Z</time>
<extensions>
<tp1:TrackPointExtension>
<tp1:hr>156</tp1:hr>
</tp1:TrackPointExtension>
</extensions>
</trkpt>
<trkpt lat="52.5510986" lon="13.4424124">
<ele>47.7225342</ele>
<time>2010-10-09T11:41:32Z</time>
<extensions>
<tp1:TrackPointExtension>
<tp1:hr>155</tp1:hr>
</tp1:TrackPointExtension>
</extensions>
</trkpt>
<trkpt lat="52.5511561" lon="13.4424221">
<ele>50.1259766</ele>
<time>2010-10-09T11:41:38Z</time>
<extensions>
<tp1:TrackPointExtension>
<tp1:hr>152</tp1:hr>
</tp1:TrackPointExtension>
</extensions>
</trkpt>
<trkpt lat="52.5511447" lon="13.4424174">
<ele>52.0485840</ele>
<time>2010-10-09T11:41:48Z</time>
<extensions>
<tp1:TrackPointExtension>
<tp1:hr>146</tp1:hr>
</tp1:TrackPointExtension>
</extensions>
</trkpt>
<trkpt lat="52.5511722" lon="13.4423914">
<ele>53.9711914</ele>
<time>2010-10-09T11:41:54Z</time>
<extensions>
<tp1:TrackPointExtension>
<tp1:hr>141</tp1:hr>
</tp1:TrackPointExtension>
</extensions>
</trkpt>
<trkpt lat="52.5512313" lon="13.4424588">
<ele>53.9711914</ele>
<time>2010-10-09T11:42:03Z</time>
<extensions>
<tp1:TrackPointExtension>
<tp1:hr>139</tp1:hr>
</tp1:TrackPointExtension>
</extensions>
</trkpt>
<trkpt lat="52.5513642" lon="13.4426749">
<ele>52.0485840</ele>
<time>2010-10-09T11:42:07Z</time>
<extensions>
<tp1:TrackPointExtension>
<tp1:hr>139</tp1:hr>
</tp1:TrackPointExtension>
</extensions>
</trkpt>
<trkpt lat="52.5515519" lon="13.4429100">
<ele>53.0097656</ele>
<time>2010-10-09T11:42:11Z</time>
<extensions>
<tp1:TrackPointExtension>
<tp1:hr>141</tp1:hr>
</tp1:TrackPointExtension>
</extensions>
</trkpt>
<trkpt lat="52.5517841" lon="13.4432240">
<ele>52.5291748</ele>
<time>2010-10-09T11:42:16Z</time>
<extensions>
<tp1:TrackPointExtension>
<tp1:hr>143</tp1:hr>
</tp1:TrackPointExtension>
</extensions>
</trkpt>
<trkpt lat="52.5518442" lon="13.4432808">
<ele>52.5291748</ele>
<time>2010-10-09T11:42:17Z</time>
<extensions>
<tp1:TrackPointExtension>
<tp1:hr>145</tp1:hr>
</tp1:TrackPointExtension>
</extensions>
</trkpt>
<trkpt lat="52.5524280" lon="13.4437242">
<ele>54.9323730</ele>
<time>2010-10-09T11:42:25Z</time>
<extensions>
<tp1:TrackPointExtension>
<tp1:hr>146</tp1:hr>
</tp1:TrackPointExtension>
</extensions>
</trkpt>
<trkpt lat="52.5525207" lon="13.4438822">
<ele>53.4904785</ele>
<time>2010-10-09T11:42:27Z</time>
<extensions>
<tp1:TrackPointExtension>
<tp1:hr>146</tp1:hr>
</tp1:TrackPointExtension>
</extensions>
</trkpt>
<trkpt lat="52.5529345" lon="13.4443772">
<ele>53.9711914</ele>
<time>2010-10-09T11:42:34Z</time>
<extensions>
<tp1:TrackPointExtension>
<tp1:hr>147</tp1:hr>
</tp1:TrackPointExtension>
</extensions>
</trkpt>
<trkpt lat="52.5531179" lon="13.4445507">
<ele>54.9323730</ele>
<time>2010-10-09T11:42:37Z</time>
<extensions>
<tp1:TrackPointExtension>
<tp1:hr>149</tp1:hr>
</tp1:TrackPointExtension>
</extensions>
</trkpt>
<trkpt lat="52.5532840" lon="13.4446967">
<ele>54.9323730</ele>
<time>2010-10-09T11:42:40Z</time>
<extensions>
<tp1:TrackPointExtension>
<tp1:hr>149</tp1:hr>
</tp1:TrackPointExtension>
</extensions>
</trkpt>
<trkpt lat="52.5536026" lon="13.4449432">
<ele>52.5291748</ele>
<time>2010-10-09T11:42:45Z</time>
<extensions>
<tp1:TrackPointExtension>
<tp1:hr>150</tp1:hr>
</tp1:TrackPointExtension>
</extensions>
</trkpt>
<trkpt lat="52.5538515" lon="13.4452110">
<ele>50.1259766</ele>
<time>2010-10-09T11:42:50Z</time>
<extensions>
<tp1:TrackPointExtension>
<tp1:hr>151</tp1:hr>
</tp1:TrackPointExtension>
</extensions>
</trkpt>
<trkpt lat="52.5539387" lon="13.4452975">
<ele>49.1645508</ele>
<time>2010-10-09T11:42:52Z</time>
<extensions>
<tp1:TrackPointExtension>
<tp1:hr>150</tp1:hr>
</tp1:TrackPointExtension>
</extensions>
</trkpt>
<trkpt lat="52.5540467" lon="13.4454611">
<ele>48.6839600</ele>
<time>2010-10-09T11:42:55Z</time>
<extensions>
<tp1:TrackPointExtension>
<tp1:hr>149</tp1:hr>
</tp1:TrackPointExtension>
</extensions>
</trkpt>
<trkpt lat="52.5542689" lon="13.4458832">
<ele>46.7612305</ele>
<time>2010-10-09T11:43:01Z</time>
<extensions>
<tp1:TrackPointExtension>
<tp1:hr>148</tp1:hr>
</tp1:TrackPointExtension>
</extensions>
</trkpt>
<trkpt lat="52.5545450" lon="13.4463962">
<ele>45.7999268</ele>
<time>2010-10-09T11:43:08Z</time>
<extensions>
<tp1:TrackPointExtension>
<tp1:hr>148</tp1:hr>
</tp1:TrackPointExtension>
</extensions>
</trkpt>
<trkpt lat="52.5546693" lon="13.4466209">
<ele>45.3192139</ele>
<time>2010-10-09T11:43:11Z</time>
<extensions>
<tp1:TrackPointExtension>
<tp1:hr>148</tp1:hr>
</tp1:TrackPointExtension>
</extensions>
</trkpt>
<trkpt lat="52.5547128" lon="13.4468552">
<ele>46.2806396</ele>
<time>2010-10-09T11:43:15Z</time>
<extensions>
<tp1:TrackPointExtension>
<tp1:hr>147</tp1:hr>
</tp1:TrackPointExtension>
</extensions>
</trkpt>
<trkpt lat="52.5547812" lon="13.4470303">
<ele>46.7612305</ele>
<time>2010-10-09T11:43:18Z</time>
<extensions>
<tp1:TrackPointExtension>
<tp1:hr>147</tp1:hr>
</tp1:TrackPointExtension>
</extensions>
</trkpt>
<trkpt lat="52.5548960" lon="13.4471956">
<ele>48.2033691</ele>
<time>2010-10-09T11:43:21Z</time>
<extensions>
<tp1:TrackPointExtension>
<tp1:hr>147</tp1:hr>
</tp1:TrackPointExtension>
</extensions>
</trkpt>
<trkpt lat="52.5551172" lon="13.4474675">
<ele>48.6839600</ele>
<time>2010-10-09T11:43:26Z</time>
<extensions>
<tp1:TrackPointExtension>
<tp1:hr>148</tp1:hr>
</tp1:TrackPointExtension>
</extensions>
</trkpt>
<trkpt lat="52.5551859" lon="13.4476020">
<ele>47.2418213</ele>
<time>2010-10-09T11:43:28Z</time>
<extensions>
<tp1:TrackPointExtension>
<tp1:hr>149</tp1:hr>
</tp1:TrackPointExtension>
</extensions>
</trkpt>
<trkpt lat="52.5553658" lon="13.4480340">
<ele>47.7225342</ele>
<time>2010-10-09T11:43:34Z</time>
<extensions>
<tp1:TrackPointExtension>
<tp1:hr>149</tp1:hr>
</tp1:TrackPointExtension>
</extensions>
</trkpt>
<trkpt lat="52.5556141" lon="13.4485252">
<ele>48.2033691</ele>
<time>2010-10-09T11:43:41Z</time>
<extensions>
<tp1:TrackPointExtension>
<tp1:hr>150</tp1:hr>
</tp1:TrackPointExtension>
</extensions>
</trkpt>
<trkpt lat="52.5556502" lon="13.4485874">
<ele>48.2033691</ele>
<time>2010-10-09T11:43:42Z</time>
<extensions>
<tp1:TrackPointExtension>
<tp1:hr>150</tp1:hr>
</tp1:TrackPointExtension>
</extensions>
</trkpt>
<trkpt lat="52.5559473" lon="13.4491361">
<ele>49.6452637</ele>
<time>2010-10-09T11:43:50Z</time>
<extensions>
<tp1:TrackPointExtension>
<tp1:hr>151</tp1:hr>
</tp1:TrackPointExtension>
</extensions>
</trkpt>
<trkpt lat="52.5562250" lon="13.4496549">
<ele>49.6452637</ele>
<time>2010-10-09T11:43:57Z</time>
<extensions>
<tp1:TrackPointExtension>
<tp1:hr>154</tp1:hr>
</tp1:TrackPointExtension>
</extensions>
</trkpt>
<trkpt lat="52.5565170" lon="13.4501760">
<ele>49.1645508</ele>
<time>2010-10-09T11:44:04Z</time>
<extensions>
<tp1:TrackPointExtension>
<tp1:hr>158</tp1:hr>
</tp1:TrackPointExtension>
</extensions>
</trkpt>
<trkpt lat="52.5568706" lon="13.4507920">
<ele>47.7225342</ele>
<time>2010-10-09T11:44:12Z</time>
<extensions>
<tp1:TrackPointExtension>
<tp1:hr>159</tp1:hr>
</tp1:TrackPointExtension>
</extensions>
</trkpt>
<trkpt lat="52.5571656" lon="13.4513130">
<ele>47.7225342</ele>
<time>2010-10-09T11:44:19Z</time>
<extensions>
<tp1:TrackPointExtension>
<tp1:hr>159</tp1:hr>
</tp1:TrackPointExtension>
</extensions>
</trkpt>
<trkpt lat="52.5574535" lon="13.4518353">
<ele>48.2033691</ele>
<time>2010-10-09T11:44:26Z</time>
<extensions>
<tp1:TrackPointExtension>
<tp1:hr>159</tp1:hr>
</tp1:TrackPointExtension>
</extensions>
</trkpt>
<trkpt lat="52.5576164" lon="13.4521270">
<ele>48.6839600</ele>
<time>2010-10-09T11:44:30Z</time>
<extensions>
<tp1:TrackPointExtension>
<tp1:hr>158</tp1:hr>
</tp1:TrackPointExtension>
</extensions>
</trkpt>
<trkpt lat="52.5577176" lon="13.4523475">
<ele>48.6839600</ele>
<time>2010-10-09T11:44:33Z</time>
<extensions>
<tp1:TrackPointExtension>
<tp1:hr>158</tp1:hr>
</tp1:TrackPointExtension>
</extensions>
</trkpt>
<trkpt lat="52.5578402" lon="13.4525110">
<ele>48.6839600</ele>
<time>2010-10-09T11:44:36Z</time>
<extensions>
<tp1:TrackPointExtension>
<tp1:hr>158</tp1:hr>
</tp1:TrackPointExtension>
</extensions>
</trkpt>
<trkpt lat="52.5580830" lon="13.4529402">
<ele>48.2033691</ele>
<time>2010-10-09T11:44:42Z</time>
<extensions>
<tp1:TrackPointExtension>
<tp1:hr>156</tp1:hr>
</tp1:TrackPointExtension>
</extensions>
</trkpt>
<trkpt lat="52.5584359" lon="13.4535666">
<ele>48.6839600</ele>
<time>2010-10-09T11:44:50Z</time>
<extensions>
<tp1:TrackPointExtension>
<tp1:hr>157</tp1:hr>
</tp1:TrackPointExtension>
</extensions>
</trkpt>
<trkpt lat="52.5587679" lon="13.4541581">
<ele>47.2418213</ele>
<time>2010-10-09T11:44:57Z</time>
<extensions>
<tp1:TrackPointExtension>
<tp1:hr>158</tp1:hr>
</tp1:TrackPointExtension>
</extensions>
</trkpt>
<trkpt lat="52.5592076" lon="13.4549303">
<ele>45.3192139</ele>
<time>2010-10-09T11:45:06Z</time>
<extensions>
<tp1:TrackPointExtension>
<tp1:hr>159</tp1:hr>
</tp1:TrackPointExtension>
</extensions>
</trkpt>
<trkpt lat="52.5592558" lon="13.4550126">
<ele>45.3192139</ele>
<time>2010-10-09T11:45:07Z</time>
<extensions>
<tp1:TrackPointExtension>
<tp1:hr>159</tp1:hr>
</tp1:TrackPointExtension>
</extensions>
</trkpt>
<trkpt lat="52.5597212" lon="13.4556001">
<ele>44.3580322</ele>
<time>2010-10-09T11:45:15Z</time>
<extensions>
<tp1:TrackPointExtension>
<tp1:hr>161</tp1:hr>
</tp1:TrackPointExtension>
</extensions>
</trkpt>
<trkpt lat="52.5601461" lon="13.4561224">
<ele>42.9160156</ele>
<time>2010-10-09T11:45:22Z</time>
<extensions>
<tp1:TrackPointExtension>
<tp1:hr>159</tp1:hr>
</tp1:TrackPointExtension>
</extensions>
</trkpt>
<trkpt lat="52.5605576" lon="13.4566363">
<ele>42.9160156</ele>
<time>2010-10-09T11:45:29Z</time>
<extensions>
<tp1:TrackPointExtension>
<tp1:hr>159</tp1:hr>
</tp1:TrackPointExtension>
</extensions>
</trkpt>
<trkpt lat="52.5608248" lon="13.4569734">
<ele>42.9160156</ele>
<time>2010-10-09T11:45:34Z</time>
<extensions>
<tp1:TrackPointExtension>
<tp1:hr>155</tp1:hr>
</tp1:TrackPointExtension>
</extensions>
</trkpt>
<trkpt lat="52.5608636" lon="13.4570299">
<ele>42.9160156</ele>
<time>2010-10-09T11:45:37Z</time>
<extensions>
<tp1:TrackPointExtension>
<tp1:hr>154</tp1:hr>
</tp1:TrackPointExtension>
</extensions>
</trkpt>
<trkpt lat="52.5608659" lon="13.4570244">
<ele>43.8773193</ele>
<time>2010-10-09T11:45:47Z</time>
<extensions>
<tp1:TrackPointExtension>
<tp1:hr>150</tp1:hr>
</tp1:TrackPointExtension>
</extensions>
</trkpt>
<trkpt lat="52.5608687" lon="13.4570212">
<ele>44.3580322</ele>
<time>2010-10-09T11:45:57Z</time>
<extensions>
<tp1:TrackPointExtension>
<tp1:hr>145</tp1:hr>
</tp1:TrackPointExtension>
</extensions>
</trkpt>
<trkpt lat="52.5608683" lon="13.4570213">
<ele>44.3580322</ele>
<time>2010-10-09T11:46:01Z</time>
<extensions>
<tp1:TrackPointExtension>
<tp1:hr>140</tp1:hr>
</tp1:TrackPointExtension>
</extensions>
</trkpt>
<trkpt lat="52.5608688" lon="13.4570202">
<ele>44.8386230</ele>
<time>2010-10-09T11:46:11Z</time>
<extensions>
<tp1:TrackPointExtension>
<tp1:hr>135</tp1:hr>
</tp1:TrackPointExtension>
</extensions>
</trkpt>
<trkpt lat="52.5608687" lon="13.4570186">
<ele>45.3192139</ele>
<time>2010-10-09T11:46:16Z</time>
<extensions>
<tp1:TrackPointExtension>
<tp1:hr>130</tp1:hr>
</tp1:TrackPointExtension>
</extensions>
</trkpt>
<trkpt lat="52.5609254" lon="13.4570845">
<ele>45.3192139</ele>
<time>2010-10-09T11:46:26Z</time>
<extensions>
<tp1:TrackPointExtension>
<tp1:hr>127</tp1:hr>
</tp1:TrackPointExtension>
</extensions>
</trkpt>
<trkpt lat="52.5610683" lon="13.4572815">
<ele>45.3192139</ele>
<time>2010-10-09T11:46:30Z</time>
<extensions>
<tp1:TrackPointExtension>
<tp1:hr>128</tp1:hr>
</tp1:TrackPointExtension>
</extensions>
</trkpt>
<trkpt lat="52.5613090" lon="13.4575659">
<ele>46.7612305</ele>
<time>2010-10-09T11:46:35Z</time>
<extensions>
<tp1:TrackPointExtension>
<tp1:hr>133</tp1:hr>
</tp1:TrackPointExtension>
</extensions>
</trkpt>
<trkpt lat="52.5615594" lon="13.4578909">
<ele>49.1645508</ele>
<time>2010-10-09T11:46:40Z</time>
<extensions>
<tp1:TrackPointExtension>
<tp1:hr>139</tp1:hr>
</tp1:TrackPointExtension>
</extensions>
</trkpt>
<trkpt lat="52.5619397" lon="13.4583498">
<ele>48.6839600</ele>
<time>2010-10-09T11:46:47Z</time>
<extensions>
<tp1:TrackPointExtension>
<tp1:hr>144</tp1:hr>
</tp1:TrackPointExtension>
</extensions>
</trkpt>
<trkpt lat="52.5623308" lon="13.4588213">
<ele>48.2033691</ele>
<time>2010-10-09T11:46:54Z</time>
<extensions>
<tp1:TrackPointExtension>
<tp1:hr>150</tp1:hr>
</tp1:TrackPointExtension>
</extensions>
</trkpt>
<trkpt lat="52.5628858" lon="13.4594952">
<ele>46.7612305</ele>
<time>2010-10-09T11:47:04Z</time>
<extensions>
<tp1:TrackPointExtension>
<tp1:hr>153</tp1:hr>
</tp1:TrackPointExtension>
</extensions>
</trkpt>
<trkpt lat="52.5633754" lon="13.4601028">
<ele>46.7612305</ele>
<time>2010-10-09T11:47:13Z</time>
<extensions>
<tp1:TrackPointExtension>
<tp1:hr>156</tp1:hr>
</tp1:TrackPointExtension>
</extensions>
</trkpt>
<trkpt lat="52.5638717" lon="13.4607199">
<ele>45.7999268</ele>
<time>2010-10-09T11:47:22Z</time>
<extensions>
<tp1:TrackPointExtension>
<tp1:hr>158</tp1:hr>
</tp1:TrackPointExtension>
</extensions>
</trkpt>
<trkpt lat="52.5642623" lon="13.4612001">
<ele>46.2806396</ele>
<time>2010-10-09T11:47:29Z</time>
<extensions>
<tp1:TrackPointExtension>
<tp1:hr>160</tp1:hr>
</tp1:TrackPointExtension>
</extensions>
</trkpt>
<trkpt lat="52.5647964" lon="13.4619101">
<ele>47.7225342</ele>
<time>2010-10-09T11:47:39Z</time>
<extensions>
<tp1:TrackPointExtension>
<tp1:hr>160</tp1:hr>
</tp1:TrackPointExtension>
</extensions>
</trkpt>
<trkpt lat="52.5653858" lon="13.4626281">
<ele>48.2033691</ele>
<time>2010-10-09T11:47:50Z</time>
<extensions>
<tp1:TrackPointExtension>
<tp1:hr>161</tp1:hr>
</tp1:TrackPointExtension>
</extensions>
</trkpt>
<trkpt lat="52.5657652" lon="13.4631010">
<ele>48.2033691</ele>
<time>2010-10-09T11:47:57Z</time>
<extensions>
<tp1:TrackPointExtension>
<tp1:hr>162</tp1:hr>
</tp1:TrackPointExtension>
</extensions>
</trkpt>
<trkpt lat="52.5663675" lon="13.4638455">
<ele>47.2418213</ele>
<time>2010-10-09T11:48:08Z</time>
<extensions>
<tp1:TrackPointExtension>
<tp1:hr>163</tp1:hr>
</tp1:TrackPointExtension>
</extensions>
</trkpt>
<trkpt lat="52.5667094" lon="13.4643757">
<ele>47.7225342</ele>
<time>2010-10-09T11:48:15Z</time>
<extensions>
<tp1:TrackPointExtension>
<tp1:hr>163</tp1:hr>
</tp1:TrackPointExtension>
</extensions>
</trkpt>
<trkpt lat="52.5670072" lon="13.4652516">
<ele>47.7225342</ele>
<time>2010-10-09T11:48:24Z</time>
<extensions>
<tp1:TrackPointExtension>
<tp1:hr>163</tp1:hr>
</tp1:TrackPointExtension>
</extensions>
</trkpt>
<trkpt lat="52.5671115" lon="13.4659056">
<ele>48.2033691</ele>
<time>2010-10-09T11:48:30Z</time>
<extensions>
<tp1:TrackPointExtension>
<tp1:hr>164</tp1:hr>
</tp1:TrackPointExtension>
</extensions>
</trkpt>
<trkpt lat="52.5672037" lon="13.4667986">
<ele>48.2033691</ele>
<time>2010-10-09T11:48:38Z</time>
<extensions>
<tp1:TrackPointExtension>
<tp1:hr>165</tp1:hr>
</tp1:TrackPointExtension>
</extensions>
</trkpt>
<trkpt lat="52.5672801" lon="13.4676869">
<ele>47.2418213</ele>
<time>2010-10-09T11:48:46Z</time>
<extensions>
<tp1:TrackPointExtension>
<tp1:hr>165</tp1:hr>
</tp1:TrackPointExtension>
</extensions>
</trkpt>
<trkpt lat="52.5673321" lon="13.4685762">
<ele>47.2418213</ele>
<time>2010-10-09T11:48:54Z</time>
<extensions>
<tp1:TrackPointExtension>
<tp1:hr>165</tp1:hr>
</tp1:TrackPointExtension>
</extensions>
</trkpt>
<trkpt lat="52.5673681" lon="13.4696740">
<ele>47.2418213</ele>
<time>2010-10-09T11:49:04Z</time>
<extensions>
<tp1:TrackPointExtension>
<tp1:hr>165</tp1:hr>
</tp1:TrackPointExtension>
</extensions>
</trkpt>
<trkpt lat="52.5673925" lon="13.4706309">
<ele>47.7225342</ele>
<time>2010-10-09T11:49:13Z</time>
<extensions>
<tp1:TrackPointExtension>
<tp1:hr>164</tp1:hr>
</tp1:TrackPointExtension>
</extensions>
</trkpt>
<trkpt lat="52.5674150" lon="13.4718569">
<ele>49.6452637</ele>
<time>2010-10-09T11:49:25Z</time>
<extensions>
<tp1:TrackPointExtension>
<tp1:hr>167</tp1:hr>
</tp1:TrackPointExtension>
</extensions>
</trkpt>
<trkpt lat="52.5673881" lon="13.4727385">
<ele>51.5678711</ele>
<time>2010-10-09T11:49:34Z</time>
<extensions>
<tp1:TrackPointExtension>
<tp1:hr>168</tp1:hr>
</tp1:TrackPointExtension>
</extensions>
</trkpt>
<trkpt lat="52.5673502" lon="13.4734864">
<ele>52.0485840</ele>
<time>2010-10-09T11:49:42Z</time>
<extensions>
<tp1:TrackPointExtension>
<tp1:hr>170</tp1:hr>
</tp1:TrackPointExtension>
</extensions>
</trkpt>
<trkpt lat="52.5672921" lon="13.4742904">
<ele>51.5678711</ele>
<time>2010-10-09T11:49:50Z</time>
<extensions>
<tp1:TrackPointExtension>
<tp1:hr>171</tp1:hr>
</tp1:TrackPointExtension>
</extensions>
</trkpt>
<trkpt lat="52.5671766" lon="13.4753261">
<ele>51.0871582</ele>
<time>2010-10-09T11:50:00Z</time>
<extensions>
<tp1:TrackPointExtension>
<tp1:hr>170</tp1:hr>
</tp1:TrackPointExtension>
</extensions>
</trkpt>
<trkpt lat="52.5670875" lon="13.4761389">
<ele>49.1645508</ele>
<time>2010-10-09T11:50:08Z</time>
<extensions>
<tp1:TrackPointExtension>
<tp1:hr>168</tp1:hr>
</tp1:TrackPointExtension>
</extensions>
</trkpt>
<trkpt lat="52.5670340" lon="13.4765347">
<ele>48.2033691</ele>
<time>2010-10-09T11:50:13Z</time>
<extensions>
<tp1:TrackPointExtension>
<tp1:hr>166</tp1:hr>
</tp1:TrackPointExtension>
</extensions>
</trkpt>
<trkpt lat="52.5669865" lon="13.4768899">
<ele>47.7225342</ele>
<time>2010-10-09T11:50:19Z</time>
<extensions>
<tp1:TrackPointExtension>
<tp1:hr>163</tp1:hr>
</tp1:TrackPointExtension>
</extensions>
</trkpt>
<trkpt lat="52.5669696" lon="13.4770671">
<ele>47.2418213</ele>
<time>2010-10-09T11:50:25Z</time>
<extensions>
<tp1:TrackPointExtension>
<tp1:hr>161</tp1:hr>
</tp1:TrackPointExtension>
</extensions>
</trkpt>
<trkpt lat="52.5669726" lon="13.4771048">
<ele>47.2418213</ele>
<time>2010-10-09T11:50:30Z</time>
<extensions>
<tp1:TrackPointExtension>
<tp1:hr>160</tp1:hr>
</tp1:TrackPointExtension>
</extensions>
</trkpt>
<trkpt lat="52.5669708" lon="13.4771516">
<ele>47.2418213</ele>
<time>2010-10-09T11:50:37Z</time>
<extensions>
<tp1:TrackPointExtension>
<tp1:hr>158</tp1:hr>
</tp1:TrackPointExtension>
</extensions>
</trkpt>
<trkpt lat="52.5669958" lon="13.4772000">
<ele>47.2418213</ele>
<time>2010-10-09T11:50:41Z</time>
<extensions>
<tp1:TrackPointExtension>
<tp1:hr>157</tp1:hr>
</tp1:TrackPointExtension>
</extensions>
</trkpt>
<trkpt lat="52.5671169" lon="13.4772550">
<ele>47.2418213</ele>
<time>2010-10-09T11:50:46Z</time>
<extensions>
<tp1:TrackPointExtension>
<tp1:hr>156</tp1:hr>
</tp1:TrackPointExtension>
</extensions>
</trkpt>
<trkpt lat="52.5673857" lon="13.4773013">
<ele>47.2418213</ele>
<time>2010-10-09T11:50:52Z</time>
<extensions>
<tp1:TrackPointExtension>
<tp1:hr>154</tp1:hr>
</tp1:TrackPointExtension>
</extensions>
</trkpt>
<trkpt lat="52.5674389" lon="13.4772789">
<ele>47.2418213</ele>
<time>2010-10-09T11:50:53Z</time>
<extensions>
<tp1:TrackPointExtension>
<tp1:hr>154</tp1:hr>
</tp1:TrackPointExtension>
</extensions>
</trkpt>
<trkpt lat="52.5677488" lon="13.4769452">
<ele>47.7225342</ele>
<time>2010-10-09T11:50:59Z</time>
<extensions>
<tp1:TrackPointExtension>
<tp1:hr>154</tp1:hr>
</tp1:TrackPointExtension>
</extensions>
</trkpt>
<trkpt lat="52.5679924" lon="13.4766435">
<ele>47.7225342</ele>
<time>2010-10-09T11:51:04Z</time>
<extensions>
<tp1:TrackPointExtension>
<tp1:hr>154</tp1:hr>
</tp1:TrackPointExtension>
</extensions>
</trkpt>
<trkpt lat="52.5681825" lon="13.4767093">
<ele>46.7612305</ele>
<time>2010-10-09T11:51:08Z</time>
<extensions>
<tp1:TrackPointExtension>
<tp1:hr>153</tp1:hr>
</tp1:TrackPointExtension>
</extensions>
</trkpt>
<trkpt lat="52.5684798" lon="13.4773397">
<ele>45.3192139</ele>
<time>2010-10-09T11:51:15Z</time>
<extensions>
<tp1:TrackPointExtension>
<tp1:hr>152</tp1:hr>
</tp1:TrackPointExtension>
</extensions>
</trkpt>
<trkpt lat="52.5687103" lon="13.4778043">
<ele>45.3192139</ele>
<time>2010-10-09T11:51:20Z</time>
<extensions>
<tp1:TrackPointExtension>
<tp1:hr>152</tp1:hr>
</tp1:TrackPointExtension>
</extensions>
</trkpt>
<trkpt lat="52.5691187" lon="13.4784859">
<ele>44.8386230</ele>
<time>2010-10-09T11:51:28Z</time>
<extensions>
<tp1:TrackPointExtension>
<tp1:hr>152</tp1:hr>
</tp1:TrackPointExtension>
</extensions>
</trkpt>
<trkpt lat="52.5696228" lon="13.4792862">
<ele>44.3580322</ele>
<time>2010-10-09T11:51:38Z</time>
<extensions>
<tp1:TrackPointExtension>
<tp1:hr>154</tp1:hr>
</tp1:TrackPointExtension>
</extensions>
</trkpt>
<trkpt lat="52.5699639" lon="13.4798343">
<ele>44.8386230</ele>
<time>2010-10-09T11:51:45Z</time>
<extensions>
<tp1:TrackPointExtension>
<tp1:hr>155</tp1:hr>
</tp1:TrackPointExtension>
</extensions>
</trkpt>
<trkpt lat="52.5703816" lon="13.4806314">
<ele>44.8386230</ele>
<time>2010-10-09T11:51:54Z</time>
<extensions>
<tp1:TrackPointExtension>
<tp1:hr>158</tp1:hr>
</tp1:TrackPointExtension>
</extensions>
</trkpt>
<trkpt lat="52.5707147" lon="13.4812882">
<ele>44.8386230</ele>
<time>2010-10-09T11:52:01Z</time>
<extensions>
<tp1:TrackPointExtension>
<tp1:hr>161</tp1:hr>
</tp1:TrackPointExtension>
</extensions>
</trkpt>
<trkpt lat="52.5710629" lon="13.4819520">
<ele>44.8386230</ele>
<time>2010-10-09T11:52:08Z</time>
<extensions>
<tp1:TrackPointExtension>
<tp1:hr>161</tp1:hr>
</tp1:TrackPointExtension>
</extensions>
</trkpt>
<trkpt lat="52.5714284" lon="13.4823996">
<ele>44.3580322</ele>
<time>2010-10-09T11:52:14Z</time>
<extensions>
<tp1:TrackPointExtension>
<tp1:hr>162</tp1:hr>
</tp1:TrackPointExtension>
</extensions>
</trkpt>
<trkpt lat="52.5718337" lon="13.4826968">
<ele>45.7999268</ele>
<time>2010-10-09T11:52:20Z</time>
<extensions>
<tp1:TrackPointExtension>
<tp1:hr>163</tp1:hr>
</tp1:TrackPointExtension>
</extensions>
</trkpt>
<trkpt lat="52.5718991" lon="13.4827290">
<ele>45.7999268</ele>
<time>2010-10-09T11:52:21Z</time>
<extensions>
<tp1:TrackPointExtension>
<tp1:hr>164</tp1:hr>
</tp1:TrackPointExtension>
</extensions>
</trkpt>
<trkpt lat="52.5722677" lon="13.4827897">
<ele>48.2033691</ele>
<time>2010-10-09T11:52:26Z</time>
<extensions>
<tp1:TrackPointExtension>
<tp1:hr>164</tp1:hr>
</tp1:TrackPointExtension>
</extensions>
</trkpt>
<trkpt lat="52.5726369" lon="13.4827994">
<ele>49.1645508</ele>
<time>2010-10-09T11:52:31Z</time>
<extensions>
<tp1:TrackPointExtension>
<tp1:hr>165</tp1:hr>
</tp1:TrackPointExtension>
</extensions>
</trkpt>
<trkpt lat="52.5730477" lon="13.4828583">
<ele>50.6065674</ele>
<time>2010-10-09T11:52:37Z</time>
<extensions>
<tp1:TrackPointExtension>
<tp1:hr>165</tp1:hr>
</tp1:TrackPointExtension>
</extensions>
</trkpt>
<trkpt lat="52.5735066" lon="13.4829274">
<ele>52.0485840</ele>
<time>2010-10-09T11:52:44Z</time>
<extensions>
<tp1:TrackPointExtension>
<tp1:hr>165</tp1:hr>
</tp1:TrackPointExtension>
</extensions>
</trkpt>
<trkpt lat="52.5738921" lon="13.4829985">
<ele>53.0097656</ele>
<time>2010-10-09T11:52:50Z</time>
<extensions>
<tp1:TrackPointExtension>
<tp1:hr>165</tp1:hr>
</tp1:TrackPointExtension>
</extensions>
</trkpt>
<trkpt lat="52.5744293" lon="13.4830838">
<ele>53.4904785</ele>
<time>2010-10-09T11:52:58Z</time>
<extensions>
<tp1:TrackPointExtension>
<tp1:hr>167</tp1:hr>
</tp1:TrackPointExtension>
</extensions>
</trkpt>
<trkpt lat="52.5747557" lon="13.4831382">
<ele>53.0097656</ele>
<time>2010-10-09T11:53:03Z</time>
<extensions>
<tp1:TrackPointExtension>
<tp1:hr>167</tp1:hr>
</tp1:TrackPointExtension>
</extensions>
</trkpt>
<trkpt lat="52.5751379" lon="13.4832096">
<ele>52.0485840</ele>
<time>2010-10-09T11:53:09Z</time>
<extensions>
<tp1:TrackPointExtension>
<tp1:hr>166</tp1:hr>
</tp1:TrackPointExtension>
</extensions>
</trkpt>
<trkpt lat="52.5752789" lon="13.4832330">
<ele>51.5678711</ele>
<time>2010-10-09T11:53:11Z</time>
<extensions>
<tp1:TrackPointExtension>
<tp1:hr>166</tp1:hr>
</tp1:TrackPointExtension>
</extensions>
</trkpt>
<trkpt lat="52.5757482" lon="13.4833205">
<ele>51.5678711</ele>
<time>2010-10-09T11:53:18Z</time>
<extensions>
<tp1:TrackPointExtension>
<tp1:hr>166</tp1:hr>
</tp1:TrackPointExtension>
</extensions>
</trkpt>
<trkpt lat="52.5763448" lon="13.4833991">
<ele>50.1259766</ele>
<time>2010-10-09T11:53:27Z</time>
<extensions>
<tp1:TrackPointExtension>
<tp1:hr>165</tp1:hr>
</tp1:TrackPointExtension>
</extensions>
</trkpt>
<trkpt lat="52.5768918" lon="13.4834949">
<ele>49.1645508</ele>
<time>2010-10-09T11:53:35Z</time>
<extensions>
<tp1:TrackPointExtension>
<tp1:hr>166</tp1:hr>
</tp1:TrackPointExtension>
</extensions>
</trkpt>
<trkpt lat="52.5770934" lon="13.4835218">
<ele>48.6839600</ele>
<time>2010-10-09T11:53:38Z</time>
<extensions>
<tp1:TrackPointExtension>
<tp1:hr>166</tp1:hr>
</tp1:TrackPointExtension>
</extensions>
</trkpt>
<trkpt lat="52.5774953" lon="13.4834415">
<ele>48.2033691</ele>
<time>2010-10-09T11:53:44Z</time>
<extensions>
<tp1:TrackPointExtension>
<tp1:hr>166</tp1:hr>
</tp1:TrackPointExtension>
</extensions>
</trkpt>
<trkpt lat="52.5781166" lon="13.4832599">
<ele>49.6452637</ele>
<time>2010-10-09T11:53:53Z</time>
<extensions>
<tp1:TrackPointExtension>
<tp1:hr>166</tp1:hr>
</tp1:TrackPointExtension>
</extensions>
</trkpt>
<trkpt lat="52.5786076" lon="13.4831143">
<ele>50.6065674</ele>
<time>2010-10-09T11:54:00Z</time>
<extensions>
<tp1:TrackPointExtension>
<tp1:hr>167</tp1:hr>
</tp1:TrackPointExtension>
</extensions>
</trkpt>
<trkpt lat="52.5791892" lon="13.4829305">
<ele>50.6065674</ele>
<time>2010-10-09T11:54:08Z</time>
<extensions>
<tp1:TrackPointExtension>
<tp1:hr>167</tp1:hr>
</tp1:TrackPointExtension>
</extensions>
</trkpt>
<trkpt lat="52.5795131" lon="13.4828414">
<ele>49.6452637</ele>
<time>2010-10-09T11:54:13Z</time>
<extensions>
<tp1:TrackPointExtension>
<tp1:hr>167</tp1:hr>
</tp1:TrackPointExtension>
</extensions>
</trkpt>
<trkpt lat="52.5796248" lon="13.4828471">
<ele>49.6452637</ele>
<time>2010-10-09T11:54:15Z</time>
<extensions>
<tp1:TrackPointExtension>
<tp1:hr>165</tp1:hr>
</tp1:TrackPointExtension>
</extensions>
</trkpt>
<trkpt lat="52.5800078" lon="13.4828930">
<ele>49.6452637</ele>
<time>2010-10-09T11:54:21Z</time>
<extensions>
<tp1:TrackPointExtension>
<tp1:hr>165</tp1:hr>
</tp1:TrackPointExtension>
</extensions>
</trkpt>
<trkpt lat="52.5804078" lon="13.4829554">
<ele>49.1645508</ele>
<time>2010-10-09T11:54:27Z</time>
<extensions>
<tp1:TrackPointExtension>
<tp1:hr>164</tp1:hr>
</tp1:TrackPointExtension>
</extensions>
</trkpt>
<trkpt lat="52.5808340" lon="13.4830142">
<ele>49.6452637</ele>
<time>2010-10-09T11:54:33Z</time>
<extensions>
<tp1:TrackPointExtension>
<tp1:hr>164</tp1:hr>
</tp1:TrackPointExtension>
</extensions>
</trkpt>
<trkpt lat="52.5813276" lon="13.4830883">
<ele>49.6452637</ele>
<time>2010-10-09T11:54:40Z</time>
<extensions>
<tp1:TrackPointExtension>
<tp1:hr>165</tp1:hr>
</tp1:TrackPointExtension>
</extensions>
</trkpt>
<trkpt lat="52.5817211" lon="13.4831403">
<ele>49.6452637</ele>
<time>2010-10-09T11:54:46Z</time>
<extensions>
<tp1:TrackPointExtension>
<tp1:hr>165</tp1:hr>
</tp1:TrackPointExtension>
</extensions>
</trkpt>
<trkpt lat="52.5821192" lon="13.4831852">
<ele>51.5678711</ele>
<time>2010-10-09T11:54:52Z</time>
<extensions>
<tp1:TrackPointExtension>
<tp1:hr>164</tp1:hr>
</tp1:TrackPointExtension>
</extensions>
</trkpt>
<trkpt lat="52.5823850" lon="13.4832577">
<ele>51.5678711</ele>
<time>2010-10-09T11:54:56Z</time>
<extensions>
<tp1:TrackPointExtension>
<tp1:hr>164</tp1:hr>
</tp1:TrackPointExtension>
</extensions>
</trkpt>
<trkpt lat="52.5828330" lon="13.4833861">
<ele>52.0485840</ele>
<time>2010-10-09T11:55:03Z</time>
<extensions>
<tp1:TrackPointExtension>
<tp1:hr>164</tp1:hr>
</tp1:TrackPointExtension>
</extensions>
</trkpt>
<trkpt lat="52.5832674" lon="13.4835151">
<ele>52.0485840</ele>
<time>2010-10-09T11:55:10Z</time>
<extensions>
<tp1:TrackPointExtension>
<tp1:hr>163</tp1:hr>
</tp1:TrackPointExtension>
</extensions>
</trkpt>
<trkpt lat="52.5836431" lon="13.4836702">
<ele>53.0097656</ele>
<time>2010-10-09T11:55:16Z</time>
<extensions>
<tp1:TrackPointExtension>
<tp1:hr>163</tp1:hr>
</tp1:TrackPointExtension>
</extensions>
</trkpt>
<trkpt lat="52.5840840" lon="13.4838749">
<ele>53.4904785</ele>
<time>2010-10-09T11:55:23Z</time>
<extensions>
<tp1:TrackPointExtension>
<tp1:hr>164</tp1:hr>
</tp1:TrackPointExtension>
</extensions>
</trkpt>
<trkpt lat="52.5845673" lon="13.4840897">
<ele>52.5291748</ele>
<time>2010-10-09T11:55:30Z</time>
<extensions>
<tp1:TrackPointExtension>
<tp1:hr>164</tp1:hr>
</tp1:TrackPointExtension>
</extensions>
</trkpt>
<trkpt lat="52.5850587" lon="13.4843136">
<ele>50.6065674</ele>
<time>2010-10-09T11:55:37Z</time>
<extensions>
<tp1:TrackPointExtension>
<tp1:hr>163</tp1:hr>
</tp1:TrackPointExtension>
</extensions>
</trkpt>
<trkpt lat="52.5857270" lon="13.4846409">
<ele>48.6839600</ele>
<time>2010-10-09T11:55:46Z</time>
<extensions>
<tp1:TrackPointExtension>
<tp1:hr>161</tp1:hr>
</tp1:TrackPointExtension>
</extensions>
</trkpt>
<trkpt lat="52.5862715" lon="13.4849015">
<ele>47.7225342</ele>
<time>2010-10-09T11:55:53Z</time>
<extensions>
<tp1:TrackPointExtension>
<tp1:hr>160</tp1:hr>
</tp1:TrackPointExtension>
</extensions>
</trkpt>
<trkpt lat="52.5868403" lon="13.4851795">
<ele>46.2806396</ele>
<time>2010-10-09T11:56:00Z</time>
<extensions>
<tp1:TrackPointExtension>
<tp1:hr>158</tp1:hr>
</tp1:TrackPointExtension>
</extensions>
</trkpt>
<trkpt lat="52.5872573" lon="13.4853594">
<ele>45.3192139</ele>
<time>2010-10-09T11:56:05Z</time>
<extensions>
<tp1:TrackPointExtension>
<tp1:hr>157</tp1:hr>
</tp1:TrackPointExtension>
</extensions>
</trkpt>
<trkpt lat="52.5873278" lon="13.4854067">
<ele>45.3192139</ele>
<time>2010-10-09T11:56:06Z</time>
<extensions>
<tp1:TrackPointExtension>
<tp1:hr>157</tp1:hr>
</tp1:TrackPointExtension>
</extensions>
</trkpt>
<trkpt lat="52.5875453" lon="13.4855846">
<ele>45.7999268</ele>
<time>2010-10-09T11:56:09Z</time>
<extensions>
<tp1:TrackPointExtension>
<tp1:hr>157</tp1:hr>
</tp1:TrackPointExtension>
</extensions>
</trkpt>
<trkpt lat="52.5880482" lon="13.4860458">
<ele>46.2806396</ele>
<time>2010-10-09T11:56:16Z</time>
<extensions>
<tp1:TrackPointExtension>
<tp1:hr>156</tp1:hr>
</tp1:TrackPointExtension>
</extensions>
</trkpt>
<trkpt lat="52.5885026" lon="13.4865027">
<ele>46.7612305</ele>
<time>2010-10-09T11:56:23Z</time>
<extensions>
<tp1:TrackPointExtension>
<tp1:hr>157</tp1:hr>
</tp1:TrackPointExtension>
</extensions>
</trkpt>
<trkpt lat="52.5889736" lon="13.4870906">
<ele>48.2033691</ele>
<time>2010-10-09T11:56:31Z</time>
<extensions>
<tp1:TrackPointExtension>
<tp1:hr>161</tp1:hr>
</tp1:TrackPointExtension>
</extensions>
</trkpt>
<trkpt lat="52.5892354" lon="13.4874834">
<ele>49.1645508</ele>
<time>2010-10-09T11:56:36Z</time>
<extensions>
<tp1:TrackPointExtension>
<tp1:hr>162</tp1:hr>
</tp1:TrackPointExtension>
</extensions>
</trkpt>
<trkpt lat="52.5896886" lon="13.4882302">
<ele>49.6452637</ele>
<time>2010-10-09T11:56:45Z</time>
<extensions>
<tp1:TrackPointExtension>
<tp1:hr>164</tp1:hr>
</tp1:TrackPointExtension>
</extensions>
</trkpt>
<trkpt lat="52.5900466" lon="13.4889311">
<ele>49.6452637</ele>
<time>2010-10-09T11:56:53Z</time>
<extensions>
<tp1:TrackPointExtension>
<tp1:hr>167</tp1:hr>
</tp1:TrackPointExtension>
</extensions>
</trkpt>
<trkpt lat="52.5904289" lon="13.4898980">
<ele>49.1645508</ele>
<time>2010-10-09T11:57:03Z</time>
<extensions>
<tp1:TrackPointExtension>
<tp1:hr>169</tp1:hr>
</tp1:TrackPointExtension>
</extensions>
</trkpt>
<trkpt lat="52.5906948" lon="13.4905738">
<ele>49.6452637</ele>
<time>2010-10-09T11:57:10Z</time>
<extensions>
<tp1:TrackPointExtension>
<tp1:hr>170</tp1:hr>
</tp1:TrackPointExtension>
</extensions>
</trkpt>
<trkpt lat="52.5908746" lon="13.4910271">
<ele>49.6452637</ele>
<time>2010-10-09T11:57:15Z</time>
<extensions>
<tp1:TrackPointExtension>
<tp1:hr>170</tp1:hr>
</tp1:TrackPointExtension>
</extensions>
</trkpt>
<trkpt lat="52.5910966" lon="13.4915787">
<ele>48.2033691</ele>
<time>2010-10-09T11:57:21Z</time>
<extensions>
<tp1:TrackPointExtension>
<tp1:hr>169</tp1:hr>
</tp1:TrackPointExtension>
</extensions>
</trkpt>
<trkpt lat="52.5914001" lon="13.4923534">
<ele>47.7225342</ele>
<time>2010-10-09T11:57:29Z</time>
<extensions>
<tp1:TrackPointExtension>
<tp1:hr>169</tp1:hr>
</tp1:TrackPointExtension>
</extensions>
</trkpt>
<trkpt lat="52.5916655" lon="13.4930299">
<ele>48.6839600</ele>
<time>2010-10-09T11:57:36Z</time>
<extensions>
<tp1:TrackPointExtension>
<tp1:hr>168</tp1:hr>
</tp1:TrackPointExtension>
</extensions>
</trkpt>
<trkpt lat="52.5918826" lon="13.4936165">
<ele>49.6452637</ele>
<time>2010-10-09T11:57:42Z</time>
<extensions>
<tp1:TrackPointExtension>
<tp1:hr>169</tp1:hr>
</tp1:TrackPointExtension>
</extensions>
</trkpt>
<trkpt lat="52.5921818" lon="13.4943769">
<ele>50.6065674</ele>
<time>2010-10-09T11:57:50Z</time>
<extensions>
<tp1:TrackPointExtension>
<tp1:hr>169</tp1:hr>
</tp1:TrackPointExtension>
</extensions>
</trkpt>
<trkpt lat="52.5924912" lon="13.4951623">
<ele>52.5291748</ele>
<time>2010-10-09T11:57:58Z</time>
<extensions>
<tp1:TrackPointExtension>
<tp1:hr>169</tp1:hr>
</tp1:TrackPointExtension>
</extensions>
</trkpt>
<trkpt lat="52.5926767" lon="13.4956290">
<ele>52.5291748</ele>
<time>2010-10-09T11:58:03Z</time>
<extensions>
<tp1:TrackPointExtension>
<tp1:hr>169</tp1:hr>
</tp1:TrackPointExtension>
</extensions>
</trkpt>
<trkpt lat="52.5929835" lon="13.4964035">
<ele>53.4904785</ele>
<time>2010-10-09T11:58:11Z</time>
<extensions>
<tp1:TrackPointExtension>
<tp1:hr>169</tp1:hr>
</tp1:TrackPointExtension>
</extensions>
</trkpt>
<trkpt lat="52.5932904" lon="13.4971626">
<ele>53.0097656</ele>
<time>2010-10-09T11:58:19Z</time>
<extensions>
<tp1:TrackPointExtension>
<tp1:hr>169</tp1:hr>
</tp1:TrackPointExtension>
</extensions>
</trkpt>
<trkpt lat="52.5935687" lon="13.4978519">
<ele>53.0097656</ele>
<time>2010-10-09T11:58:26Z</time>
<extensions>
<tp1:TrackPointExtension>
<tp1:hr>169</tp1:hr>
</tp1:TrackPointExtension>
</extensions>
</trkpt>
<trkpt lat="52.5938569" lon="13.4985817">
<ele>52.5291748</ele>
<time>2010-10-09T11:58:33Z</time>
<extensions>
<tp1:TrackPointExtension>
<tp1:hr>168</tp1:hr>
</tp1:TrackPointExtension>
</extensions>
</trkpt>
<trkpt lat="52.5940919" lon="13.4991852">
<ele>52.0485840</ele>
<time>2010-10-09T11:58:39Z</time>
<extensions>
<tp1:TrackPointExtension>
<tp1:hr>167</tp1:hr>
</tp1:TrackPointExtension>
</extensions>
</trkpt>
<trkpt lat="52.5943759" lon="13.4998946">
<ele>51.5678711</ele>
<time>2010-10-09T11:58:46Z</time>
<extensions>
<tp1:TrackPointExtension>
<tp1:hr>167</tp1:hr>
</tp1:TrackPointExtension>
</extensions>
</trkpt>
<trkpt lat="52.5946457" lon="13.5005716">
<ele>51.0871582</ele>
<time>2010-10-09T11:58:53Z</time>
<extensions>
<tp1:TrackPointExtension>
<tp1:hr>166</tp1:hr>
</tp1:TrackPointExtension>
</extensions>
</trkpt>
<trkpt lat="52.5949114" lon="13.5012405">
<ele>52.0485840</ele>
<time>2010-10-09T11:59:00Z</time>
<extensions>
<tp1:TrackPointExtension>
<tp1:hr>166</tp1:hr>
</tp1:TrackPointExtension>
</extensions>
</trkpt>
<trkpt lat="52.5952124" lon="13.5020155">
<ele>52.5291748</ele>
<time>2010-10-09T11:59:08Z</time>
<extensions>
<tp1:TrackPointExtension>
<tp1:hr>167</tp1:hr>
</tp1:TrackPointExtension>
</extensions>
</trkpt>
<trkpt lat="52.5954398" lon="13.5025647">
<ele>52.5291748</ele>
<time>2010-10-09T11:59:14Z</time>
<extensions>
<tp1:TrackPointExtension>
<tp1:hr>167</tp1:hr>
</tp1:TrackPointExtension>
</extensions>
</trkpt>
<trkpt lat="52.5956691" lon="13.5031436">
<ele>53.0097656</ele>
<time>2010-10-09T11:59:20Z</time>
<extensions>
<tp1:TrackPointExtension>
<tp1:hr>167</tp1:hr>
</tp1:TrackPointExtension>
</extensions>
</trkpt>
<trkpt lat="52.5958893" lon="13.5037078">
<ele>53.4904785</ele>
<time>2010-10-09T11:59:26Z</time>
<extensions>
<tp1:TrackPointExtension>
<tp1:hr>167</tp1:hr>
</tp1:TrackPointExtension>
</extensions>
</trkpt>
<trkpt lat="52.5962430" lon="13.5045931">
<ele>53.9711914</ele>
<time>2010-10-09T11:59:35Z</time>
<extensions>
<tp1:TrackPointExtension>
<tp1:hr>167</tp1:hr>
</tp1:TrackPointExtension>
</extensions>
</trkpt>
<trkpt lat="52.5965685" lon="13.5054406">
<ele>54.9323730</ele>
<time>2010-10-09T11:59:44Z</time>
<extensions>
<tp1:TrackPointExtension>
<tp1:hr>167</tp1:hr>
</tp1:TrackPointExtension>
</extensions>
</trkpt>
<trkpt lat="52.5968436" lon="13.5061581">
<ele>53.9711914</ele>
<time>2010-10-09T11:59:52Z</time>
<extensions>
<tp1:TrackPointExtension>
<tp1:hr>168</tp1:hr>
</tp1:TrackPointExtension>
</extensions>
</trkpt>
<trkpt lat="52.5971575" lon="13.5069460">
<ele>53.4904785</ele>
<time>2010-10-09T12:00:01Z</time>
<extensions>
<tp1:TrackPointExtension>
<tp1:hr>170</tp1:hr>
</tp1:TrackPointExtension>
</extensions>
</trkpt>
<trkpt lat="52.5972281" lon="13.5071250">
<ele>53.4904785</ele>
<time>2010-10-09T12:00:03Z</time>
<extensions>
<tp1:TrackPointExtension>
<tp1:hr>170</tp1:hr>
</tp1:TrackPointExtension>
</extensions>
</trkpt>
<trkpt lat="52.5974184" lon="13.5076111">
<ele>53.4904785</ele>
<time>2010-10-09T12:00:08Z</time>
<extensions>
<tp1:TrackPointExtension>
<tp1:hr>170</tp1:hr>
</tp1:TrackPointExtension>
</extensions>
</trkpt>
<trkpt lat="52.5977227" lon="13.5083217">
<ele>53.0097656</ele>
<time>2010-10-09T12:00:16Z</time>
<extensions>
<tp1:TrackPointExtension>
<tp1:hr>169</tp1:hr>
</tp1:TrackPointExtension>
</extensions>
</trkpt>
<trkpt lat="52.5980432" lon="13.5090869">
<ele>52.0485840</ele>
<time>2010-10-09T12:00:25Z</time>
<extensions>
<tp1:TrackPointExtension>
<tp1:hr>167</tp1:hr>
</tp1:TrackPointExtension>
</extensions>
</trkpt>
<trkpt lat="52.5984322" lon="13.5100447">
<ele>51.0871582</ele>
<time>2010-10-09T12:00:36Z</time>
<extensions>
<tp1:TrackPointExtension>
<tp1:hr>166</tp1:hr>
</tp1:TrackPointExtension>
</extensions>
</trkpt>
<trkpt lat="52.5988453" lon="13.5110838">
<ele>51.0871582</ele>
<time>2010-10-09T12:00:48Z</time>
<extensions>
<tp1:TrackPointExtension>
<tp1:hr>166</tp1:hr>
</tp1:TrackPointExtension>
</extensions>
</trkpt>
<trkpt lat="52.5991731" lon="13.5119085">
<ele>51.5678711</ele>
<time>2010-10-09T12:00:58Z</time>
<extensions>
<tp1:TrackPointExtension>
<tp1:hr>167</tp1:hr>
</tp1:TrackPointExtension>
</extensions>
</trkpt>
<trkpt lat="52.5995293" lon="13.5127860">
<ele>52.5291748</ele>
<time>2010-10-09T12:01:09Z</time>
<extensions>
<tp1:TrackPointExtension>
<tp1:hr>171</tp1:hr>
</tp1:TrackPointExtension>
</extensions>
</trkpt>
<trkpt lat="52.5997910" lon="13.5132863">
<ele>53.4904785</ele>
<time>2010-10-09T12:01:16Z</time>
<extensions>
<tp1:TrackPointExtension>
<tp1:hr>172</tp1:hr>
</tp1:TrackPointExtension>
</extensions>
</trkpt>
<trkpt lat="52.6001424" lon="13.5138161">
<ele>53.9711914</ele>
<time>2010-10-09T12:01:24Z</time>
<extensions>
<tp1:TrackPointExtension>
<tp1:hr>172</tp1:hr>
</tp1:TrackPointExtension>
</extensions>
</trkpt>
<trkpt lat="52.6005177" lon="13.5143170">
<ele>54.4517822</ele>
<time>2010-10-09T12:01:32Z</time>
<extensions>
<tp1:TrackPointExtension>
<tp1:hr>171</tp1:hr>
</tp1:TrackPointExtension>
</extensions>
</trkpt>
<trkpt lat="52.6006549" lon="13.5144897">
<ele>54.9323730</ele>
<time>2010-10-09T12:01:36Z</time>
<extensions>
<tp1:TrackPointExtension>
<tp1:hr>169</tp1:hr>
</tp1:TrackPointExtension>
</extensions>
</trkpt>
<trkpt lat="52.6007117" lon="13.5145695">
<ele>55.4130859</ele>
<time>2010-10-09T12:01:40Z</time>
<extensions>
<tp1:TrackPointExtension>
<tp1:hr>169</tp1:hr>
</tp1:TrackPointExtension>
</extensions>
</trkpt>
<trkpt lat="52.6007426" lon="13.5146263">
<ele>55.8937988</ele>
<time>2010-10-09T12:01:48Z</time>
<extensions>
<tp1:TrackPointExtension>
<tp1:hr>168</tp1:hr>
</tp1:TrackPointExtension>
</extensions>
</trkpt>
<trkpt lat="52.6007456" lon="13.5146285">
<ele>55.8937988</ele>
<time>2010-10-09T12:01:50Z</time>
<extensions>
<tp1:TrackPointExtension>
<tp1:hr>168</tp1:hr>
</tp1:TrackPointExtension>
</extensions>
</trkpt>
<trkpt lat="52.6008592" lon="13.5147651">
<ele>56.3745117</ele>
<time>2010-10-09T12:01:55Z</time>
<extensions>
<tp1:TrackPointExtension>
<tp1:hr>167</tp1:hr>
</tp1:TrackPointExtension>
</extensions>
</trkpt>
<trkpt lat="52.6011027" lon="13.5150798">
<ele>55.8937988</ele>
<time>2010-10-09T12:02:01Z</time>
<extensions>
<tp1:TrackPointExtension>
<tp1:hr>164</tp1:hr>
</tp1:TrackPointExtension>
</extensions>
</trkpt>
<trkpt lat="52.6014311" lon="13.5155697">
<ele>56.3745117</ele>
<time>2010-10-09T12:02:08Z</time>
<extensions>
<tp1:TrackPointExtension>
<tp1:hr>163</tp1:hr>
</tp1:TrackPointExtension>
</extensions>
</trkpt>
<trkpt lat="52.6017373" lon="13.5161453">
<ele>56.8551025</ele>
<time>2010-10-09T12:02:15Z</time>
<extensions>
<tp1:TrackPointExtension>
<tp1:hr>163</tp1:hr>
</tp1:TrackPointExtension>
</extensions>
</trkpt>
<trkpt lat="52.6020051" lon="13.5167871">
<ele>56.8551025</ele>
<time>2010-10-09T12:02:22Z</time>
<extensions>
<tp1:TrackPointExtension>
<tp1:hr>163</tp1:hr>
</tp1:TrackPointExtension>
</extensions>
</trkpt>
<trkpt lat="52.6022489" lon="13.5175030">
<ele>56.3745117</ele>
<time>2010-10-09T12:02:29Z</time>
<extensions>
<tp1:TrackPointExtension>
<tp1:hr>163</tp1:hr>
</tp1:TrackPointExtension>
</extensions>
</trkpt>
<trkpt lat="52.6025338" lon="13.5184081">
<ele>53.9711914</ele>
<time>2010-10-09T12:02:37Z</time>
<extensions>
<tp1:TrackPointExtension>
<tp1:hr>162</tp1:hr>
</tp1:TrackPointExtension>
</extensions>
</trkpt>
<trkpt lat="52.6028388" lon="13.5193830">
<ele>51.5678711</ele>
<time>2010-10-09T12:02:45Z</time>
<extensions>
<tp1:TrackPointExtension>
<tp1:hr>160</tp1:hr>
</tp1:TrackPointExtension>
</extensions>
</trkpt>
<trkpt lat="52.6031393" lon="13.5203628">
<ele>51.0871582</ele>
<time>2010-10-09T12:02:53Z</time>
<extensions>
<tp1:TrackPointExtension>
<tp1:hr>158</tp1:hr>
</tp1:TrackPointExtension>
</extensions>
</trkpt>
<trkpt lat="52.6034089" lon="13.5212347">
<ele>51.0871582</ele>
<time>2010-10-09T12:03:01Z</time>
<extensions>
<tp1:TrackPointExtension>
<tp1:hr>158</tp1:hr>
</tp1:TrackPointExtension>
</extensions>
</trkpt>
<trkpt lat="52.6035020" lon="13.5215455">
<ele>51.0871582</ele>
<time>2010-10-09T12:03:04Z</time>
<extensions>
<tp1:TrackPointExtension>
<tp1:hr>158</tp1:hr>
</tp1:TrackPointExtension>
</extensions>
</trkpt>
<trkpt lat="52.6035376" lon="13.5217689">
<ele>50.6065674</ele>
<time>2010-10-09T12:03:06Z</time>
<extensions>
<tp1:TrackPointExtension>
<tp1:hr>158</tp1:hr>
</tp1:TrackPointExtension>
</extensions>
</trkpt>
<trkpt lat="52.6037032" lon="13.5224009">
<ele>50.6065674</ele>
<time>2010-10-09T12:03:12Z</time>
<extensions>
<tp1:TrackPointExtension>
<tp1:hr>159</tp1:hr>
</tp1:TrackPointExtension>
</extensions>
</trkpt>
<trkpt lat="52.6040097" lon="13.5233865">
<ele>49.6452637</ele>
<time>2010-10-09T12:03:22Z</time>
<extensions>
<tp1:TrackPointExtension>
<tp1:hr>160</tp1:hr>
</tp1:TrackPointExtension>
</extensions>
</trkpt>
<trkpt lat="52.6040420" lon="13.5234807">
<ele>49.6452637</ele>
<time>2010-10-09T12:03:23Z</time>
<extensions>
<tp1:TrackPointExtension>
<tp1:hr>160</tp1:hr>
</tp1:TrackPointExtension>
</extensions>
</trkpt>
<trkpt lat="52.6041636" lon="13.5237182">
<ele>50.1259766</ele>
<time>2010-10-09T12:03:26Z</time>
<extensions>
<tp1:TrackPointExtension>
<tp1:hr>159</tp1:hr>
</tp1:TrackPointExtension>
</extensions>
</trkpt>
<trkpt lat="52.6044421" lon="13.5243972">
<ele>51.5678711</ele>
<time>2010-10-09T12:03:34Z</time>
<extensions>
<tp1:TrackPointExtension>
<tp1:hr>160</tp1:hr>
</tp1:TrackPointExtension>
</extensions>
</trkpt>
<trkpt lat="52.6047267" lon="13.5251985">
<ele>52.0485840</ele>
<time>2010-10-09T12:03:43Z</time>
<extensions>
<tp1:TrackPointExtension>
<tp1:hr>165</tp1:hr>
</tp1:TrackPointExtension>
</extensions>
</trkpt>
<trkpt lat="52.6051193" lon="13.5259971">
<ele>53.0097656</ele>
<time>2010-10-09T12:03:53Z</time>
<extensions>
<tp1:TrackPointExtension>
<tp1:hr>168</tp1:hr>
</tp1:TrackPointExtension>
</extensions>
</trkpt>
<trkpt lat="52.6055346" lon="13.5266188">
<ele>53.0097656</ele>
<time>2010-10-09T12:04:02Z</time>
<extensions>
<tp1:TrackPointExtension>
<tp1:hr>169</tp1:hr>
</tp1:TrackPointExtension>
</extensions>
</trkpt>
<trkpt lat="52.6060425" lon="13.5272240">
<ele>53.9711914</ele>
<time>2010-10-09T12:04:12Z</time>
<extensions>
<tp1:TrackPointExtension>
<tp1:hr>170</tp1:hr>
</tp1:TrackPointExtension>
</extensions>
</trkpt>
<trkpt lat="52.6065721" lon="13.5277833">
<ele>53.9711914</ele>
<time>2010-10-09T12:04:22Z</time>
<extensions>
<tp1:TrackPointExtension>
<tp1:hr>171</tp1:hr>
</tp1:TrackPointExtension>
</extensions>
</trkpt>
<trkpt lat="52.6070395" lon="13.5283323">
<ele>54.4517822</ele>
<time>2010-10-09T12:04:31Z</time>
<extensions>
<tp1:TrackPointExtension>
<tp1:hr>170</tp1:hr>
</tp1:TrackPointExtension>
</extensions>
</trkpt>
<trkpt lat="52.6073393" lon="13.5286816">
<ele>54.4517822</ele>
<time>2010-10-09T12:04:38Z</time>
<extensions>
<tp1:TrackPointExtension>
<tp1:hr>167</tp1:hr>
</tp1:TrackPointExtension>
</extensions>
</trkpt>
<trkpt lat="52.6075645" lon="13.5289184">
<ele>53.4904785</ele>
<time>2010-10-09T12:04:44Z</time>
<extensions>
<tp1:TrackPointExtension>
<tp1:hr>164</tp1:hr>
</tp1:TrackPointExtension>
</extensions>
</trkpt>
<trkpt lat="52.6078986" lon="13.5292976">
<ele>53.9711914</ele>
<time>2010-10-09T12:04:51Z</time>
<extensions>
<tp1:TrackPointExtension>
<tp1:hr>164</tp1:hr>
</tp1:TrackPointExtension>
</extensions>
</trkpt>
<trkpt lat="52.6084466" lon="13.5299198">
<ele>54.9323730</ele>
<time>2010-10-09T12:05:02Z</time>
<extensions>
<tp1:TrackPointExtension>
<tp1:hr>165</tp1:hr>
</tp1:TrackPointExtension>
</extensions>
</trkpt>
<trkpt lat="52.6090154" lon="13.5306252">
<ele>55.4130859</ele>
<time>2010-10-09T12:05:14Z</time>
<extensions>
<tp1:TrackPointExtension>
<tp1:hr>167</tp1:hr>
</tp1:TrackPointExtension>
</extensions>
</trkpt>
<trkpt lat="52.6094789" lon="13.5312071">
<ele>55.8937988</ele>
<time>2010-10-09T12:05:24Z</time>
<extensions>
<tp1:TrackPointExtension>
<tp1:hr>167</tp1:hr>
</tp1:TrackPointExtension>
</extensions>
</trkpt>
<trkpt lat="52.6099772" lon="13.5318404">
<ele>55.8937988</ele>
<time>2010-10-09T12:05:35Z</time>
<extensions>
<tp1:TrackPointExtension>
<tp1:hr>167</tp1:hr>
</tp1:TrackPointExtension>
</extensions>
</trkpt>
<trkpt lat="52.6104406" lon="13.5324420">
<ele>55.8937988</ele>
<time>2010-10-09T12:05:45Z</time>
<extensions>
<tp1:TrackPointExtension>
<tp1:hr>168</tp1:hr>
</tp1:TrackPointExtension>
</extensions>
</trkpt>
<trkpt lat="52.6110498" lon="13.5332120">
<ele>56.3745117</ele>
<time>2010-10-09T12:05:58Z</time>
<extensions>
<tp1:TrackPointExtension>
<tp1:hr>170</tp1:hr>
</tp1:TrackPointExtension>
</extensions>
</trkpt>
<trkpt lat="52.6115080" lon="13.5338152">
<ele>57.8165283</ele>
<time>2010-10-09T12:06:08Z</time>
<extensions>
<tp1:TrackPointExtension>
<tp1:hr>170</tp1:hr>
</tp1:TrackPointExtension>
</extensions>
</trkpt>
<trkpt lat="52.6120591" lon="13.5345181">
<ele>58.7777100</ele>
<time>2010-10-09T12:06:20Z</time>
<extensions>
<tp1:TrackPointExtension>
<tp1:hr>170</tp1:hr>
</tp1:TrackPointExtension>
</extensions>
</trkpt>
<trkpt lat="52.6126103" lon="13.5351768">
<ele>59.7391357</ele>
<time>2010-10-09T12:06:32Z</time>
<extensions>
<tp1:TrackPointExtension>
<tp1:hr>170</tp1:hr>
</tp1:TrackPointExtension>
</extensions>
</trkpt>
<trkpt lat="52.6130711" lon="13.5357114">
<ele>60.7003174</ele>
<time>2010-10-09T12:06:42Z</time>
<extensions>
<tp1:TrackPointExtension>
<tp1:hr>170</tp1:hr>
</tp1:TrackPointExtension>
</extensions>
</trkpt>
<trkpt lat="52.6137313" lon="13.5364353">
<ele>61.6617432</ele>
<time>2010-10-09T12:06:56Z</time>
<extensions>
<tp1:TrackPointExtension>
<tp1:hr>170</tp1:hr>
</tp1:TrackPointExtension>
</extensions>
</trkpt>
<trkpt lat="52.6143662" lon="13.5371163">
<ele>63.1036377</ele>
<time>2010-10-09T12:07:09Z</time>
<extensions>
<tp1:TrackPointExtension>
<tp1:hr>171</tp1:hr>
</tp1:TrackPointExtension>
</extensions>
</trkpt>
<trkpt lat="52.6149626" lon="13.5377114">
<ele>64.0650635</ele>
<time>2010-10-09T12:07:21Z</time>
<extensions>
<tp1:TrackPointExtension>
<tp1:hr>172</tp1:hr>
</tp1:TrackPointExtension>
</extensions>
</trkpt>
<trkpt lat="52.6154577" lon="13.5381855">
<ele>64.0650635</ele>
<time>2010-10-09T12:07:31Z</time>
<extensions>
<tp1:TrackPointExtension>
<tp1:hr>171</tp1:hr>
</tp1:TrackPointExtension>
</extensions>
</trkpt>
<trkpt lat="52.6160592" lon="13.5387745">
<ele>64.5456543</ele>
<time>2010-10-09T12:07:43Z</time>
<extensions>
<tp1:TrackPointExtension>
<tp1:hr>171</tp1:hr>
</tp1:TrackPointExtension>
</extensions>
</trkpt>
<trkpt lat="52.6165561" lon="13.5392665">
<ele>63.1036377</ele>
<time>2010-10-09T12:07:52Z</time>
<extensions>
<tp1:TrackPointExtension>
<tp1:hr>169</tp1:hr>
</tp1:TrackPointExtension>
</extensions>
</trkpt>
<trkpt lat="52.6170329" lon="13.5397534">
<ele>60.7003174</ele>
<time>2010-10-09T12:08:00Z</time>
<extensions>
<tp1:TrackPointExtension>
<tp1:hr>168</tp1:hr>
</tp1:TrackPointExtension>
</extensions>
</trkpt>
<trkpt lat="52.6175727" lon="13.5402814">
<ele>58.2971191</ele>
<time>2010-10-09T12:08:08Z</time>
<extensions>
<tp1:TrackPointExtension>
<tp1:hr>165</tp1:hr>
</tp1:TrackPointExtension>
</extensions>
</trkpt>
<trkpt lat="52.6184031" lon="13.5410529">
<ele>57.8165283</ele>
<time>2010-10-09T12:08:19Z</time>
<extensions>
<tp1:TrackPointExtension>
<tp1:hr>162</tp1:hr>
</tp1:TrackPointExtension>
</extensions>
</trkpt>
<trkpt lat="52.6193040" lon="13.5418184">
<ele>57.3358154</ele>
<time>2010-10-09T12:08:31Z</time>
<extensions>
<tp1:TrackPointExtension>
<tp1:hr>160</tp1:hr>
</tp1:TrackPointExtension>
</extensions>
</trkpt>
<trkpt lat="52.6199484" lon="13.5422896">
<ele>57.3358154</ele>
<time>2010-10-09T12:08:40Z</time>
<extensions>
<tp1:TrackPointExtension>
<tp1:hr>160</tp1:hr>
</tp1:TrackPointExtension>
</extensions>
</trkpt>
<trkpt lat="52.6206481" lon="13.5427074">
<ele>56.8551025</ele>
<time>2010-10-09T12:08:50Z</time>
<extensions>
<tp1:TrackPointExtension>
<tp1:hr>161</tp1:hr>
</tp1:TrackPointExtension>
</extensions>
</trkpt>
<trkpt lat="52.6214212" lon="13.5430492">
<ele>56.8551025</ele>
<time>2010-10-09T12:09:01Z</time>
<extensions>
<tp1:TrackPointExtension>
<tp1:hr>162</tp1:hr>
</tp1:TrackPointExtension>
</extensions>
</trkpt>
<trkpt lat="52.6221413" lon="13.5432339">
<ele>56.3745117</ele>
<time>2010-10-09T12:09:11Z</time>
<extensions>
<tp1:TrackPointExtension>
<tp1:hr>162</tp1:hr>
</tp1:TrackPointExtension>
</extensions>
</trkpt>
<trkpt lat="52.6228157" lon="13.5433014">
<ele>56.8551025</ele>
<time>2010-10-09T12:09:20Z</time>
<extensions>
<tp1:TrackPointExtension>
<tp1:hr>162</tp1:hr>
</tp1:TrackPointExtension>
</extensions>
</trkpt>
<trkpt lat="52.6232590" lon="13.5433489">
<ele>56.8551025</ele>
<time>2010-10-09T12:09:26Z</time>
<extensions>
<tp1:TrackPointExtension>
<tp1:hr>161</tp1:hr>
</tp1:TrackPointExtension>
</extensions>
</trkpt>
<trkpt lat="52.6237613" lon="13.5434292">
<ele>57.3358154</ele>
<time>2010-10-09T12:09:33Z</time>
<extensions>
<tp1:TrackPointExtension>
<tp1:hr>161</tp1:hr>
</tp1:TrackPointExtension>
</extensions>
</trkpt>
<trkpt lat="52.6242614" lon="13.5436025">
<ele>57.8165283</ele>
<time>2010-10-09T12:09:40Z</time>
<extensions>
<tp1:TrackPointExtension>
<tp1:hr>162</tp1:hr>
</tp1:TrackPointExtension>
</extensions>
</trkpt>
<trkpt lat="52.6246633" lon="13.5437941">
<ele>58.2971191</ele>
<time>2010-10-09T12:09:46Z</time>
<extensions>
<tp1:TrackPointExtension>
<tp1:hr>162</tp1:hr>
</tp1:TrackPointExtension>
</extensions>
</trkpt>
<trkpt lat="52.6251446" lon="13.5440006">
<ele>58.2971191</ele>
<time>2010-10-09T12:09:53Z</time>
<extensions>
<tp1:TrackPointExtension>
<tp1:hr>163</tp1:hr>
</tp1:TrackPointExtension>
</extensions>
</trkpt>
<trkpt lat="52.6257019" lon="13.5441163">
<ele>57.8165283</ele>
<time>2010-10-09T12:10:01Z</time>
<extensions>
<tp1:TrackPointExtension>
<tp1:hr>164</tp1:hr>
</tp1:TrackPointExtension>
</extensions>
</trkpt>
<trkpt lat="52.6261122" lon="13.5441385">
<ele>57.8165283</ele>
<time>2010-10-09T12:10:07Z</time>
<extensions>
<tp1:TrackPointExtension>
<tp1:hr>165</tp1:hr>
</tp1:TrackPointExtension>
</extensions>
</trkpt>
<trkpt lat="52.6266678" lon="13.5442712">
<ele>58.7777100</ele>
<time>2010-10-09T12:10:15Z</time>
<extensions>
<tp1:TrackPointExtension>
<tp1:hr>166</tp1:hr>
</tp1:TrackPointExtension>
</extensions>
</trkpt>
<trkpt lat="52.6270596" lon="13.5444472">
<ele>59.2584229</ele>
<time>2010-10-09T12:10:21Z</time>
<extensions>
<tp1:TrackPointExtension>
<tp1:hr>167</tp1:hr>
</tp1:TrackPointExtension>
</extensions>
</trkpt>
<trkpt lat="52.6276479" lon="13.5447688">
<ele>58.2971191</ele>
<time>2010-10-09T12:10:30Z</time>
<extensions>
<tp1:TrackPointExtension>
<tp1:hr>168</tp1:hr>
</tp1:TrackPointExtension>
</extensions>
</trkpt>
<trkpt lat="52.6284229" lon="13.5451958">
<ele>57.8165283</ele>
<time>2010-10-09T12:10:42Z</time>
<extensions>
<tp1:TrackPointExtension>
<tp1:hr>169</tp1:hr>
</tp1:TrackPointExtension>
</extensions>
</trkpt>
<trkpt lat="52.6288784" lon="13.5454496">
<ele>58.2971191</ele>
<time>2010-10-09T12:10:49Z</time>
<extensions>
<tp1:TrackPointExtension>
<tp1:hr>169</tp1:hr>
</tp1:TrackPointExtension>
</extensions>
</trkpt>
<trkpt lat="52.6292838" lon="13.5456660">
<ele>59.2584229</ele>
<time>2010-10-09T12:10:55Z</time>
<extensions>
<tp1:TrackPointExtension>
<tp1:hr>169</tp1:hr>
</tp1:TrackPointExtension>
</extensions>
</trkpt>
<trkpt lat="52.6297075" lon="13.5459556">
<ele>59.7391357</ele>
<time>2010-10-09T12:11:02Z</time>
<extensions>
<tp1:TrackPointExtension>
<tp1:hr>169</tp1:hr>
</tp1:TrackPointExtension>
</extensions>
</trkpt>
<trkpt lat="52.6301821" lon="13.5464217">
<ele>60.7003174</ele>
<time>2010-10-09T12:11:11Z</time>
<extensions>
<tp1:TrackPointExtension>
<tp1:hr>171</tp1:hr>
</tp1:TrackPointExtension>
</extensions>
</trkpt>
<trkpt lat="52.6304148" lon="13.5467938">
<ele>61.1810303</ele>
<time>2010-10-09T12:11:17Z</time>
<extensions>
<tp1:TrackPointExtension>
<tp1:hr>171</tp1:hr>
</tp1:TrackPointExtension>
</extensions>
</trkpt>
<trkpt lat="52.6306991" lon="13.5472482">
<ele>61.1810303</ele>
<time>2010-10-09T12:11:24Z</time>
<extensions>
<tp1:TrackPointExtension>
<tp1:hr>171</tp1:hr>
</tp1:TrackPointExtension>
</extensions>
</trkpt>
<trkpt lat="52.6311149" lon="13.5479127">
<ele>62.1423340</ele>
<time>2010-10-09T12:11:34Z</time>
<extensions>
<tp1:TrackPointExtension>
<tp1:hr>170</tp1:hr>
</tp1:TrackPointExtension>
</extensions>
</trkpt>
<trkpt lat="52.6315185" lon="13.5485609">
<ele>64.0650635</ele>
<time>2010-10-09T12:11:44Z</time>
<extensions>
<tp1:TrackPointExtension>
<tp1:hr>170</tp1:hr>
</tp1:TrackPointExtension>
</extensions>
</trkpt>
<trkpt lat="52.6319295" lon="13.5492255">
<ele>64.0650635</ele>
<time>2010-10-09T12:11:54Z</time>
<extensions>
<tp1:TrackPointExtension>
<tp1:hr>172</tp1:hr>
</tp1:TrackPointExtension>
</extensions>
</trkpt>
<trkpt lat="52.6324033" lon="13.5499839">
<ele>63.5843506</ele>
<time>2010-10-09T12:12:05Z</time>
<extensions>
<tp1:TrackPointExtension>
<tp1:hr>173</tp1:hr>
</tp1:TrackPointExtension>
</extensions>
</trkpt>
<trkpt lat="52.6327908" lon="13.5506085">
<ele>63.1036377</ele>
<time>2010-10-09T12:12:14Z</time>
<extensions>
<tp1:TrackPointExtension>
<tp1:hr>172</tp1:hr>
</tp1:TrackPointExtension>
</extensions>
</trkpt>
<trkpt lat="52.6331819" lon="13.5512428">
<ele>63.5843506</ele>
<time>2010-10-09T12:12:23Z</time>
<extensions>
<tp1:TrackPointExtension>
<tp1:hr>170</tp1:hr>
</tp1:TrackPointExtension>
</extensions>
</trkpt>
<trkpt lat="52.6335233" lon="13.5517927">
<ele>63.5843506</ele>
<time>2010-10-09T12:12:31Z</time>
<extensions>
<tp1:TrackPointExtension>
<tp1:hr>169</tp1:hr>
</tp1:TrackPointExtension>
</extensions>
</trkpt>
<trkpt lat="52.6339666" lon="13.5525153">
<ele>63.5843506</ele>
<time>2010-10-09T12:12:41Z</time>
<extensions>
<tp1:TrackPointExtension>
<tp1:hr>169</tp1:hr>
</tp1:TrackPointExtension>
</extensions>
</trkpt>
<trkpt lat="52.6344699" lon="13.5533290">
<ele>63.5843506</ele>
<time>2010-10-09T12:12:52Z</time>
<extensions>
<tp1:TrackPointExtension>
<tp1:hr>168</tp1:hr>
</tp1:TrackPointExtension>
</extensions>
</trkpt>
<trkpt lat="52.6349141" lon="13.5540512">
<ele>63.5843506</ele>
<time>2010-10-09T12:13:02Z</time>
<extensions>
<tp1:TrackPointExtension>
<tp1:hr>167</tp1:hr>
</tp1:TrackPointExtension>
</extensions>
</trkpt>
<trkpt lat="52.6352598" lon="13.5546064">
<ele>64.5456543</ele>
<time>2010-10-09T12:13:10Z</time>
<extensions>
<tp1:TrackPointExtension>
<tp1:hr>166</tp1:hr>
</tp1:TrackPointExtension>
</extensions>
</trkpt>
<trkpt lat="52.6355760" lon="13.5550881">
<ele>66.4682617</ele>
<time>2010-10-09T12:13:17Z</time>
<extensions>
<tp1:TrackPointExtension>
<tp1:hr>167</tp1:hr>
</tp1:TrackPointExtension>
</extensions>
</trkpt>
<trkpt lat="52.6357343" lon="13.5553473">
<ele>65.9876709</ele>
<time>2010-10-09T12:13:21Z</time>
<extensions>
<tp1:TrackPointExtension>
<tp1:hr>167</tp1:hr>
</tp1:TrackPointExtension>
</extensions>
</trkpt>
<trkpt lat="52.6359343" lon="13.5556580">
<ele>67.4296875</ele>
<time>2010-10-09T12:13:26Z</time>
<extensions>
<tp1:TrackPointExtension>
<tp1:hr>167</tp1:hr>
</tp1:TrackPointExtension>
</extensions>
</trkpt>
<trkpt lat="52.6362543" lon="13.5561781">
<ele>67.4296875</ele>
<time>2010-10-09T12:13:34Z</time>
<extensions>
<tp1:TrackPointExtension>
<tp1:hr>164</tp1:hr>
</tp1:TrackPointExtension>
</extensions>
</trkpt>
<trkpt lat="52.6365106" lon="13.5565857">
<ele>67.4296875</ele>
<time>2010-10-09T12:13:41Z</time>
<extensions>
<tp1:TrackPointExtension>
<tp1:hr>162</tp1:hr>
</tp1:TrackPointExtension>
</extensions>
</trkpt>
<trkpt lat="52.6367133" lon="13.5569063">
<ele>67.4296875</ele>
<time>2010-10-09T12:13:46Z</time>
<extensions>
<tp1:TrackPointExtension>
<tp1:hr>160</tp1:hr>
</tp1:TrackPointExtension>
</extensions>
</trkpt>
<trkpt lat="52.6368397" lon="13.5572013">
<ele>66.9489746</ele>
<time>2010-10-09T12:13:50Z</time>
<extensions>
<tp1:TrackPointExtension>
<tp1:hr>159</tp1:hr>
</tp1:TrackPointExtension>
</extensions>
</trkpt>
<trkpt lat="52.6371426" lon="13.5577126">
<ele>67.4296875</ele>
<time>2010-10-09T12:13:57Z</time>
<extensions>
<tp1:TrackPointExtension>
<tp1:hr>159</tp1:hr>
</tp1:TrackPointExtension>
</extensions>
</trkpt>
<trkpt lat="52.6375120" lon="13.5582865">
<ele>67.4296875</ele>
<time>2010-10-09T12:14:05Z</time>
<extensions>
<tp1:TrackPointExtension>
<tp1:hr>160</tp1:hr>
</tp1:TrackPointExtension>
</extensions>
</trkpt>
<trkpt lat="52.6379332" lon="13.5589370">
<ele>67.4296875</ele>
<time>2010-10-09T12:14:14Z</time>
<extensions>
<tp1:TrackPointExtension>
<tp1:hr>161</tp1:hr>
</tp1:TrackPointExtension>
</extensions>
</trkpt>
<trkpt lat="52.6383252" lon="13.5594741">
<ele>67.4296875</ele>
<time>2010-10-09T12:14:22Z</time>
<extensions>
<tp1:TrackPointExtension>
<tp1:hr>162</tp1:hr>
</tp1:TrackPointExtension>
</extensions>
</trkpt>
<trkpt lat="52.6383787" lon="13.5595308">
<ele>67.9102783</ele>
<time>2010-10-09T12:14:23Z</time>
<extensions>
<tp1:TrackPointExtension>
<tp1:hr>163</tp1:hr>
</tp1:TrackPointExtension>
</extensions>
</trkpt>
<trkpt lat="52.6388527" lon="13.5602269">
<ele>67.9102783</ele>
<time>2010-10-09T12:14:33Z</time>
<extensions>
<tp1:TrackPointExtension>
<tp1:hr>164</tp1:hr>
</tp1:TrackPointExtension>
</extensions>
</trkpt>
<trkpt lat="52.6392125" lon="13.5606873">
<ele>67.9102783</ele>
<time>2010-10-09T12:14:40Z</time>
<extensions>
<tp1:TrackPointExtension>
<tp1:hr>164</tp1:hr>
</tp1:TrackPointExtension>
</extensions>
</trkpt>
<trkpt lat="52.6396566" lon="13.5611192">
<ele>67.9102783</ele>
<time>2010-10-09T12:14:48Z</time>
<extensions>
<tp1:TrackPointExtension>
<tp1:hr>164</tp1:hr>
</tp1:TrackPointExtension>
</extensions>
</trkpt>
<trkpt lat="52.6399902" lon="13.5613888">
<ele>67.4296875</ele>
<time>2010-10-09T12:14:54Z</time>
<extensions>
<tp1:TrackPointExtension>
<tp1:hr>163</tp1:hr>
</tp1:TrackPointExtension>
</extensions>
</trkpt>
<trkpt lat="52.6405756" lon="13.5618285">
<ele>67.9102783</ele>
<time>2010-10-09T12:15:04Z</time>
<extensions>
<tp1:TrackPointExtension>
<tp1:hr>163</tp1:hr>
</tp1:TrackPointExtension>
</extensions>
</trkpt>
<trkpt lat="52.6407729" lon="13.5619639">
<ele>68.3908691</ele>
<time>2010-10-09T12:15:08Z</time>
<extensions>
<tp1:TrackPointExtension>
<tp1:hr>163</tp1:hr>
</tp1:TrackPointExtension>
</extensions>
</trkpt>
<trkpt lat="52.6408956" lon="13.5620056">
<ele>68.3908691</ele>
<time>2010-10-09T12:15:11Z</time>
<extensions>
<tp1:TrackPointExtension>
<tp1:hr>161</tp1:hr>
</tp1:TrackPointExtension>
</extensions>
</trkpt>
<trkpt lat="52.6411266" lon="13.5621570">
<ele>68.3908691</ele>
<time>2010-10-09T12:15:16Z</time>
<extensions>
<tp1:TrackPointExtension>
<tp1:hr>160</tp1:hr>
</tp1:TrackPointExtension>
</extensions>
</trkpt>
<trkpt lat="52.6417440" lon="13.5626257">
<ele>68.8715820</ele>
<time>2010-10-09T12:15:27Z</time>
<extensions>
<tp1:TrackPointExtension>
<tp1:hr>164</tp1:hr>
</tp1:TrackPointExtension>
</extensions>
</trkpt>
<trkpt lat="52.6423210" lon="13.5630609">
<ele>68.8715820</ele>
<time>2010-10-09T12:15:37Z</time>
<extensions>
<tp1:TrackPointExtension>
<tp1:hr>169</tp1:hr>
</tp1:TrackPointExtension>
</extensions>
</trkpt>
<trkpt lat="52.6429725" lon="13.5635420">
<ele>69.3522949</ele>
<time>2010-10-09T12:15:48Z</time>
<extensions>
<tp1:TrackPointExtension>
<tp1:hr>169</tp1:hr>
</tp1:TrackPointExtension>
</extensions>
</trkpt>
<trkpt lat="52.6436391" lon="13.5640297">
<ele>68.8715820</ele>
<time>2010-10-09T12:15:59Z</time>
<extensions>
<tp1:TrackPointExtension>
<tp1:hr>169</tp1:hr>
</tp1:TrackPointExtension>
</extensions>
</trkpt>
<trkpt lat="52.6439479" lon="13.5642735">
<ele>69.3522949</ele>
<time>2010-10-09T12:16:05Z</time>
<extensions>
<tp1:TrackPointExtension>
<tp1:hr>168</tp1:hr>
</tp1:TrackPointExtension>
</extensions>
</trkpt>
<trkpt lat="52.6443993" lon="13.5646230">
<ele>69.3522949</ele>
<time>2010-10-09T12:16:13Z</time>
<extensions>
<tp1:TrackPointExtension>
<tp1:hr>167</tp1:hr>
</tp1:TrackPointExtension>
</extensions>
</trkpt>
<trkpt lat="52.6451600" lon="13.5651476">
<ele>69.3522949</ele>
<time>2010-10-09T12:16:26Z</time>
<extensions>
<tp1:TrackPointExtension>
<tp1:hr>168</tp1:hr>
</tp1:TrackPointExtension>
</extensions>
</trkpt>
<trkpt lat="52.6458148" lon="13.5655556">
<ele>70.3134766</ele>
<time>2010-10-09T12:16:37Z</time>
<extensions>
<tp1:TrackPointExtension>
<tp1:hr>170</tp1:hr>
</tp1:TrackPointExtension>
</extensions>
</trkpt>
<trkpt lat="52.6464763" lon="13.5659597">
<ele>71.2749023</ele>
<time>2010-10-09T12:16:48Z</time>
<extensions>
<tp1:TrackPointExtension>
<tp1:hr>171</tp1:hr>
</tp1:TrackPointExtension>
</extensions>
</trkpt>
<trkpt lat="52.6469712" lon="13.5663136">
<ele>69.8328857</ele>
<time>2010-10-09T12:16:56Z</time>
<extensions>
<tp1:TrackPointExtension>
<tp1:hr>171</tp1:hr>
</tp1:TrackPointExtension>
</extensions>
</trkpt>
<trkpt lat="52.6473242" lon="13.5665559">
<ele>68.8715820</ele>
<time>2010-10-09T12:17:01Z</time>
<extensions>
<tp1:TrackPointExtension>
<tp1:hr>170</tp1:hr>
</tp1:TrackPointExtension>
</extensions>
</trkpt>
<trkpt lat="52.6477954" lon="13.5669000">
<ele>67.9102783</ele>
<time>2010-10-09T12:17:07Z</time>
<extensions>
<tp1:TrackPointExtension>
<tp1:hr>168</tp1:hr>
</tp1:TrackPointExtension>
</extensions>
</trkpt>
<trkpt lat="52.6484118" lon="13.5673713">
<ele>65.5070801</ele>
<time>2010-10-09T12:17:15Z</time>
<extensions>
<tp1:TrackPointExtension>
<tp1:hr>167</tp1:hr>
</tp1:TrackPointExtension>
</extensions>
</trkpt>
<trkpt lat="52.6489581" lon="13.5677784">
<ele>65.5070801</ele>
<time>2010-10-09T12:17:22Z</time>
<extensions>
<tp1:TrackPointExtension>
<tp1:hr>165</tp1:hr>
</tp1:TrackPointExtension>
</extensions>
</trkpt>
<trkpt lat="52.6497903" lon="13.5683989">
<ele>64.5456543</ele>
<time>2010-10-09T12:17:33Z</time>
<extensions>
<tp1:TrackPointExtension>
<tp1:hr>164</tp1:hr>
</tp1:TrackPointExtension>
</extensions>
</trkpt>
<trkpt lat="52.6505038" lon="13.5689282">
<ele>64.0650635</ele>
<time>2010-10-09T12:17:43Z</time>
<extensions>
<tp1:TrackPointExtension>
<tp1:hr>162</tp1:hr>
</tp1:TrackPointExtension>
</extensions>
</trkpt>
<trkpt lat="52.6507939" lon="13.5691475">
<ele>63.1036377</ele>
<time>2010-10-09T12:17:48Z</time>
<extensions>
<tp1:TrackPointExtension>
<tp1:hr>158</tp1:hr>
</tp1:TrackPointExtension>
</extensions>
</trkpt>
<trkpt lat="52.6509237" lon="13.5692495">
<ele>63.1036377</ele>
<time>2010-10-09T12:17:52Z</time>
<extensions>
<tp1:TrackPointExtension>
<tp1:hr>156</tp1:hr>
</tp1:TrackPointExtension>
</extensions>
</trkpt>
<trkpt lat="52.6510974" lon="13.5693890">
<ele>62.1423340</ele>
<time>2010-10-09T12:17:57Z</time>
<extensions>
<tp1:TrackPointExtension>
<tp1:hr>155</tp1:hr>
</tp1:TrackPointExtension>
</extensions>
</trkpt>
<trkpt lat="52.6513792" lon="13.5696037">
<ele>61.6617432</ele>
<time>2010-10-09T12:18:02Z</time>
<extensions>
<tp1:TrackPointExtension>
<tp1:hr>156</tp1:hr>
</tp1:TrackPointExtension>
</extensions>
</trkpt>
<trkpt lat="52.6517828" lon="13.5699062">
<ele>60.2197266</ele>
<time>2010-10-09T12:18:08Z</time>
<extensions>
<tp1:TrackPointExtension>
<tp1:hr>155</tp1:hr>
</tp1:TrackPointExtension>
</extensions>
</trkpt>
<trkpt lat="52.6523023" lon="13.5702830">
<ele>58.7777100</ele>
<time>2010-10-09T12:18:15Z</time>
<extensions>
<tp1:TrackPointExtension>
<tp1:hr>155</tp1:hr>
</tp1:TrackPointExtension>
</extensions>
</trkpt>
<trkpt lat="52.6530307" lon="13.5708056">
<ele>57.8165283</ele>
<time>2010-10-09T12:18:24Z</time>
<extensions>
<tp1:TrackPointExtension>
<tp1:hr>154</tp1:hr>
</tp1:TrackPointExtension>
</extensions>
</trkpt>
<trkpt lat="52.6536590" lon="13.5712476">
<ele>57.8165283</ele>
<time>2010-10-09T12:18:32Z</time>
<extensions>
<tp1:TrackPointExtension>
<tp1:hr>155</tp1:hr>
</tp1:TrackPointExtension>
</extensions>
</trkpt>
<trkpt lat="52.6542453" lon="13.5716697">
<ele>58.2971191</ele>
<time>2010-10-09T12:18:40Z</time>
<extensions>
<tp1:TrackPointExtension>
<tp1:hr>156</tp1:hr>
</tp1:TrackPointExtension>
</extensions>
</trkpt>
<trkpt lat="52.6549638" lon="13.5722070">
<ele>58.7777100</ele>
<time>2010-10-09T12:18:50Z</time>
<extensions>
<tp1:TrackPointExtension>
<tp1:hr>160</tp1:hr>
</tp1:TrackPointExtension>
</extensions>
</trkpt>
<trkpt lat="52.6556140" lon="13.5726836">
<ele>59.2584229</ele>
<time>2010-10-09T12:18:59Z</time>
<extensions>
<tp1:TrackPointExtension>
<tp1:hr>163</tp1:hr>
</tp1:TrackPointExtension>
</extensions>
</trkpt>
<trkpt lat="52.6562270" lon="13.5731386">
<ele>59.2584229</ele>
<time>2010-10-09T12:19:08Z</time>
<extensions>
<tp1:TrackPointExtension>
<tp1:hr>167</tp1:hr>
</tp1:TrackPointExtension>
</extensions>
</trkpt>
<trkpt lat="52.6569823" lon="13.5736916">
<ele>58.7777100</ele>
<time>2010-10-09T12:19:19Z</time>
<extensions>
<tp1:TrackPointExtension>
<tp1:hr>168</tp1:hr>
</tp1:TrackPointExtension>
</extensions>
</trkpt>
<trkpt lat="52.6576601" lon="13.5741826">
<ele>58.2971191</ele>
<time>2010-10-09T12:19:29Z</time>
<extensions>
<tp1:TrackPointExtension>
<tp1:hr>167</tp1:hr>
</tp1:TrackPointExtension>
</extensions>
</trkpt>
<trkpt lat="52.6584050" lon="13.5747447">
<ele>57.8165283</ele>
<time>2010-10-09T12:19:40Z</time>
<extensions>
<tp1:TrackPointExtension>
<tp1:hr>164</tp1:hr>
</tp1:TrackPointExtension>
</extensions>
</trkpt>
<trkpt lat="52.6591481" lon="13.5752947">
<ele>57.8165283</ele>
<time>2010-10-09T12:19:51Z</time>
<extensions>
<tp1:TrackPointExtension>
<tp1:hr>163</tp1:hr>
</tp1:TrackPointExtension>
</extensions>
</trkpt>
<trkpt lat="52.6601009" lon="13.5759946">
<ele>58.2971191</ele>
<time>2010-10-09T12:20:05Z</time>
<extensions>
<tp1:TrackPointExtension>
<tp1:hr>164</tp1:hr>
</tp1:TrackPointExtension>
</extensions>
</trkpt>
<trkpt lat="52.6607852" lon="13.5764970">
<ele>57.8165283</ele>
<time>2010-10-09T12:20:15Z</time>
<extensions>
<tp1:TrackPointExtension>
<tp1:hr>165</tp1:hr>
</tp1:TrackPointExtension>
</extensions>
</trkpt>
<trkpt lat="52.6613990" lon="13.5769441">
<ele>57.8165283</ele>
<time>2010-10-09T12:20:24Z</time>
<extensions>
<tp1:TrackPointExtension>
<tp1:hr>165</tp1:hr>
</tp1:TrackPointExtension>
</extensions>
</trkpt>
<trkpt lat="52.6622330" lon="13.5775528">
<ele>57.8165283</ele>
<time>2010-10-09T12:20:36Z</time>
<extensions>
<tp1:TrackPointExtension>
<tp1:hr>167</tp1:hr>
</tp1:TrackPointExtension>
</extensions>
</trkpt>
<trkpt lat="52.6629276" lon="13.5780662">
<ele>57.8165283</ele>
<time>2010-10-09T12:20:46Z</time>
<extensions>
<tp1:TrackPointExtension>
<tp1:hr>168</tp1:hr>
</tp1:TrackPointExtension>
</extensions>
</trkpt>
<trkpt lat="52.6635499" lon="13.5785225">
<ele>57.8165283</ele>
<time>2010-10-09T12:20:55Z</time>
<extensions>
<tp1:TrackPointExtension>
<tp1:hr>167</tp1:hr>
</tp1:TrackPointExtension>
</extensions>
</trkpt>
<trkpt lat="52.6641709" lon="13.5789844">
<ele>57.3358154</ele>
<time>2010-10-09T12:21:04Z</time>
<extensions>
<tp1:TrackPointExtension>
<tp1:hr>167</tp1:hr>
</tp1:TrackPointExtension>
</extensions>
</trkpt>
<trkpt lat="52.6647312" lon="13.5793887">
<ele>57.8165283</ele>
<time>2010-10-09T12:21:12Z</time>
<extensions>
<tp1:TrackPointExtension>
<tp1:hr>167</tp1:hr>
</tp1:TrackPointExtension>
</extensions>
</trkpt>
<trkpt lat="52.6655741" lon="13.5800082">
<ele>57.8165283</ele>
<time>2010-10-09T12:21:24Z</time>
<extensions>
<tp1:TrackPointExtension>
<tp1:hr>168</tp1:hr>
</tp1:TrackPointExtension>
</extensions>
</trkpt>
<trkpt lat="52.6662692" lon="13.5805235">
<ele>57.8165283</ele>
<time>2010-10-09T12:21:34Z</time>
<extensions>
<tp1:TrackPointExtension>
<tp1:hr>168</tp1:hr>
</tp1:TrackPointExtension>
</extensions>
</trkpt>
<trkpt lat="52.6670200" lon="13.5810789">
<ele>58.2971191</ele>
<time>2010-10-09T12:21:45Z</time>
<extensions>
<tp1:TrackPointExtension>
<tp1:hr>166</tp1:hr>
</tp1:TrackPointExtension>
</extensions>
</trkpt>
<trkpt lat="52.6675994" lon="13.5815206">
<ele>59.2584229</ele>
<time>2010-10-09T12:21:54Z</time>
<extensions>
<tp1:TrackPointExtension>
<tp1:hr>164</tp1:hr>
</tp1:TrackPointExtension>
</extensions>
</trkpt>
<trkpt lat="52.6680907" lon="13.5818894">
<ele>59.7391357</ele>
<time>2010-10-09T12:22:02Z</time>
<extensions>
<tp1:TrackPointExtension>
<tp1:hr>163</tp1:hr>
</tp1:TrackPointExtension>
</extensions>
</trkpt>
<trkpt lat="52.6684440" lon="13.5821375">
<ele>59.2584229</ele>
<time>2010-10-09T12:22:08Z</time>
<extensions>
<tp1:TrackPointExtension>
<tp1:hr>162</tp1:hr>
</tp1:TrackPointExtension>
</extensions>
</trkpt>
<trkpt lat="52.6690229" lon="13.5825546">
<ele>58.7777100</ele>
<time>2010-10-09T12:22:17Z</time>
<extensions>
<tp1:TrackPointExtension>
<tp1:hr>163</tp1:hr>
</tp1:TrackPointExtension>
</extensions>
</trkpt>
<trkpt lat="52.6696898" lon="13.5830572">
<ele>58.2971191</ele>
<time>2010-10-09T12:22:27Z</time>
<extensions>
<tp1:TrackPointExtension>
<tp1:hr>163</tp1:hr>
</tp1:TrackPointExtension>
</extensions>
</trkpt>
<trkpt lat="52.6702208" lon="13.5834186">
<ele>57.8165283</ele>
<time>2010-10-09T12:22:35Z</time>
<extensions>
<tp1:TrackPointExtension>
<tp1:hr>163</tp1:hr>
</tp1:TrackPointExtension>
</extensions>
</trkpt>
<trkpt lat="52.6708118" lon="13.5838591">
<ele>57.3358154</ele>
<time>2010-10-09T12:22:44Z</time>
<extensions>
<tp1:TrackPointExtension>
<tp1:hr>163</tp1:hr>
</tp1:TrackPointExtension>
</extensions>
</trkpt>
<trkpt lat="52.6710149" lon="13.5839870">
<ele>57.3358154</ele>
<time>2010-10-09T12:22:47Z</time>
<extensions>
<tp1:TrackPointExtension>
<tp1:hr>163</tp1:hr>
</tp1:TrackPointExtension>
</extensions>
</trkpt>
<trkpt lat="52.6713075" lon="13.5840423">
<ele>56.8551025</ele>
<time>2010-10-09T12:22:51Z</time>
<extensions>
<tp1:TrackPointExtension>
<tp1:hr>163</tp1:hr>
</tp1:TrackPointExtension>
</extensions>
</trkpt>
<trkpt lat="52.6720664" lon="13.5839757">
<ele>56.8551025</ele>
<time>2010-10-09T12:23:01Z</time>
<extensions>
<tp1:TrackPointExtension>
<tp1:hr>162</tp1:hr>
</tp1:TrackPointExtension>
</extensions>
</trkpt>
<trkpt lat="52.6725259" lon="13.5839958">
<ele>57.3358154</ele>
<time>2010-10-09T12:23:07Z</time>
<extensions>
<tp1:TrackPointExtension>
<tp1:hr>161</tp1:hr>
</tp1:TrackPointExtension>
</extensions>
</trkpt>
<trkpt lat="52.6729186" lon="13.5840035">
<ele>59.2584229</ele>
<time>2010-10-09T12:23:12Z</time>
<extensions>
<tp1:TrackPointExtension>
<tp1:hr>160</tp1:hr>
</tp1:TrackPointExtension>
</extensions>
</trkpt>
<trkpt lat="52.6732734" lon="13.5839905">
<ele>61.6617432</ele>
<time>2010-10-09T12:23:16Z</time>
<extensions>
<tp1:TrackPointExtension>
<tp1:hr>160</tp1:hr>
</tp1:TrackPointExtension>
</extensions>
</trkpt>
<trkpt lat="52.6735394" lon="13.5839933">
<ele>61.1810303</ele>
<time>2010-10-09T12:23:19Z</time>
<extensions>
<tp1:TrackPointExtension>
<tp1:hr>160</tp1:hr>
</tp1:TrackPointExtension>
</extensions>
</trkpt>
<trkpt lat="52.6740039" lon="13.5838134">
<ele>60.7003174</ele>
<time>2010-10-09T12:23:25Z</time>
<extensions>
<tp1:TrackPointExtension>
<tp1:hr>160</tp1:hr>
</tp1:TrackPointExtension>
</extensions>
</trkpt>
<trkpt lat="52.6743159" lon="13.5836495">
<ele>61.6617432</ele>
<time>2010-10-09T12:23:30Z</time>
<extensions>
<tp1:TrackPointExtension>
<tp1:hr>159</tp1:hr>
</tp1:TrackPointExtension>
</extensions>
</trkpt>
<trkpt lat="52.6743504" lon="13.5836295">
<ele>61.6617432</ele>
<time>2010-10-09T12:23:31Z</time>
<extensions>
<tp1:TrackPointExtension>
<tp1:hr>159</tp1:hr>
</tp1:TrackPointExtension>
</extensions>
</trkpt>
<trkpt lat="52.6744653" lon="13.5835648">
<ele>61.1810303</ele>
<time>2010-10-09T12:23:35Z</time>
<extensions>
<tp1:TrackPointExtension>
<tp1:hr>159</tp1:hr>
</tp1:TrackPointExtension>
</extensions>
</trkpt>
<trkpt lat="52.6746094" lon="13.5834770">
<ele>62.6229248</ele>
<time>2010-10-09T12:23:42Z</time>
<extensions>
<tp1:TrackPointExtension>
<tp1:hr>160</tp1:hr>
</tp1:TrackPointExtension>
</extensions>
</trkpt>
<trkpt lat="52.6746876" lon="13.5834076">
<ele>65.0263672</ele>
<time>2010-10-09T12:23:46Z</time>
<extensions>
<tp1:TrackPointExtension>
<tp1:hr>160</tp1:hr>
</tp1:TrackPointExtension>
</extensions>
</trkpt>
<trkpt lat="52.6749173" lon="13.5833275">
<ele>64.5456543</ele>
<time>2010-10-09T12:23:50Z</time>
<extensions>
<tp1:TrackPointExtension>
<tp1:hr>160</tp1:hr>
</tp1:TrackPointExtension>
</extensions>
</trkpt>
<trkpt lat="52.6753056" lon="13.5831477">
<ele>64.0650635</ele>
<time>2010-10-09T12:23:56Z</time>
<extensions>
<tp1:TrackPointExtension>
<tp1:hr>163</tp1:hr>
</tp1:TrackPointExtension>
</extensions>
</trkpt>
<trkpt lat="52.6757726" lon="13.5829877">
<ele>63.5843506</ele>
<time>2010-10-09T12:24:03Z</time>
<extensions>
<tp1:TrackPointExtension>
<tp1:hr>164</tp1:hr>
</tp1:TrackPointExtension>
</extensions>
</trkpt>
<trkpt lat="52.6762540" lon="13.5829743">
<ele>62.6229248</ele>
<time>2010-10-09T12:24:10Z</time>
<extensions>
<tp1:TrackPointExtension>
<tp1:hr>164</tp1:hr>
</tp1:TrackPointExtension>
</extensions>
</trkpt>
<trkpt lat="52.6767140" lon="13.5828689">
<ele>61.6617432</ele>
<time>2010-10-09T12:24:17Z</time>
<extensions>
<tp1:TrackPointExtension>
<tp1:hr>164</tp1:hr>
</tp1:TrackPointExtension>
</extensions>
</trkpt>
<trkpt lat="52.6772313" lon="13.5825495">
<ele>62.6229248</ele>
<time>2010-10-09T12:24:25Z</time>
<extensions>
<tp1:TrackPointExtension>
<tp1:hr>166</tp1:hr>
</tp1:TrackPointExtension>
</extensions>
</trkpt>
<trkpt lat="52.6775431" lon="13.5824045">
<ele>61.1810303</ele>
<time>2010-10-09T12:24:30Z</time>
<extensions>
<tp1:TrackPointExtension>
<tp1:hr>167</tp1:hr>
</tp1:TrackPointExtension>
</extensions>
</trkpt>
<trkpt lat="52.6779584" lon="13.5823968">
<ele>58.7777100</ele>
<time>2010-10-09T12:24:36Z</time>
<extensions>
<tp1:TrackPointExtension>
<tp1:hr>168</tp1:hr>
</tp1:TrackPointExtension>
</extensions>
</trkpt>
<trkpt lat="52.6783986" lon="13.5823314">
<ele>55.8937988</ele>
<time>2010-10-09T12:24:43Z</time>
<extensions>
<tp1:TrackPointExtension>
<tp1:hr>170</tp1:hr>
</tp1:TrackPointExtension>
</extensions>
</trkpt>
<trkpt lat="52.6789053" lon="13.5821549">
<ele>63.5843506</ele>
<time>2010-10-09T12:24:51Z</time>
<extensions>
<tp1:TrackPointExtension>
<tp1:hr>170</tp1:hr>
</tp1:TrackPointExtension>
</extensions>
</trkpt>
<trkpt lat="52.6792208" lon="13.5820507">
<ele>65.5070801</ele>
<time>2010-10-09T12:24:56Z</time>
<extensions>
<tp1:TrackPointExtension>
<tp1:hr>171</tp1:hr>
</tp1:TrackPointExtension>
</extensions>
</trkpt>
<trkpt lat="52.6795335" lon="13.5821026">
<ele>65.9876709</ele>
<time>2010-10-09T12:25:01Z</time>
<extensions>
<tp1:TrackPointExtension>
<tp1:hr>171</tp1:hr>
</tp1:TrackPointExtension>
</extensions>
</trkpt>
<trkpt lat="52.6796283" lon="13.5822423">
<ele>65.9876709</ele>
<time>2010-10-09T12:25:03Z</time>
<extensions>
<tp1:TrackPointExtension>
<tp1:hr>171</tp1:hr>
</tp1:TrackPointExtension>
</extensions>
</trkpt>
<trkpt lat="52.6797744" lon="13.5824313">
<ele>66.4682617</ele>
<time>2010-10-09T12:25:06Z</time>
<extensions>
<tp1:TrackPointExtension>
<tp1:hr>172</tp1:hr>
</tp1:TrackPointExtension>
</extensions>
</trkpt>
<trkpt lat="52.6803013" lon="13.5829604">
<ele>70.7941895</ele>
<time>2010-10-09T12:25:16Z</time>
<extensions>
<tp1:TrackPointExtension>
<tp1:hr>173</tp1:hr>
</tp1:TrackPointExtension>
</extensions>
</trkpt>
<trkpt lat="52.6805204" lon="13.5832123">
<ele>73.1976318</ele>
<time>2010-10-09T12:25:22Z</time>
<extensions>
<tp1:TrackPointExtension>
<tp1:hr>171</tp1:hr>
</tp1:TrackPointExtension>
</extensions>
</trkpt>
<trkpt lat="52.6806010" lon="13.5833114">
<ele>74.6395264</ele>
<time>2010-10-09T12:25:27Z</time>
<extensions>
<tp1:TrackPointExtension>
<tp1:hr>169</tp1:hr>
</tp1:TrackPointExtension>
</extensions>
</trkpt>
<trkpt lat="52.6806598" lon="13.5833936">
<ele>73.6782227</ele>
<time>2010-10-09T12:25:34Z</time>
<extensions>
<tp1:TrackPointExtension>
<tp1:hr>165</tp1:hr>
</tp1:TrackPointExtension>
</extensions>
</trkpt>
<trkpt lat="52.6806664" lon="13.5834072">
<ele>72.7169189</ele>
<time>2010-10-09T12:25:39Z</time>
<extensions>
<tp1:TrackPointExtension>
<tp1:hr>161</tp1:hr>
</tp1:TrackPointExtension>
</extensions>
</trkpt>
<trkpt lat="52.6807834" lon="13.5835442">
<ele>71.7554932</ele>
<time>2010-10-09T12:25:45Z</time>
<extensions>
<tp1:TrackPointExtension>
<tp1:hr>158</tp1:hr>
</tp1:TrackPointExtension>
</extensions>
</trkpt>
<trkpt lat="52.6808582" lon="13.5836125">
<ele>70.7941895</ele>
<time>2010-10-09T12:25:49Z</time>
<extensions>
<tp1:TrackPointExtension>
<tp1:hr>156</tp1:hr>
</tp1:TrackPointExtension>
</extensions>
</trkpt>
<trkpt lat="52.6809634" lon="13.5834766">
<ele>70.3134766</ele>
<time>2010-10-09T12:25:53Z</time>
<extensions>
<tp1:TrackPointExtension>
<tp1:hr>155</tp1:hr>
</tp1:TrackPointExtension>
</extensions>
</trkpt>
<trkpt lat="52.6811553" lon="13.5828881">
<ele>70.7941895</ele>
<time>2010-10-09T12:26:00Z</time>
<extensions>
<tp1:TrackPointExtension>
<tp1:hr>157</tp1:hr>
</tp1:TrackPointExtension>
</extensions>
</trkpt>
<trkpt lat="52.6814031" lon="13.5822294">
<ele>72.7169189</ele>
<time>2010-10-09T12:26:08Z</time>
<extensions>
<tp1:TrackPointExtension>
<tp1:hr>162</tp1:hr>
</tp1:TrackPointExtension>
</extensions>
</trkpt>
<trkpt lat="52.6816439" lon="13.5815356">
<ele>75.1202393</ele>
<time>2010-10-09T12:26:16Z</time>
<extensions>
<tp1:TrackPointExtension>
<tp1:hr>162</tp1:hr>
</tp1:TrackPointExtension>
</extensions>
</trkpt>
<trkpt lat="52.6819666" lon="13.5806368">
<ele>74.6395264</ele>
<time>2010-10-09T12:26:26Z</time>
<extensions>
<tp1:TrackPointExtension>
<tp1:hr>162</tp1:hr>
</tp1:TrackPointExtension>
</extensions>
</trkpt>
<trkpt lat="52.6823121" lon="13.5800304">
<ele>71.7554932</ele>
<time>2010-10-09T12:26:34Z</time>
<extensions>
<tp1:TrackPointExtension>
<tp1:hr>162</tp1:hr>
</tp1:TrackPointExtension>
</extensions>
</trkpt>
<trkpt lat="52.6823525" lon="13.5799630">
<ele>71.7554932</ele>
<time>2010-10-09T12:26:35Z</time>
<extensions>
<tp1:TrackPointExtension>
<tp1:hr>161</tp1:hr>
</tp1:TrackPointExtension>
</extensions>
</trkpt>
<trkpt lat="52.6824887" lon="13.5796823">
<ele>71.2749023</ele>
<time>2010-10-09T12:26:39Z</time>
<extensions>
<tp1:TrackPointExtension>
<tp1:hr>159</tp1:hr>
</tp1:TrackPointExtension>
</extensions>
</trkpt>
<trkpt lat="52.6826231" lon="13.5793874">
<ele>71.2749023</ele>
<time>2010-10-09T12:26:43Z</time>
<extensions>
<tp1:TrackPointExtension>
<tp1:hr>158</tp1:hr>
</tp1:TrackPointExtension>
</extensions>
</trkpt>
<trkpt lat="52.6825681" lon="13.5792040">
<ele>71.2749023</ele>
<time>2010-10-09T12:26:45Z</time>
<extensions>
<tp1:TrackPointExtension>
<tp1:hr>157</tp1:hr>
</tp1:TrackPointExtension>
</extensions>
</trkpt>
<trkpt lat="52.6824179" lon="13.5789439">
<ele>71.2749023</ele>
<time>2010-10-09T12:26:48Z</time>
<extensions>
<tp1:TrackPointExtension>
<tp1:hr>158</tp1:hr>
</tp1:TrackPointExtension>
</extensions>
</trkpt>
<trkpt lat="52.6823810" lon="13.5786117">
<ele>71.7554932</ele>
<time>2010-10-09T12:26:51Z</time>
<extensions>
<tp1:TrackPointExtension>
<tp1:hr>158</tp1:hr>
</tp1:TrackPointExtension>
</extensions>
</trkpt>
<trkpt lat="52.6823700" lon="13.5778844">
<ele>72.2362061</ele>
<time>2010-10-09T12:26:57Z</time>
<extensions>
<tp1:TrackPointExtension>
<tp1:hr>158</tp1:hr>
</tp1:TrackPointExtension>
</extensions>
</trkpt>
<trkpt lat="52.6823685" lon="13.5768721">
<ele>71.2749023</ele>
<time>2010-10-09T12:27:05Z</time>
<extensions>
<tp1:TrackPointExtension>
<tp1:hr>156</tp1:hr>
</tp1:TrackPointExtension>
</extensions>
</trkpt>
<trkpt lat="52.6823431" lon="13.5759914">
<ele>69.3522949</ele>
<time>2010-10-09T12:27:12Z</time>
<extensions>
<tp1:TrackPointExtension>
<tp1:hr>155</tp1:hr>
</tp1:TrackPointExtension>
</extensions>
</trkpt>
<trkpt lat="52.6823384" lon="13.5758703">
<ele>68.8715820</ele>
<time>2010-10-09T12:27:13Z</time>
<extensions>
<tp1:TrackPointExtension>
<tp1:hr>155</tp1:hr>
</tp1:TrackPointExtension>
</extensions>
</trkpt>
<trkpt lat="52.6823229" lon="13.5754149">
<ele>68.3908691</ele>
<time>2010-10-09T12:27:17Z</time>
<extensions>
<tp1:TrackPointExtension>
<tp1:hr>153</tp1:hr>
</tp1:TrackPointExtension>
</extensions>
</trkpt>
<trkpt lat="52.6823237" lon="13.5745726">
<ele>69.8328857</ele>
<time>2010-10-09T12:27:24Z</time>
<extensions>
<tp1:TrackPointExtension>
<tp1:hr>154</tp1:hr>
</tp1:TrackPointExtension>
</extensions>
</trkpt>
<trkpt lat="52.6823081" lon="13.5732977">
<ele>71.2749023</ele>
<time>2010-10-09T12:27:34Z</time>
<extensions>
<tp1:TrackPointExtension>
<tp1:hr>157</tp1:hr>
</tp1:TrackPointExtension>
</extensions>
</trkpt>
<trkpt lat="52.6822925" lon="13.5721155">
<ele>70.3134766</ele>
<time>2010-10-09T12:27:43Z</time>
<extensions>
<tp1:TrackPointExtension>
<tp1:hr>157</tp1:hr>
</tp1:TrackPointExtension>
</extensions>
</trkpt>
<trkpt lat="52.6822702" lon="13.5708167">
<ele>67.9102783</ele>
<time>2010-10-09T12:27:52Z</time>
<extensions>
<tp1:TrackPointExtension>
<tp1:hr>157</tp1:hr>
</tp1:TrackPointExtension>
</extensions>
</trkpt>
<trkpt lat="52.6822712" lon="13.5698000">
<ele>66.4682617</ele>
<time>2010-10-09T12:27:59Z</time>
<extensions>
<tp1:TrackPointExtension>
<tp1:hr>155</tp1:hr>
</tp1:TrackPointExtension>
</extensions>
</trkpt>
<trkpt lat="52.6822701" lon="13.5684957">
<ele>63.5843506</ele>
<time>2010-10-09T12:28:08Z</time>
<extensions>
<tp1:TrackPointExtension>
<tp1:hr>155</tp1:hr>
</tp1:TrackPointExtension>
</extensions>
</trkpt>
<trkpt lat="52.6822273" lon="13.5673455">
<ele>64.0650635</ele>
<time>2010-10-09T12:28:16Z</time>
<extensions>
<tp1:TrackPointExtension>
<tp1:hr>155</tp1:hr>
</tp1:TrackPointExtension>
</extensions>
</trkpt>
<trkpt lat="52.6821987" lon="13.5660272">
<ele>65.0263672</ele>
<time>2010-10-09T12:28:26Z</time>
<extensions>
<tp1:TrackPointExtension>
<tp1:hr>158</tp1:hr>
</tp1:TrackPointExtension>
</extensions>
</trkpt>
<trkpt lat="52.6821377" lon="13.5649202">
<ele>67.4296875</ele>
<time>2010-10-09T12:28:35Z</time>
<extensions>
<tp1:TrackPointExtension>
<tp1:hr>162</tp1:hr>
</tp1:TrackPointExtension>
</extensions>
</trkpt>
<trkpt lat="52.6820519" lon="13.5641198">
<ele>69.3522949</ele>
<time>2010-10-09T12:28:42Z</time>
<extensions>
<tp1:TrackPointExtension>
<tp1:hr>167</tp1:hr>
</tp1:TrackPointExtension>
</extensions>
</trkpt>
<trkpt lat="52.6818678" lon="13.5628915">
<ele>70.3134766</ele>
<time>2010-10-09T12:28:53Z</time>
<extensions>
<tp1:TrackPointExtension>
<tp1:hr>170</tp1:hr>
</tp1:TrackPointExtension>
</extensions>
</trkpt>
<trkpt lat="52.6816995" lon="13.5618475">
<ele>69.3522949</ele>
<time>2010-10-09T12:29:02Z</time>
<extensions>
<tp1:TrackPointExtension>
<tp1:hr>170</tp1:hr>
</tp1:TrackPointExtension>
</extensions>
</trkpt>
<trkpt lat="52.6814971" lon="13.5608203">
<ele>69.8328857</ele>
<time>2010-10-09T12:29:10Z</time>
<extensions>
<tp1:TrackPointExtension>
<tp1:hr>167</tp1:hr>
</tp1:TrackPointExtension>
</extensions>
</trkpt>
<trkpt lat="52.6812560" lon="13.5598815">
<ele>70.7941895</ele>
<time>2010-10-09T12:29:17Z</time>
<extensions>
<tp1:TrackPointExtension>
<tp1:hr>167</tp1:hr>
</tp1:TrackPointExtension>
</extensions>
</trkpt>
<trkpt lat="52.6809279" lon="13.5588675">
<ele>72.7169189</ele>
<time>2010-10-09T12:29:25Z</time>
<extensions>
<tp1:TrackPointExtension>
<tp1:hr>167</tp1:hr>
</tp1:TrackPointExtension>
</extensions>
</trkpt>
<trkpt lat="52.6806118" lon="13.5578975">
<ele>72.7169189</ele>
<time>2010-10-09T12:29:33Z</time>
<extensions>
<tp1:TrackPointExtension>
<tp1:hr>166</tp1:hr>
</tp1:TrackPointExtension>
</extensions>
</trkpt>
<trkpt lat="52.6802666" lon="13.5569546">
<ele>71.2749023</ele>
<time>2010-10-09T12:29:41Z</time>
<extensions>
<tp1:TrackPointExtension>
<tp1:hr>164</tp1:hr>
</tp1:TrackPointExtension>
</extensions>
</trkpt>
<trkpt lat="52.6798947" lon="13.5559744">
<ele>66.9489746</ele>
<time>2010-10-09T12:29:49Z</time>
<extensions>
<tp1:TrackPointExtension>
<tp1:hr>163</tp1:hr>
</tp1:TrackPointExtension>
</extensions>
</trkpt>
<trkpt lat="52.6796698" lon="13.5551403">
<ele>63.5843506</ele>
<time>2010-10-09T12:29:55Z</time>
<extensions>
<tp1:TrackPointExtension>
<tp1:hr>162</tp1:hr>
</tp1:TrackPointExtension>
</extensions>
</trkpt>
<trkpt lat="52.6794533" lon="13.5539533">
<ele>60.2197266</ele>
<time>2010-10-09T12:30:03Z</time>
<extensions>
<tp1:TrackPointExtension>
<tp1:hr>159</tp1:hr>
</tp1:TrackPointExtension>
</extensions>
</trkpt>
<trkpt lat="52.6792741" lon="13.5529546">
<ele>56.3745117</ele>
<time>2010-10-09T12:30:10Z</time>
<extensions>
<tp1:TrackPointExtension>
<tp1:hr>158</tp1:hr>
</tp1:TrackPointExtension>
</extensions>
</trkpt>
<trkpt lat="52.6791213" lon="13.5521248">
<ele>55.4130859</ele>
<time>2010-10-09T12:30:16Z</time>
<extensions>
<tp1:TrackPointExtension>
<tp1:hr>158</tp1:hr>
</tp1:TrackPointExtension>
</extensions>
</trkpt>
<trkpt lat="52.6788794" lon="13.5507801">
<ele>52.5291748</ele>
<time>2010-10-09T12:30:26Z</time>
<extensions>
<tp1:TrackPointExtension>
<tp1:hr>158</tp1:hr>
</tp1:TrackPointExtension>
</extensions>
</trkpt>
<trkpt lat="52.6786446" lon="13.5494563">
<ele>52.0485840</ele>
<time>2010-10-09T12:30:36Z</time>
<extensions>
<tp1:TrackPointExtension>
<tp1:hr>157</tp1:hr>
</tp1:TrackPointExtension>
</extensions>
</trkpt>
<trkpt lat="52.6784336" lon="13.5484083">
<ele>53.0097656</ele>
<time>2010-10-09T12:30:44Z</time>
<extensions>
<tp1:TrackPointExtension>
<tp1:hr>159</tp1:hr>
</tp1:TrackPointExtension>
</extensions>
</trkpt>
<trkpt lat="52.6782007" lon="13.5478377">
<ele>53.9711914</ele>
<time>2010-10-09T12:30:49Z</time>
<extensions>
<tp1:TrackPointExtension>
<tp1:hr>160</tp1:hr>
</tp1:TrackPointExtension>
</extensions>
</trkpt>
<trkpt lat="52.6777480" lon="13.5468387">
<ele>57.8165283</ele>
<time>2010-10-09T12:30:58Z</time>
<extensions>
<tp1:TrackPointExtension>
<tp1:hr>163</tp1:hr>
</tp1:TrackPointExtension>
</extensions>
</trkpt>
<trkpt lat="52.6773475" lon="13.5459358">
<ele>59.7391357</ele>
<time>2010-10-09T12:31:06Z</time>
<extensions>
<tp1:TrackPointExtension>
<tp1:hr>167</tp1:hr>
</tp1:TrackPointExtension>
</extensions>
</trkpt>
<trkpt lat="52.6769047" lon="13.5448864">
<ele>59.7391357</ele>
<time>2010-10-09T12:31:15Z</time>
<extensions>
<tp1:TrackPointExtension>
<tp1:hr>170</tp1:hr>
</tp1:TrackPointExtension>
</extensions>
</trkpt>
<trkpt lat="52.6763928" lon="13.5436367">
<ele>61.6617432</ele>
<time>2010-10-09T12:31:25Z</time>
<extensions>
<tp1:TrackPointExtension>
<tp1:hr>171</tp1:hr>
</tp1:TrackPointExtension>
</extensions>
</trkpt>
<trkpt lat="52.6758121" lon="13.5422354">
<ele>62.6229248</ele>
<time>2010-10-09T12:31:36Z</time>
<extensions>
<tp1:TrackPointExtension>
<tp1:hr>170</tp1:hr>
</tp1:TrackPointExtension>
</extensions>
</trkpt>
<trkpt lat="52.6755603" lon="13.5413989">
<ele>63.1036377</ele>
<time>2010-10-09T12:31:42Z</time>
<extensions>
<tp1:TrackPointExtension>
<tp1:hr>167</tp1:hr>
</tp1:TrackPointExtension>
</extensions>
</trkpt>
<trkpt lat="52.6753155" lon="13.5402493">
<ele>63.5843506</ele>
<time>2010-10-09T12:31:50Z</time>
<extensions>
<tp1:TrackPointExtension>
<tp1:hr>165</tp1:hr>
</tp1:TrackPointExtension>
</extensions>
</trkpt>
<trkpt lat="52.6751008" lon="13.5391694">
<ele>63.5843506</ele>
<time>2010-10-09T12:31:58Z</time>
<extensions>
<tp1:TrackPointExtension>
<tp1:hr>163</tp1:hr>
</tp1:TrackPointExtension>
</extensions>
</trkpt>
<trkpt lat="52.6749885" lon="13.5385485">
<ele>63.5843506</ele>
<time>2010-10-09T12:32:03Z</time>
<extensions>
<tp1:TrackPointExtension>
<tp1:hr>161</tp1:hr>
</tp1:TrackPointExtension>
</extensions>
</trkpt>
<trkpt lat="52.6750280" lon="13.5380994">
<ele>63.1036377</ele>
<time>2010-10-09T12:32:07Z</time>
<extensions>
<tp1:TrackPointExtension>
<tp1:hr>159</tp1:hr>
</tp1:TrackPointExtension>
</extensions>
</trkpt>
<trkpt lat="52.6752382" lon="13.5379666">
<ele>62.6229248</ele>
<time>2010-10-09T12:32:10Z</time>
<extensions>
<tp1:TrackPointExtension>
<tp1:hr>158</tp1:hr>
</tp1:TrackPointExtension>
</extensions>
</trkpt>
<trkpt lat="52.6753784" lon="13.5378678">
<ele>62.6229248</ele>
<time>2010-10-09T12:32:12Z</time>
<extensions>
<tp1:TrackPointExtension>
<tp1:hr>158</tp1:hr>
</tp1:TrackPointExtension>
</extensions>
</trkpt>
<trkpt lat="52.6759727" lon="13.5374023">
<ele>60.2197266</ele>
<time>2010-10-09T12:32:21Z</time>
<extensions>
<tp1:TrackPointExtension>
<tp1:hr>159</tp1:hr>
</tp1:TrackPointExtension>
</extensions>
</trkpt>
<trkpt lat="52.6764342" lon="13.5370454">
<ele>61.6617432</ele>
<time>2010-10-09T12:32:28Z</time>
<extensions>
<tp1:TrackPointExtension>
<tp1:hr>160</tp1:hr>
</tp1:TrackPointExtension>
</extensions>
</trkpt>
<trkpt lat="52.6769845" lon="13.5365818">
<ele>62.1423340</ele>
<time>2010-10-09T12:32:37Z</time>
<extensions>
<tp1:TrackPointExtension>
<tp1:hr>163</tp1:hr>
</tp1:TrackPointExtension>
</extensions>
</trkpt>
<trkpt lat="52.6774729" lon="13.5361199">
<ele>62.6229248</ele>
<time>2010-10-09T12:32:45Z</time>
<extensions>
<tp1:TrackPointExtension>
<tp1:hr>164</tp1:hr>
</tp1:TrackPointExtension>
</extensions>
</trkpt>
<trkpt lat="52.6779864" lon="13.5354940">
<ele>63.1036377</ele>
<time>2010-10-09T12:32:54Z</time>
<extensions>
<tp1:TrackPointExtension>
<tp1:hr>165</tp1:hr>
</tp1:TrackPointExtension>
</extensions>
</trkpt>
<trkpt lat="52.6783333" lon="13.5350669">
<ele>63.5843506</ele>
<time>2010-10-09T12:33:00Z</time>
<extensions>
<tp1:TrackPointExtension>
<tp1:hr>166</tp1:hr>
</tp1:TrackPointExtension>
</extensions>
</trkpt>
<trkpt lat="52.6786154" lon="13.5349069">
<ele>63.1036377</ele>
<time>2010-10-09T12:33:04Z</time>
<extensions>
<tp1:TrackPointExtension>
<tp1:hr>166</tp1:hr>
</tp1:TrackPointExtension>
</extensions>
</trkpt>
<trkpt lat="52.6788897" lon="13.5347573">
<ele>62.6229248</ele>
<time>2010-10-09T12:33:08Z</time>
<extensions>
<tp1:TrackPointExtension>
<tp1:hr>167</tp1:hr>
</tp1:TrackPointExtension>
</extensions>
</trkpt>
<trkpt lat="52.6791801" lon="13.5343632">
<ele>61.6617432</ele>
<time>2010-10-09T12:33:13Z</time>
<extensions>
<tp1:TrackPointExtension>
<tp1:hr>166</tp1:hr>
</tp1:TrackPointExtension>
</extensions>
</trkpt>
<trkpt lat="52.6792595" lon="13.5341316">
<ele>61.6617432</ele>
<time>2010-10-09T12:33:15Z</time>
<extensions>
<tp1:TrackPointExtension>
<tp1:hr>166</tp1:hr>
</tp1:TrackPointExtension>
</extensions>
</trkpt>
<trkpt lat="52.6794500" lon="13.5334261">
<ele>61.1810303</ele>
<time>2010-10-09T12:33:21Z</time>
<extensions>
<tp1:TrackPointExtension>
<tp1:hr>164</tp1:hr>
</tp1:TrackPointExtension>
</extensions>
</trkpt>
<trkpt lat="52.6796857" lon="13.5330882">
<ele>59.7391357</ele>
<time>2010-10-09T12:33:25Z</time>
<extensions>
<tp1:TrackPointExtension>
<tp1:hr>162</tp1:hr>
</tp1:TrackPointExtension>
</extensions>
</trkpt>
<trkpt lat="52.6803736" lon="13.5324289">
<ele>60.7003174</ele>
<time>2010-10-09T12:33:35Z</time>
<extensions>
<tp1:TrackPointExtension>
<tp1:hr>159</tp1:hr>
</tp1:TrackPointExtension>
</extensions>
</trkpt>
<trkpt lat="52.6805580" lon="13.5322149">
<ele>60.7003174</ele>
<time>2010-10-09T12:33:38Z</time>
<extensions>
<tp1:TrackPointExtension>
<tp1:hr>159</tp1:hr>
</tp1:TrackPointExtension>
</extensions>
</trkpt>
<trkpt lat="52.6807279" lon="13.5318177">
<ele>60.7003174</ele>
<time>2010-10-09T12:33:42Z</time>
<extensions>
<tp1:TrackPointExtension>
<tp1:hr>157</tp1:hr>
</tp1:TrackPointExtension>
</extensions>
</trkpt>
<trkpt lat="52.6807534" lon="13.5310827">
<ele>57.8165283</ele>
<time>2010-10-09T12:33:48Z</time>
<extensions>
<tp1:TrackPointExtension>
<tp1:hr>157</tp1:hr>
</tp1:TrackPointExtension>
</extensions>
</trkpt>
<trkpt lat="52.6807338" lon="13.5309567">
<ele>57.3358154</ele>
<time>2010-10-09T12:33:49Z</time>
<extensions>
<tp1:TrackPointExtension>
<tp1:hr>157</tp1:hr>
</tp1:TrackPointExtension>
</extensions>
</trkpt>
<trkpt lat="52.6805861" lon="13.5300765">
<ele>55.8937988</ele>
<time>2010-10-09T12:33:56Z</time>
<extensions>
<tp1:TrackPointExtension>
<tp1:hr>157</tp1:hr>
</tp1:TrackPointExtension>
</extensions>
</trkpt>
<trkpt lat="52.6806312" lon="13.5298461">
<ele>57.8165283</ele>
<time>2010-10-09T12:34:01Z</time>
<extensions>
<tp1:TrackPointExtension>
<tp1:hr>156</tp1:hr>
</tp1:TrackPointExtension>
</extensions>
</trkpt>
<trkpt lat="52.6806259" lon="13.5297188">
<ele>58.2971191</ele>
<time>2010-10-09T12:34:03Z</time>
<extensions>
<tp1:TrackPointExtension>
<tp1:hr>155</tp1:hr>
</tp1:TrackPointExtension>
</extensions>
</trkpt>
<trkpt lat="52.6805391" lon="13.5291448">
<ele>58.2971191</ele>
<time>2010-10-09T12:34:09Z</time>
<extensions>
<tp1:TrackPointExtension>
<tp1:hr>156</tp1:hr>
</tp1:TrackPointExtension>
</extensions>
</trkpt>
<trkpt lat="52.6804240" lon="13.5283458">
<ele>56.8551025</ele>
<time>2010-10-09T12:34:16Z</time>
<extensions>
<tp1:TrackPointExtension>
<tp1:hr>161</tp1:hr>
</tp1:TrackPointExtension>
</extensions>
</trkpt>
<trkpt lat="52.6803069" lon="13.5275031">
<ele>56.3745117</ele>
<time>2010-10-09T12:34:23Z</time>
<extensions>
<tp1:TrackPointExtension>
<tp1:hr>163</tp1:hr>
</tp1:TrackPointExtension>
</extensions>
</trkpt>
<trkpt lat="52.6801893" lon="13.5267682">
<ele>56.3745117</ele>
<time>2010-10-09T12:34:29Z</time>
<extensions>
<tp1:TrackPointExtension>
<tp1:hr>163</tp1:hr>
</tp1:TrackPointExtension>
</extensions>
</trkpt>
<trkpt lat="52.6801591" lon="13.5265688">
<ele>56.8551025</ele>
<time>2010-10-09T12:34:31Z</time>
<extensions>
<tp1:TrackPointExtension>
<tp1:hr>163</tp1:hr>
</tp1:TrackPointExtension>
</extensions>
</trkpt>
<trkpt lat="52.6801457" lon="13.5263707">
<ele>57.3358154</ele>
<time>2010-10-09T12:34:33Z</time>
<extensions>
<tp1:TrackPointExtension>
<tp1:hr>163</tp1:hr>
</tp1:TrackPointExtension>
</extensions>
</trkpt>
<trkpt lat="52.6800370" lon="13.5255312">
<ele>58.7777100</ele>
<time>2010-10-09T12:34:40Z</time>
<extensions>
<tp1:TrackPointExtension>
<tp1:hr>164</tp1:hr>
</tp1:TrackPointExtension>
</extensions>
</trkpt>
<trkpt lat="52.6799018" lon="13.5245133">
<ele>57.8165283</ele>
<time>2010-10-09T12:34:48Z</time>
<extensions>
<tp1:TrackPointExtension>
<tp1:hr>167</tp1:hr>
</tp1:TrackPointExtension>
</extensions>
</trkpt>
<trkpt lat="52.6797941" lon="13.5235899">
<ele>57.3358154</ele>
<time>2010-10-09T12:34:55Z</time>
<extensions>
<tp1:TrackPointExtension>
<tp1:hr>168</tp1:hr>
</tp1:TrackPointExtension>
</extensions>
</trkpt>
<trkpt lat="52.6796685" lon="13.5228199">
<ele>55.4130859</ele>
<time>2010-10-09T12:35:01Z</time>
<extensions>
<tp1:TrackPointExtension>
<tp1:hr>167</tp1:hr>
</tp1:TrackPointExtension>
</extensions>
</trkpt>
<trkpt lat="52.6795841" lon="13.5222635">
<ele>54.4517822</ele>
<time>2010-10-09T12:35:05Z</time>
<extensions>
<tp1:TrackPointExtension>
<tp1:hr>167</tp1:hr>
</tp1:TrackPointExtension>
</extensions>
</trkpt>
<trkpt lat="52.6794828" lon="13.5212304">
<ele>55.8937988</ele>
<time>2010-10-09T12:35:13Z</time>
<extensions>
<tp1:TrackPointExtension>
<tp1:hr>165</tp1:hr>
</tp1:TrackPointExtension>
</extensions>
</trkpt>
<trkpt lat="52.6793777" lon="13.5205078">
<ele>55.4130859</ele>
<time>2010-10-09T12:35:19Z</time>
<extensions>
<tp1:TrackPointExtension>
<tp1:hr>166</tp1:hr>
</tp1:TrackPointExtension>
</extensions>
</trkpt>
<trkpt lat="52.6792313" lon="13.5196217">
<ele>57.8165283</ele>
<time>2010-10-09T12:35:26Z</time>
<extensions>
<tp1:TrackPointExtension>
<tp1:hr>165</tp1:hr>
</tp1:TrackPointExtension>
</extensions>
</trkpt>
<trkpt lat="52.6789589" lon="13.5185222">
<ele>53.9711914</ele>
<time>2010-10-09T12:35:35Z</time>
<extensions>
<tp1:TrackPointExtension>
<tp1:hr>165</tp1:hr>
</tp1:TrackPointExtension>
</extensions>
</trkpt>
<trkpt lat="52.6787572" lon="13.5174709">
<ele>55.4130859</ele>
<time>2010-10-09T12:35:43Z</time>
<extensions>
<tp1:TrackPointExtension>
<tp1:hr>164</tp1:hr>
</tp1:TrackPointExtension>
</extensions>
</trkpt>
<trkpt lat="52.6784498" lon="13.5160570">
<ele>54.4517822</ele>
<time>2010-10-09T12:35:54Z</time>
<extensions>
<tp1:TrackPointExtension>
<tp1:hr>163</tp1:hr>
</tp1:TrackPointExtension>
</extensions>
</trkpt>
<trkpt lat="52.6782582" lon="13.5151481">
<ele>54.4517822</ele>
<time>2010-10-09T12:36:01Z</time>
<extensions>
<tp1:TrackPointExtension>
<tp1:hr>165</tp1:hr>
</tp1:TrackPointExtension>
</extensions>
</trkpt>
<trkpt lat="52.6781093" lon="13.5144867">
<ele>53.4904785</ele>
<time>2010-10-09T12:36:06Z</time>
<extensions>
<tp1:TrackPointExtension>
<tp1:hr>165</tp1:hr>
</tp1:TrackPointExtension>
</extensions>
</trkpt>
<trkpt lat="52.6778624" lon="13.5133287">
<ele>51.5678711</ele>
<time>2010-10-09T12:36:15Z</time>
<extensions>
<tp1:TrackPointExtension>
<tp1:hr>165</tp1:hr>
</tp1:TrackPointExtension>
</extensions>
</trkpt>
<trkpt lat="52.6776131" lon="13.5121369">
<ele>50.6065674</ele>
<time>2010-10-09T12:36:24Z</time>
<extensions>
<tp1:TrackPointExtension>
<tp1:hr>165</tp1:hr>
</tp1:TrackPointExtension>
</extensions>
</trkpt>
<trkpt lat="52.6774890" lon="13.5114671">
<ele>49.1645508</ele>
<time>2010-10-09T12:36:29Z</time>
<extensions>
<tp1:TrackPointExtension>
<tp1:hr>164</tp1:hr>
</tp1:TrackPointExtension>
</extensions>
</trkpt>
<trkpt lat="52.6773340" lon="13.5106880">
<ele>46.7612305</ele>
<time>2010-10-09T12:36:35Z</time>
<extensions>
<tp1:TrackPointExtension>
<tp1:hr>163</tp1:hr>
</tp1:TrackPointExtension>
</extensions>
</trkpt>
<trkpt lat="52.6771054" lon="13.5095278">
<ele>46.7612305</ele>
<time>2010-10-09T12:36:44Z</time>
<extensions>
<tp1:TrackPointExtension>
<tp1:hr>163</tp1:hr>
</tp1:TrackPointExtension>
</extensions>
</trkpt>
<trkpt lat="52.6770911" lon="13.5093941">
<ele>47.2418213</ele>
<time>2010-10-09T12:36:45Z</time>
<extensions>
<tp1:TrackPointExtension>
<tp1:hr>162</tp1:hr>
</tp1:TrackPointExtension>
</extensions>
</trkpt>
<trkpt lat="52.6771037" lon="13.5084528">
<ele>49.1645508</ele>
<time>2010-10-09T12:36:52Z</time>
<extensions>
<tp1:TrackPointExtension>
<tp1:hr>161</tp1:hr>
</tp1:TrackPointExtension>
</extensions>
</trkpt>
<trkpt lat="52.6771502" lon="13.5071377">
<ele>51.5678711</ele>
<time>2010-10-09T12:37:02Z</time>
<extensions>
<tp1:TrackPointExtension>
<tp1:hr>163</tp1:hr>
</tp1:TrackPointExtension>
</extensions>
</trkpt>
<trkpt lat="52.6771858" lon="13.5062051">
<ele>53.0097656</ele>
<time>2010-10-09T12:37:09Z</time>
<extensions>
<tp1:TrackPointExtension>
<tp1:hr>162</tp1:hr>
</tp1:TrackPointExtension>
</extensions>
</trkpt>
<trkpt lat="52.6772288" lon="13.5049354">
<ele>52.0485840</ele>
<time>2010-10-09T12:37:19Z</time>
<extensions>
<tp1:TrackPointExtension>
<tp1:hr>160</tp1:hr>
</tp1:TrackPointExtension>
</extensions>
</trkpt>
<trkpt lat="52.6772725" lon="13.5044422">
<ele>52.5291748</ele>
<time>2010-10-09T12:37:23Z</time>
<extensions>
<tp1:TrackPointExtension>
<tp1:hr>160</tp1:hr>
</tp1:TrackPointExtension>
</extensions>
</trkpt>
<trkpt lat="52.6775257" lon="13.5038016">
<ele>51.0871582</ele>
<time>2010-10-09T12:37:29Z</time>
<extensions>
<tp1:TrackPointExtension>
<tp1:hr>160</tp1:hr>
</tp1:TrackPointExtension>
</extensions>
</trkpt>
<trkpt lat="52.6779660" lon="13.5030148">
<ele>47.2418213</ele>
<time>2010-10-09T12:37:37Z</time>
<extensions>
<tp1:TrackPointExtension>
<tp1:hr>162</tp1:hr>
</tp1:TrackPointExtension>
</extensions>
</trkpt>
<trkpt lat="52.6782565" lon="13.5023936">
<ele>48.6839600</ele>
<time>2010-10-09T12:37:43Z</time>
<extensions>
<tp1:TrackPointExtension>
<tp1:hr>164</tp1:hr>
</tp1:TrackPointExtension>
</extensions>
</trkpt>
<trkpt lat="52.6785483" lon="13.5015834">
<ele>49.6452637</ele>
<time>2010-10-09T12:37:50Z</time>
<extensions>
<tp1:TrackPointExtension>
<tp1:hr>165</tp1:hr>
</tp1:TrackPointExtension>
</extensions>
</trkpt>
<trkpt lat="52.6789473" lon="13.5007503">
<ele>48.6839600</ele>
<time>2010-10-09T12:37:57Z</time>
<extensions>
<tp1:TrackPointExtension>
<tp1:hr>164</tp1:hr>
</tp1:TrackPointExtension>
</extensions>
</trkpt>
<trkpt lat="52.6792663" lon="13.5000829">
<ele>48.2033691</ele>
<time>2010-10-09T12:38:03Z</time>
<extensions>
<tp1:TrackPointExtension>
<tp1:hr>162</tp1:hr>
</tp1:TrackPointExtension>
</extensions>
</trkpt>
<trkpt lat="52.6796281" lon="13.4993831">
<ele>48.6839600</ele>
<time>2010-10-09T12:38:10Z</time>
<extensions>
<tp1:TrackPointExtension>
<tp1:hr>160</tp1:hr>
</tp1:TrackPointExtension>
</extensions>
</trkpt>
<trkpt lat="52.6799706" lon="13.4986157">
<ele>49.1645508</ele>
<time>2010-10-09T12:38:18Z</time>
<extensions>
<tp1:TrackPointExtension>
<tp1:hr>161</tp1:hr>
</tp1:TrackPointExtension>
</extensions>
</trkpt>
<trkpt lat="52.6801127" lon="13.4983060">
<ele>51.0871582</ele>
<time>2010-10-09T12:38:22Z</time>
<extensions>
<tp1:TrackPointExtension>
<tp1:hr>160</tp1:hr>
</tp1:TrackPointExtension>
</extensions>
</trkpt>
<trkpt lat="52.6802390" lon="13.4980932">
<ele>52.0485840</ele>
<time>2010-10-09T12:38:25Z</time>
<extensions>
<tp1:TrackPointExtension>
<tp1:hr>160</tp1:hr>
</tp1:TrackPointExtension>
</extensions>
</trkpt>
<trkpt lat="52.6804752" lon="13.4975522">
<ele>53.9711914</ele>
<time>2010-10-09T12:38:32Z</time>
<extensions>
<tp1:TrackPointExtension>
<tp1:hr>158</tp1:hr>
</tp1:TrackPointExtension>
</extensions>
</trkpt>
<trkpt lat="52.6805388" lon="13.4973902">
<ele>54.9323730</ele>
<time>2010-10-09T12:38:34Z</time>
<extensions>
<tp1:TrackPointExtension>
<tp1:hr>158</tp1:hr>
</tp1:TrackPointExtension>
</extensions>
</trkpt>
<trkpt lat="52.6806092" lon="13.4972461">
<ele>56.3745117</ele>
<time>2010-10-09T12:38:36Z</time>
<extensions>
<tp1:TrackPointExtension>
<tp1:hr>157</tp1:hr>
</tp1:TrackPointExtension>
</extensions>
</trkpt>
<trkpt lat="52.6806707" lon="13.4971056">
<ele>57.3358154</ele>
<time>2010-10-09T12:38:38Z</time>
<extensions>
<tp1:TrackPointExtension>
<tp1:hr>157</tp1:hr>
</tp1:TrackPointExtension>
</extensions>
</trkpt>
<trkpt lat="52.6809232" lon="13.4966153">
<ele>62.1423340</ele>
<time>2010-10-09T12:38:46Z</time>
<extensions>
<tp1:TrackPointExtension>
<tp1:hr>155</tp1:hr>
</tp1:TrackPointExtension>
</extensions>
</trkpt>
<trkpt lat="52.6809877" lon="13.4965152">
<ele>64.0650635</ele>
<time>2010-10-09T12:38:48Z</time>
<extensions>
<tp1:TrackPointExtension>
<tp1:hr>154</tp1:hr>
</tp1:TrackPointExtension>
</extensions>
</trkpt>
<trkpt lat="52.6813065" lon="13.4961846">
<ele>59.7391357</ele>
<time>2010-10-09T12:38:55Z</time>
<extensions>
<tp1:TrackPointExtension>
<tp1:hr>151</tp1:hr>
</tp1:TrackPointExtension>
</extensions>
</trkpt>
<trkpt lat="52.6816209" lon="13.4958419">
<ele>58.7777100</ele>
<time>2010-10-09T12:39:02Z</time>
<extensions>
<tp1:TrackPointExtension>
<tp1:hr>149</tp1:hr>
</tp1:TrackPointExtension>
</extensions>
</trkpt>
<trkpt lat="52.6819481" lon="13.4955708">
<ele>59.2584229</ele>
<time>2010-10-09T12:39:10Z</time>
<extensions>
<tp1:TrackPointExtension>
<tp1:hr>145</tp1:hr>
</tp1:TrackPointExtension>
</extensions>
</trkpt>
<trkpt lat="52.6822635" lon="13.4953316">
<ele>52.5291748</ele>
<time>2010-10-09T12:39:17Z</time>
<extensions>
<tp1:TrackPointExtension>
<tp1:hr>142</tp1:hr>
</tp1:TrackPointExtension>
</extensions>
</trkpt>
<trkpt lat="52.6825965" lon="13.4950860">
<ele>52.0485840</ele>
<time>2010-10-09T12:39:23Z</time>
<extensions>
<tp1:TrackPointExtension>
<tp1:hr>141</tp1:hr>
</tp1:TrackPointExtension>
</extensions>
</trkpt>
<trkpt lat="52.6829963" lon="13.4947788">
<ele>52.5291748</ele>
<time>2010-10-09T12:39:30Z</time>
<extensions>
<tp1:TrackPointExtension>
<tp1:hr>142</tp1:hr>
</tp1:TrackPointExtension>
</extensions>
</trkpt>
<trkpt lat="52.6830641" lon="13.4947262">
<ele>52.0485840</ele>
<time>2010-10-09T12:39:32Z</time>
<extensions>
<tp1:TrackPointExtension>
<tp1:hr>141</tp1:hr>
</tp1:TrackPointExtension>
</extensions>
</trkpt>
<trkpt lat="52.6831631" lon="13.4946428">
<ele>51.0871582</ele>
<time>2010-10-09T12:39:38Z</time>
<extensions>
<tp1:TrackPointExtension>
<tp1:hr>139</tp1:hr>
</tp1:TrackPointExtension>
</extensions>
</trkpt>
<trkpt lat="52.6832207" lon="13.4945698">
<ele>53.4904785</ele>
<time>2010-10-09T12:39:45Z</time>
<extensions>
<tp1:TrackPointExtension>
<tp1:hr>139</tp1:hr>
</tp1:TrackPointExtension>
</extensions>
</trkpt>
<trkpt lat="52.6832964" lon="13.4944826">
<ele>57.3358154</ele>
<time>2010-10-09T12:39:52Z</time>
<extensions>
<tp1:TrackPointExtension>
<tp1:hr>142</tp1:hr>
</tp1:TrackPointExtension>
</extensions>
</trkpt>
<trkpt lat="52.6833362" lon="13.4944313">
<ele>57.3358154</ele>
<time>2010-10-09T12:39:56Z</time>
<extensions>
<tp1:TrackPointExtension>
<tp1:hr>142</tp1:hr>
</tp1:TrackPointExtension>
</extensions>
</trkpt>
<trkpt lat="52.6833977" lon="13.4943073">
<ele>58.7777100</ele>
<time>2010-10-09T12:40:04Z</time>
<extensions>
<tp1:TrackPointExtension>
<tp1:hr>141</tp1:hr>
</tp1:TrackPointExtension>
</extensions>
</trkpt>
<trkpt lat="52.6834563" lon="13.4942312">
<ele>59.2584229</ele>
<time>2010-10-09T12:40:10Z</time>
<extensions>
<tp1:TrackPointExtension>
<tp1:hr>142</tp1:hr>
</tp1:TrackPointExtension>
</extensions>
</trkpt>
<trkpt lat="52.6835398" lon="13.4940935">
<ele>56.8551025</ele>
<time>2010-10-09T12:40:18Z</time>
<extensions>
<tp1:TrackPointExtension>
<tp1:hr>143</tp1:hr>
</tp1:TrackPointExtension>
</extensions>
</trkpt>
<trkpt lat="52.6835609" lon="13.4940323">
<ele>55.8937988</ele>
<time>2010-10-09T12:40:21Z</time>
<extensions>
<tp1:TrackPointExtension>
<tp1:hr>144</tp1:hr>
</tp1:TrackPointExtension>
</extensions>
</trkpt>
<trkpt lat="52.6835295" lon="13.4938844">
<ele>55.4130859</ele>
<time>2010-10-09T12:40:28Z</time>
<extensions>
<tp1:TrackPointExtension>
<tp1:hr>143</tp1:hr>
</tp1:TrackPointExtension>
</extensions>
</trkpt>
<trkpt lat="52.6835274" lon="13.4938584">
<ele>54.9323730</ele>
<time>2010-10-09T12:40:33Z</time>
<extensions>
<tp1:TrackPointExtension>
<tp1:hr>143</tp1:hr>
</tp1:TrackPointExtension>
</extensions>
</trkpt>
<trkpt lat="52.6835279" lon="13.4938367">
<ele>55.4130859</ele>
<time>2010-10-09T12:40:34Z</time>
<extensions>
<tp1:TrackPointExtension>
<tp1:hr>142</tp1:hr>
</tp1:TrackPointExtension>
</extensions>
</trkpt>
<trkpt lat="52.6835953" lon="13.4936927">
<ele>55.4130859</ele>
<time>2010-10-09T12:40:39Z</time>
<extensions>
<tp1:TrackPointExtension>
<tp1:hr>141</tp1:hr>
</tp1:TrackPointExtension>
</extensions>
</trkpt>
<trkpt lat="52.6836196" lon="13.4936487">
<ele>55.4130859</ele>
<time>2010-10-09T12:40:40Z</time>
<extensions>
<tp1:TrackPointExtension>
<tp1:hr>141</tp1:hr>
</tp1:TrackPointExtension>
</extensions>
</trkpt>
<trkpt lat="52.6838010" lon="13.4932487">
<ele>54.4517822</ele>
<time>2010-10-09T12:40:46Z</time>
<extensions>
<tp1:TrackPointExtension>
<tp1:hr>143</tp1:hr>
</tp1:TrackPointExtension>
</extensions>
</trkpt>
<trkpt lat="52.6838403" lon="13.4931746">
<ele>54.9323730</ele>
<time>2010-10-09T12:40:47Z</time>
<extensions>
<tp1:TrackPointExtension>
<tp1:hr>143</tp1:hr>
</tp1:TrackPointExtension>
</extensions>
</trkpt>
<trkpt lat="52.6841258" lon="13.4924002">
<ele>54.9323730</ele>
<time>2010-10-09T12:40:55Z</time>
<extensions>
<tp1:TrackPointExtension>
<tp1:hr>149</tp1:hr>
</tp1:TrackPointExtension>
</extensions>
</trkpt>
<trkpt lat="52.6842726" lon="13.4918427">
<ele>53.0097656</ele>
<time>2010-10-09T12:41:00Z</time>
<extensions>
<tp1:TrackPointExtension>
<tp1:hr>151</tp1:hr>
</tp1:TrackPointExtension>
</extensions>
</trkpt>
<trkpt lat="52.6844169" lon="13.4909855">
<ele>50.1259766</ele>
<time>2010-10-09T12:41:07Z</time>
<extensions>
<tp1:TrackPointExtension>
<tp1:hr>154</tp1:hr>
</tp1:TrackPointExtension>
</extensions>
</trkpt>
<trkpt lat="52.6845318" lon="13.4902153">
<ele>49.6452637</ele>
<time>2010-10-09T12:41:13Z</time>
<extensions>
<tp1:TrackPointExtension>
<tp1:hr>157</tp1:hr>
</tp1:TrackPointExtension>
</extensions>
</trkpt>
<trkpt lat="52.6846282" lon="13.4895512">
<ele>49.6452637</ele>
<time>2010-10-09T12:41:18Z</time>
<extensions>
<tp1:TrackPointExtension>
<tp1:hr>160</tp1:hr>
</tp1:TrackPointExtension>
</extensions>
</trkpt>
<trkpt lat="52.6848099" lon="13.4883560">
<ele>49.6452637</ele>
<time>2010-10-09T12:41:27Z</time>
<extensions>
<tp1:TrackPointExtension>
<tp1:hr>161</tp1:hr>
</tp1:TrackPointExtension>
</extensions>
</trkpt>
<trkpt lat="52.6849751" lon="13.4873095">
<ele>50.6065674</ele>
<time>2010-10-09T12:41:35Z</time>
<extensions>
<tp1:TrackPointExtension>
<tp1:hr>162</tp1:hr>
</tp1:TrackPointExtension>
</extensions>
</trkpt>
<trkpt lat="52.6850867" lon="13.4865130">
<ele>50.6065674</ele>
<time>2010-10-09T12:41:41Z</time>
<extensions>
<tp1:TrackPointExtension>
<tp1:hr>163</tp1:hr>
</tp1:TrackPointExtension>
</extensions>
</trkpt>
<trkpt lat="52.6852297" lon="13.4855935">
<ele>52.0485840</ele>
<time>2010-10-09T12:41:48Z</time>
<extensions>
<tp1:TrackPointExtension>
<tp1:hr>162</tp1:hr>
</tp1:TrackPointExtension>
</extensions>
</trkpt>
<trkpt lat="52.6853782" lon="13.4844056">
<ele>52.5291748</ele>
<time>2010-10-09T12:41:57Z</time>
<extensions>
<tp1:TrackPointExtension>
<tp1:hr>163</tp1:hr>
</tp1:TrackPointExtension>
</extensions>
</trkpt>
<trkpt lat="52.6854477" lon="13.4834893">
<ele>52.0485840</ele>
<time>2010-10-09T12:42:04Z</time>
<extensions>
<tp1:TrackPointExtension>
<tp1:hr>164</tp1:hr>
</tp1:TrackPointExtension>
</extensions>
</trkpt>
<trkpt lat="52.6855264" lon="13.4826155">
<ele>52.5291748</ele>
<time>2010-10-09T12:42:11Z</time>
<extensions>
<tp1:TrackPointExtension>
<tp1:hr>165</tp1:hr>
</tp1:TrackPointExtension>
</extensions>
</trkpt>
<trkpt lat="52.6855803" lon="13.4819478">
<ele>52.5291748</ele>
<time>2010-10-09T12:42:16Z</time>
<extensions>
<tp1:TrackPointExtension>
<tp1:hr>165</tp1:hr>
</tp1:TrackPointExtension>
</extensions>
</trkpt>
<trkpt lat="52.6856427" lon="13.4813153">
<ele>53.0097656</ele>
<time>2010-10-09T12:42:21Z</time>
<extensions>
<tp1:TrackPointExtension>
<tp1:hr>165</tp1:hr>
</tp1:TrackPointExtension>
</extensions>
</trkpt>
<trkpt lat="52.6856697" lon="13.4808451">
<ele>53.0097656</ele>
<time>2010-10-09T12:42:25Z</time>
<extensions>
<tp1:TrackPointExtension>
<tp1:hr>165</tp1:hr>
</tp1:TrackPointExtension>
</extensions>
</trkpt>
<trkpt lat="52.6855726" lon="13.4800852">
<ele>50.1259766</ele>
<time>2010-10-09T12:42:31Z</time>
<extensions>
<tp1:TrackPointExtension>
<tp1:hr>166</tp1:hr>
</tp1:TrackPointExtension>
</extensions>
</trkpt>
<trkpt lat="52.6852892" lon="13.4788339">
<ele>47.7225342</ele>
<time>2010-10-09T12:42:41Z</time>
<extensions>
<tp1:TrackPointExtension>
<tp1:hr>168</tp1:hr>
</tp1:TrackPointExtension>
</extensions>
</trkpt>
<trkpt lat="52.6850136" lon="13.4776091">
<ele>45.7999268</ele>
<time>2010-10-09T12:42:51Z</time>
<extensions>
<tp1:TrackPointExtension>
<tp1:hr>169</tp1:hr>
</tp1:TrackPointExtension>
</extensions>
</trkpt>
<trkpt lat="52.6848543" lon="13.4769190">
<ele>44.3580322</ele>
<time>2010-10-09T12:42:57Z</time>
<extensions>
<tp1:TrackPointExtension>
<tp1:hr>168</tp1:hr>
</tp1:TrackPointExtension>
</extensions>
</trkpt>
<trkpt lat="52.6846917" lon="13.4761187">
<ele>42.4354248</ele>
<time>2010-10-09T12:43:03Z</time>
<extensions>
<tp1:TrackPointExtension>
<tp1:hr>168</tp1:hr>
</tp1:TrackPointExtension>
</extensions>
</trkpt>
<trkpt lat="52.6845468" lon="13.4754762">
<ele>43.3966064</ele>
<time>2010-10-09T12:43:08Z</time>
<extensions>
<tp1:TrackPointExtension>
<tp1:hr>169</tp1:hr>
</tp1:TrackPointExtension>
</extensions>
</trkpt>
<trkpt lat="52.6843208" lon="13.4744279">
<ele>44.3580322</ele>
<time>2010-10-09T12:43:16Z</time>
<extensions>
<tp1:TrackPointExtension>
<tp1:hr>169</tp1:hr>
</tp1:TrackPointExtension>
</extensions>
</trkpt>
<trkpt lat="52.6841915" lon="13.4736585">
<ele>42.4354248</ele>
<time>2010-10-09T12:43:22Z</time>
<extensions>
<tp1:TrackPointExtension>
<tp1:hr>168</tp1:hr>
</tp1:TrackPointExtension>
</extensions>
</trkpt>
<trkpt lat="52.6841552" lon="13.4728482">
<ele>43.3966064</ele>
<time>2010-10-09T12:43:28Z</time>
<extensions>
<tp1:TrackPointExtension>
<tp1:hr>166</tp1:hr>
</tp1:TrackPointExtension>
</extensions>
</trkpt>
<trkpt lat="52.6842011" lon="13.4720743">
<ele>42.4354248</ele>
<time>2010-10-09T12:43:34Z</time>
<extensions>
<tp1:TrackPointExtension>
<tp1:hr>165</tp1:hr>
</tp1:TrackPointExtension>
</extensions>
</trkpt>
<trkpt lat="52.6842346" lon="13.4711285">
<ele>44.3580322</ele>
<time>2010-10-09T12:43:41Z</time>
<extensions>
<tp1:TrackPointExtension>
<tp1:hr>162</tp1:hr>
</tp1:TrackPointExtension>
</extensions>
</trkpt>
<trkpt lat="52.6842431" lon="13.4703583">
<ele>46.2806396</ele>
<time>2010-10-09T12:43:47Z</time>
<extensions>
<tp1:TrackPointExtension>
<tp1:hr>160</tp1:hr>
</tp1:TrackPointExtension>
</extensions>
</trkpt>
<trkpt lat="52.6841148" lon="13.4696312">
<ele>46.7612305</ele>
<time>2010-10-09T12:43:53Z</time>
<extensions>
<tp1:TrackPointExtension>
<tp1:hr>160</tp1:hr>
</tp1:TrackPointExtension>
</extensions>
</trkpt>
<trkpt lat="52.6840535" lon="13.4693954">
<ele>46.7612305</ele>
<time>2010-10-09T12:43:55Z</time>
<extensions>
<tp1:TrackPointExtension>
<tp1:hr>160</tp1:hr>
</tp1:TrackPointExtension>
</extensions>
</trkpt>
<trkpt lat="52.6837953" lon="13.4688919">
<ele>46.2806396</ele>
<time>2010-10-09T12:44:00Z</time>
<extensions>
<tp1:TrackPointExtension>
<tp1:hr>160</tp1:hr>
</tp1:TrackPointExtension>
</extensions>
</trkpt>
<trkpt lat="52.6832186" lon="13.4683600">
<ele>48.6839600</ele>
<time>2010-10-09T12:44:08Z</time>
<extensions>
<tp1:TrackPointExtension>
<tp1:hr>160</tp1:hr>
</tp1:TrackPointExtension>
</extensions>
</trkpt>
<trkpt lat="52.6825735" lon="13.4677910">
<ele>50.1259766</ele>
<time>2010-10-09T12:44:17Z</time>
<extensions>
<tp1:TrackPointExtension>
<tp1:hr>161</tp1:hr>
</tp1:TrackPointExtension>
</extensions>
</trkpt>
<trkpt lat="52.6823759" lon="13.4673810">
<ele>50.6065674</ele>
<time>2010-10-09T12:44:21Z</time>
<extensions>
<tp1:TrackPointExtension>
<tp1:hr>161</tp1:hr>
</tp1:TrackPointExtension>
</extensions>
</trkpt>
<trkpt lat="52.6823532" lon="13.4672502">
<ele>50.6065674</ele>
<time>2010-10-09T12:44:22Z</time>
<extensions>
<tp1:TrackPointExtension>
<tp1:hr>161</tp1:hr>
</tp1:TrackPointExtension>
</extensions>
</trkpt>
<trkpt lat="52.6823083" lon="13.4669861">
<ele>50.6065674</ele>
<time>2010-10-09T12:44:24Z</time>
<extensions>
<tp1:TrackPointExtension>
<tp1:hr>162</tp1:hr>
</tp1:TrackPointExtension>
</extensions>
</trkpt>
<trkpt lat="52.6821928" lon="13.4666215">
<ele>49.6452637</ele>
<time>2010-10-09T12:44:27Z</time>
<extensions>
<tp1:TrackPointExtension>
<tp1:hr>163</tp1:hr>
</tp1:TrackPointExtension>
</extensions>
</trkpt>
<trkpt lat="52.6820592" lon="13.4659714">
<ele>50.6065674</ele>
<time>2010-10-09T12:44:32Z</time>
<extensions>
<tp1:TrackPointExtension>
<tp1:hr>165</tp1:hr>
</tp1:TrackPointExtension>
</extensions>
</trkpt>
<trkpt lat="52.6818264" lon="13.4646349">
<ele>50.1259766</ele>
<time>2010-10-09T12:44:42Z</time>
<extensions>
<tp1:TrackPointExtension>
<tp1:hr>169</tp1:hr>
</tp1:TrackPointExtension>
</extensions>
</trkpt>
<trkpt lat="52.6816107" lon="13.4633782">
<ele>48.6839600</ele>
<time>2010-10-09T12:44:51Z</time>
<extensions>
<tp1:TrackPointExtension>
<tp1:hr>168</tp1:hr>
</tp1:TrackPointExtension>
</extensions>
</trkpt>
<trkpt lat="52.6814453" lon="13.4623909">
<ele>47.7225342</ele>
<time>2010-10-09T12:44:58Z</time>
<extensions>
<tp1:TrackPointExtension>
<tp1:hr>168</tp1:hr>
</tp1:TrackPointExtension>
</extensions>
</trkpt>
<trkpt lat="52.6812042" lon="13.4610003">
<ele>46.2806396</ele>
<time>2010-10-09T12:45:08Z</time>
<extensions>
<tp1:TrackPointExtension>
<tp1:hr>168</tp1:hr>
</tp1:TrackPointExtension>
</extensions>
</trkpt>
<trkpt lat="52.6810321" lon="13.4599951">
<ele>46.2806396</ele>
<time>2010-10-09T12:45:15Z</time>
<extensions>
<tp1:TrackPointExtension>
<tp1:hr>169</tp1:hr>
</tp1:TrackPointExtension>
</extensions>
</trkpt>
<trkpt lat="52.6807307" lon="13.4582619">
<ele>46.2806396</ele>
<time>2010-10-09T12:45:27Z</time>
<extensions>
<tp1:TrackPointExtension>
<tp1:hr>170</tp1:hr>
</tp1:TrackPointExtension>
</extensions>
</trkpt>
<trkpt lat="52.6804385" lon="13.4565928">
<ele>46.7612305</ele>
<time>2010-10-09T12:45:38Z</time>
<extensions>
<tp1:TrackPointExtension>
<tp1:hr>172</tp1:hr>
</tp1:TrackPointExtension>
</extensions>
</trkpt>
<trkpt lat="52.6802005" lon="13.4552155">
<ele>47.7225342</ele>
<time>2010-10-09T12:45:47Z</time>
<extensions>
<tp1:TrackPointExtension>
<tp1:hr>173</tp1:hr>
</tp1:TrackPointExtension>
</extensions>
</trkpt>
<trkpt lat="52.6799867" lon="13.4539840">
<ele>48.2033691</ele>
<time>2010-10-09T12:45:55Z</time>
<extensions>
<tp1:TrackPointExtension>
<tp1:hr>175</tp1:hr>
</tp1:TrackPointExtension>
</extensions>
</trkpt>
<trkpt lat="52.6797144" lon="13.4524031">
<ele>49.1645508</ele>
<time>2010-10-09T12:46:05Z</time>
<extensions>
<tp1:TrackPointExtension>
<tp1:hr>176</tp1:hr>
</tp1:TrackPointExtension>
</extensions>
</trkpt>
<trkpt lat="52.6794899" lon="13.4509893">
<ele>49.6452637</ele>
<time>2010-10-09T12:46:14Z</time>
<extensions>
<tp1:TrackPointExtension>
<tp1:hr>175</tp1:hr>
</tp1:TrackPointExtension>
</extensions>
</trkpt>
<trkpt lat="52.6793179" lon="13.4498934">
<ele>50.1259766</ele>
<time>2010-10-09T12:46:21Z</time>
<extensions>
<tp1:TrackPointExtension>
<tp1:hr>175</tp1:hr>
</tp1:TrackPointExtension>
</extensions>
</trkpt>
<trkpt lat="52.6791482" lon="13.4487998">
<ele>50.6065674</ele>
<time>2010-10-09T12:46:28Z</time>
<extensions>
<tp1:TrackPointExtension>
<tp1:hr>174</tp1:hr>
</tp1:TrackPointExtension>
</extensions>
</trkpt>
<trkpt lat="52.6789356" lon="13.4474085">
<ele>50.6065674</ele>
<time>2010-10-09T12:46:37Z</time>
<extensions>
<tp1:TrackPointExtension>
<tp1:hr>174</tp1:hr>
</tp1:TrackPointExtension>
</extensions>
</trkpt>
<trkpt lat="52.6788340" lon="13.4462912">
<ele>50.6065674</ele>
<time>2010-10-09T12:46:44Z</time>
<extensions>
<tp1:TrackPointExtension>
<tp1:hr>173</tp1:hr>
</tp1:TrackPointExtension>
</extensions>
</trkpt>
<trkpt lat="52.6789071" lon="13.4452898">
<ele>50.6065674</ele>
<time>2010-10-09T12:46:50Z</time>
<extensions>
<tp1:TrackPointExtension>
<tp1:hr>172</tp1:hr>
</tp1:TrackPointExtension>
</extensions>
</trkpt>
<trkpt lat="52.6789818" lon="13.4441941">
<ele>50.6065674</ele>
<time>2010-10-09T12:46:57Z</time>
<extensions>
<tp1:TrackPointExtension>
<tp1:hr>170</tp1:hr>
</tp1:TrackPointExtension>
</extensions>
</trkpt>
<trkpt lat="52.6790578" lon="13.4432370">
<ele>50.6065674</ele>
<time>2010-10-09T12:47:04Z</time>
<extensions>
<tp1:TrackPointExtension>
<tp1:hr>169</tp1:hr>
</tp1:TrackPointExtension>
</extensions>
</trkpt>
<trkpt lat="52.6791268" lon="13.4425561">
<ele>50.6065674</ele>
<time>2010-10-09T12:47:10Z</time>
<extensions>
<tp1:TrackPointExtension>
<tp1:hr>166</tp1:hr>
</tp1:TrackPointExtension>
</extensions>
</trkpt>
<trkpt lat="52.6791417" lon="13.4423602">
<ele>50.6065674</ele>
<time>2010-10-09T12:47:12Z</time>
<extensions>
<tp1:TrackPointExtension>
<tp1:hr>164</tp1:hr>
</tp1:TrackPointExtension>
</extensions>
</trkpt>
<trkpt lat="52.6791949" lon="13.4420862">
<ele>50.6065674</ele>
<time>2010-10-09T12:47:15Z</time>
<extensions>
<tp1:TrackPointExtension>
<tp1:hr>162</tp1:hr>
</tp1:TrackPointExtension>
</extensions>
</trkpt>
<trkpt lat="52.6792832" lon="13.4416196">
<ele>51.0871582</ele>
<time>2010-10-09T12:47:20Z</time>
<extensions>
<tp1:TrackPointExtension>
<tp1:hr>160</tp1:hr>
</tp1:TrackPointExtension>
</extensions>
</trkpt>
<trkpt lat="52.6793336" lon="13.4407230">
<ele>51.5678711</ele>
<time>2010-10-09T12:47:28Z</time>
<extensions>
<tp1:TrackPointExtension>
<tp1:hr>160</tp1:hr>
</tp1:TrackPointExtension>
</extensions>
</trkpt>
<trkpt lat="52.6793833" lon="13.4402879">
<ele>51.5678711</ele>
<time>2010-10-09T12:47:33Z</time>
<extensions>
<tp1:TrackPointExtension>
<tp1:hr>158</tp1:hr>
</tp1:TrackPointExtension>
</extensions>
</trkpt>
<trkpt lat="52.6793950" lon="13.4401202">
<ele>51.5678711</ele>
<time>2010-10-09T12:47:37Z</time>
<extensions>
<tp1:TrackPointExtension>
<tp1:hr>156</tp1:hr>
</tp1:TrackPointExtension>
</extensions>
</trkpt>
<trkpt lat="52.6794003" lon="13.4400157">
<ele>53.0097656</ele>
<time>2010-10-09T12:47:43Z</time>
<extensions>
<tp1:TrackPointExtension>
<tp1:hr>154</tp1:hr>
</tp1:TrackPointExtension>
</extensions>
</trkpt>
<trkpt lat="52.6793966" lon="13.4399771">
<ele>53.4904785</ele>
<time>2010-10-09T12:47:52Z</time>
<extensions>
<tp1:TrackPointExtension>
<tp1:hr>149</tp1:hr>
</tp1:TrackPointExtension>
</extensions>
</trkpt>
<trkpt lat="52.6793705" lon="13.4397963">
<ele>52.5291748</ele>
<time>2010-10-09T12:47:56Z</time>
<extensions>
<tp1:TrackPointExtension>
<tp1:hr>149</tp1:hr>
</tp1:TrackPointExtension>
</extensions>
</trkpt>
<trkpt lat="52.6792412" lon="13.4394960">
<ele>51.5678711</ele>
<time>2010-10-09T12:48:01Z</time>
<extensions>
<tp1:TrackPointExtension>
<tp1:hr>149</tp1:hr>
</tp1:TrackPointExtension>
</extensions>
</trkpt>
<trkpt lat="52.6792036" lon="13.4393175">
<ele>51.0871582</ele>
<time>2010-10-09T12:48:03Z</time>
<extensions>
<tp1:TrackPointExtension>
<tp1:hr>149</tp1:hr>
</tp1:TrackPointExtension>
</extensions>
</trkpt>
<trkpt lat="52.6792047" lon="13.4389970">
<ele>51.5678711</ele>
<time>2010-10-09T12:48:06Z</time>
<extensions>
<tp1:TrackPointExtension>
<tp1:hr>149</tp1:hr>
</tp1:TrackPointExtension>
</extensions>
</trkpt>
<trkpt lat="52.6792865" lon="13.4379578">
<ele>50.6065674</ele>
<time>2010-10-09T12:48:15Z</time>
<extensions>
<tp1:TrackPointExtension>
<tp1:hr>151</tp1:hr>
</tp1:TrackPointExtension>
</extensions>
</trkpt>
<trkpt lat="52.6793696" lon="13.4368189">
<ele>50.1259766</ele>
<time>2010-10-09T12:48:24Z</time>
<extensions>
<tp1:TrackPointExtension>
<tp1:hr>150</tp1:hr>
</tp1:TrackPointExtension>
</extensions>
</trkpt>
<trkpt lat="52.6794735" lon="13.4355232">
<ele>49.1645508</ele>
<time>2010-10-09T12:48:34Z</time>
<extensions>
<tp1:TrackPointExtension>
<tp1:hr>152</tp1:hr>
</tp1:TrackPointExtension>
</extensions>
</trkpt>
<trkpt lat="52.6795102" lon="13.4350229">
<ele>49.6452637</ele>
<time>2010-10-09T12:48:38Z</time>
<extensions>
<tp1:TrackPointExtension>
<tp1:hr>153</tp1:hr>
</tp1:TrackPointExtension>
</extensions>
</trkpt>
<trkpt lat="52.6795854" lon="13.4341951">
<ele>52.0485840</ele>
<time>2010-10-09T12:48:45Z</time>
<extensions>
<tp1:TrackPointExtension>
<tp1:hr>152</tp1:hr>
</tp1:TrackPointExtension>
</extensions>
</trkpt>
<trkpt lat="52.6796055" lon="13.4339962">
<ele>52.5291748</ele>
<time>2010-10-09T12:48:47Z</time>
<extensions>
<tp1:TrackPointExtension>
<tp1:hr>151</tp1:hr>
</tp1:TrackPointExtension>
</extensions>
</trkpt>
<trkpt lat="52.6796227" lon="13.4335371">
<ele>53.0097656</ele>
<time>2010-10-09T12:48:52Z</time>
<extensions>
<tp1:TrackPointExtension>
<tp1:hr>149</tp1:hr>
</tp1:TrackPointExtension>
</extensions>
</trkpt>
<trkpt lat="52.6796198" lon="13.4332275">
<ele>53.0097656</ele>
<time>2010-10-09T12:48:56Z</time>
<extensions>
<tp1:TrackPointExtension>
<tp1:hr>147</tp1:hr>
</tp1:TrackPointExtension>
</extensions>
</trkpt>
<trkpt lat="52.6796858" lon="13.4328224">
<ele>52.0485840</ele>
<time>2010-10-09T12:49:03Z</time>
<extensions>
<tp1:TrackPointExtension>
<tp1:hr>145</tp1:hr>
</tp1:TrackPointExtension>
</extensions>
</trkpt>
<trkpt lat="52.6796869" lon="13.4327907">
<ele>52.0485840</ele>
<time>2010-10-09T12:49:04Z</time>
<extensions>
<tp1:TrackPointExtension>
<tp1:hr>145</tp1:hr>
</tp1:TrackPointExtension>
</extensions>
</trkpt>
<trkpt lat="52.6796629" lon="13.4327092">
<ele>52.0485840</ele>
<time>2010-10-09T12:49:07Z</time>
<extensions>
<tp1:TrackPointExtension>
<tp1:hr>143</tp1:hr>
</tp1:TrackPointExtension>
</extensions>
</trkpt>
<trkpt lat="52.6796932" lon="13.4325893">
<ele>50.6065674</ele>
<time>2010-10-09T12:49:12Z</time>
<extensions>
<tp1:TrackPointExtension>
<tp1:hr>140</tp1:hr>
</tp1:TrackPointExtension>
</extensions>
</trkpt>
<trkpt lat="52.6797024" lon="13.4324699">
<ele>49.6452637</ele>
<time>2010-10-09T12:49:15Z</time>
<extensions>
<tp1:TrackPointExtension>
<tp1:hr>140</tp1:hr>
</tp1:TrackPointExtension>
</extensions>
</trkpt>
<trkpt lat="52.6797376" lon="13.4319437">
<ele>48.6839600</ele>
<time>2010-10-09T12:49:20Z</time>
<extensions>
<tp1:TrackPointExtension>
<tp1:hr>142</tp1:hr>
</tp1:TrackPointExtension>
</extensions>
</trkpt>
<trkpt lat="52.6797747" lon="13.4314321">
<ele>47.7225342</ele>
<time>2010-10-09T12:49:24Z</time>
<extensions>
<tp1:TrackPointExtension>
<tp1:hr>151</tp1:hr>
</tp1:TrackPointExtension>
</extensions>
</trkpt>
<trkpt lat="52.6797904" lon="13.4308249">
<ele>46.7612305</ele>
<time>2010-10-09T12:49:28Z</time>
<extensions>
<tp1:TrackPointExtension>
<tp1:hr>155</tp1:hr>
</tp1:TrackPointExtension>
</extensions>
</trkpt>
<trkpt lat="52.6798317" lon="13.4300770">
<ele>45.3192139</ele>
<time>2010-10-09T12:49:33Z</time>
<extensions>
<tp1:TrackPointExtension>
<tp1:hr>157</tp1:hr>
</tp1:TrackPointExtension>
</extensions>
</trkpt>
<trkpt lat="52.6799019" lon="13.4291745">
<ele>44.8386230</ele>
<time>2010-10-09T12:49:39Z</time>
<extensions>
<tp1:TrackPointExtension>
<tp1:hr>159</tp1:hr>
</tp1:TrackPointExtension>
</extensions>
</trkpt>
<trkpt lat="52.6799639" lon="13.4278852">
<ele>44.3580322</ele>
<time>2010-10-09T12:49:48Z</time>
<extensions>
<tp1:TrackPointExtension>
<tp1:hr>158</tp1:hr>
</tp1:TrackPointExtension>
</extensions>
</trkpt>
<trkpt lat="52.6799930" lon="13.4272126">
<ele>45.3192139</ele>
<time>2010-10-09T12:49:53Z</time>
<extensions>
<tp1:TrackPointExtension>
<tp1:hr>157</tp1:hr>
</tp1:TrackPointExtension>
</extensions>
</trkpt>
<trkpt lat="52.6800739" lon="13.4261155">
<ele>44.3580322</ele>
<time>2010-10-09T12:50:01Z</time>
<extensions>
<tp1:TrackPointExtension>
<tp1:hr>158</tp1:hr>
</tp1:TrackPointExtension>
</extensions>
</trkpt>
<trkpt lat="52.6801339" lon="13.4251667">
<ele>43.3966064</ele>
<time>2010-10-09T12:50:08Z</time>
<extensions>
<tp1:TrackPointExtension>
<tp1:hr>160</tp1:hr>
</tp1:TrackPointExtension>
</extensions>
</trkpt>
<trkpt lat="52.6802132" lon="13.4240548">
<ele>43.3966064</ele>
<time>2010-10-09T12:50:16Z</time>
<extensions>
<tp1:TrackPointExtension>
<tp1:hr>162</tp1:hr>
</tp1:TrackPointExtension>
</extensions>
</trkpt>
<trkpt lat="52.6802633" lon="13.4232075">
<ele>44.3580322</ele>
<time>2010-10-09T12:50:22Z</time>
<extensions>
<tp1:TrackPointExtension>
<tp1:hr>163</tp1:hr>
</tp1:TrackPointExtension>
</extensions>
</trkpt>
<trkpt lat="52.6803220" lon="13.4223804">
<ele>45.3192139</ele>
<time>2010-10-09T12:50:28Z</time>
<extensions>
<tp1:TrackPointExtension>
<tp1:hr>163</tp1:hr>
</tp1:TrackPointExtension>
</extensions>
</trkpt>
<trkpt lat="52.6803742" lon="13.4214017">
<ele>46.7612305</ele>
<time>2010-10-09T12:50:35Z</time>
<extensions>
<tp1:TrackPointExtension>
<tp1:hr>164</tp1:hr>
</tp1:TrackPointExtension>
</extensions>
</trkpt>
<trkpt lat="52.6803888" lon="13.4212769">
<ele>47.2418213</ele>
<time>2010-10-09T12:50:36Z</time>
<extensions>
<tp1:TrackPointExtension>
<tp1:hr>164</tp1:hr>
</tp1:TrackPointExtension>
</extensions>
</trkpt>
<trkpt lat="52.6804432" lon="13.4203554">
<ele>48.6839600</ele>
<time>2010-10-09T12:50:43Z</time>
<extensions>
<tp1:TrackPointExtension>
<tp1:hr>166</tp1:hr>
</tp1:TrackPointExtension>
</extensions>
</trkpt>
<trkpt lat="52.6804685" lon="13.4198667">
<ele>50.1259766</ele>
<time>2010-10-09T12:50:47Z</time>
<extensions>
<tp1:TrackPointExtension>
<tp1:hr>167</tp1:hr>
</tp1:TrackPointExtension>
</extensions>
</trkpt>
<trkpt lat="52.6802924" lon="13.4193528">
<ele>49.1645508</ele>
<time>2010-10-09T12:50:51Z</time>
<extensions>
<tp1:TrackPointExtension>
<tp1:hr>168</tp1:hr>
</tp1:TrackPointExtension>
</extensions>
</trkpt>
<trkpt lat="52.6802347" lon="13.4192433">
<ele>47.7225342</ele>
<time>2010-10-09T12:50:52Z</time>
<extensions>
<tp1:TrackPointExtension>
<tp1:hr>168</tp1:hr>
</tp1:TrackPointExtension>
</extensions>
</trkpt>
<trkpt lat="52.6798065" lon="13.4183885">
<ele>44.3580322</ele>
<time>2010-10-09T12:51:00Z</time>
<extensions>
<tp1:TrackPointExtension>
<tp1:hr>168</tp1:hr>
</tp1:TrackPointExtension>
</extensions>
</trkpt>
<trkpt lat="52.6793610" lon="13.4174495">
<ele>40.9934082</ele>
<time>2010-10-09T12:51:09Z</time>
<extensions>
<tp1:TrackPointExtension>
<tp1:hr>167</tp1:hr>
</tp1:TrackPointExtension>
</extensions>
</trkpt>
<trkpt lat="52.6790035" lon="13.4167112">
<ele>38.5900879</ele>
<time>2010-10-09T12:51:16Z</time>
<extensions>
<tp1:TrackPointExtension>
<tp1:hr>167</tp1:hr>
</tp1:TrackPointExtension>
</extensions>
</trkpt>
<trkpt lat="52.6787347" lon="13.4161605">
<ele>38.5900879</ele>
<time>2010-10-09T12:51:21Z</time>
<extensions>
<tp1:TrackPointExtension>
<tp1:hr>167</tp1:hr>
</tp1:TrackPointExtension>
</extensions>
</trkpt>
<trkpt lat="52.6784669" lon="13.4156173">
<ele>38.1093750</ele>
<time>2010-10-09T12:51:26Z</time>
<extensions>
<tp1:TrackPointExtension>
<tp1:hr>166</tp1:hr>
</tp1:TrackPointExtension>
</extensions>
</trkpt>
<trkpt lat="52.6781475" lon="13.4149572">
<ele>35.7060547</ele>
<time>2010-10-09T12:51:32Z</time>
<extensions>
<tp1:TrackPointExtension>
<tp1:hr>165</tp1:hr>
</tp1:TrackPointExtension>
</extensions>
</trkpt>
<trkpt lat="52.6778272" lon="13.4142745">
<ele>36.1867676</ele>
<time>2010-10-09T12:51:38Z</time>
<extensions>
<tp1:TrackPointExtension>
<tp1:hr>165</tp1:hr>
</tp1:TrackPointExtension>
</extensions>
</trkpt>
<trkpt lat="52.6774090" lon="13.4133722">
<ele>34.7448730</ele>
<time>2010-10-09T12:51:46Z</time>
<extensions>
<tp1:TrackPointExtension>
<tp1:hr>167</tp1:hr>
</tp1:TrackPointExtension>
</extensions>
</trkpt>
<trkpt lat="52.6769967" lon="13.4124990">
<ele>33.3028564</ele>
<time>2010-10-09T12:51:54Z</time>
<extensions>
<tp1:TrackPointExtension>
<tp1:hr>168</tp1:hr>
</tp1:TrackPointExtension>
</extensions>
</trkpt>
<trkpt lat="52.6764364" lon="13.4113058">
<ele>30.8995361</ele>
<time>2010-10-09T12:52:05Z</time>
<extensions>
<tp1:TrackPointExtension>
<tp1:hr>170</tp1:hr>
</tp1:TrackPointExtension>
</extensions>
</trkpt>
<trkpt lat="52.6760309" lon="13.4104645">
<ele>28.0155029</ele>
<time>2010-10-09T12:52:13Z</time>
<extensions>
<tp1:TrackPointExtension>
<tp1:hr>169</tp1:hr>
</tp1:TrackPointExtension>
</extensions>
</trkpt>
<trkpt lat="52.6757329" lon="13.4098180">
<ele>27.0543213</ele>
<time>2010-10-09T12:52:19Z</time>
<extensions>
<tp1:TrackPointExtension>
<tp1:hr>170</tp1:hr>
</tp1:TrackPointExtension>
</extensions>
</trkpt>
<trkpt lat="52.6756334" lon="13.4096186">
<ele>26.0928955</ele>
<time>2010-10-09T12:52:21Z</time>
<extensions>
<tp1:TrackPointExtension>
<tp1:hr>171</tp1:hr>
</tp1:TrackPointExtension>
</extensions>
</trkpt>
<trkpt lat="52.6753325" lon="13.4090284">
<ele>24.6510010</ele>
<time>2010-10-09T12:52:27Z</time>
<extensions>
<tp1:TrackPointExtension>
<tp1:hr>172</tp1:hr>
</tp1:TrackPointExtension>
</extensions>
</trkpt>
<trkpt lat="52.6752896" lon="13.4089240">
<ele>23.2089844</ele>
<time>2010-10-09T12:52:28Z</time>
<extensions>
<tp1:TrackPointExtension>
<tp1:hr>172</tp1:hr>
</tp1:TrackPointExtension>
</extensions>
</trkpt>
<trkpt lat="52.6749927" lon="13.4082996">
<ele>23.2089844</ele>
<time>2010-10-09T12:52:34Z</time>
<extensions>
<tp1:TrackPointExtension>
<tp1:hr>173</tp1:hr>
</tp1:TrackPointExtension>
</extensions>
</trkpt>
<trkpt lat="52.6746933" lon="13.4076631">
<ele>22.2475586</ele>
<time>2010-10-09T12:52:40Z</time>
<extensions>
<tp1:TrackPointExtension>
<tp1:hr>173</tp1:hr>
</tp1:TrackPointExtension>
</extensions>
</trkpt>
<trkpt lat="52.6743515" lon="13.4069144">
<ele>22.2475586</ele>
<time>2010-10-09T12:52:47Z</time>
<extensions>
<tp1:TrackPointExtension>
<tp1:hr>172</tp1:hr>
</tp1:TrackPointExtension>
</extensions>
</trkpt>
<trkpt lat="52.6740438" lon="13.4062985">
<ele>22.7282715</ele>
<time>2010-10-09T12:52:53Z</time>
<extensions>
<tp1:TrackPointExtension>
<tp1:hr>171</tp1:hr>
</tp1:TrackPointExtension>
</extensions>
</trkpt>
<trkpt lat="52.6736803" lon="13.4054879">
<ele>27.5349121</ele>
<time>2010-10-09T12:53:00Z</time>
<extensions>
<tp1:TrackPointExtension>
<tp1:hr>171</tp1:hr>
</tp1:TrackPointExtension>
</extensions>
</trkpt>
<trkpt lat="52.6733013" lon="13.4046733">
<ele>33.3028564</ele>
<time>2010-10-09T12:53:07Z</time>
<extensions>
<tp1:TrackPointExtension>
<tp1:hr>170</tp1:hr>
</tp1:TrackPointExtension>
</extensions>
</trkpt>
<trkpt lat="52.6729575" lon="13.4038412">
<ele>33.7834473</ele>
<time>2010-10-09T12:53:14Z</time>
<extensions>
<tp1:TrackPointExtension>
<tp1:hr>170</tp1:hr>
</tp1:TrackPointExtension>
</extensions>
</trkpt>
<trkpt lat="52.6727626" lon="13.4030661">
<ele>32.8222656</ele>
<time>2010-10-09T12:53:20Z</time>
<extensions>
<tp1:TrackPointExtension>
<tp1:hr>169</tp1:hr>
</tp1:TrackPointExtension>
</extensions>
</trkpt>
<trkpt lat="52.6726786" lon="13.4023790">
<ele>32.8222656</ele>
<time>2010-10-09T12:53:25Z</time>
<extensions>
<tp1:TrackPointExtension>
<tp1:hr>168</tp1:hr>
</tp1:TrackPointExtension>
</extensions>
</trkpt>
<trkpt lat="52.6726233" lon="13.4012667">
<ele>32.8222656</ele>
<time>2010-10-09T12:53:33Z</time>
<extensions>
<tp1:TrackPointExtension>
<tp1:hr>167</tp1:hr>
</tp1:TrackPointExtension>
</extensions>
</trkpt>
<trkpt lat="52.6725878" lon="13.4002137">
<ele>34.2641602</ele>
<time>2010-10-09T12:53:41Z</time>
<extensions>
<tp1:TrackPointExtension>
<tp1:hr>166</tp1:hr>
</tp1:TrackPointExtension>
</extensions>
</trkpt>
<trkpt lat="52.6725847" lon="13.4000288">
<ele>36.1867676</ele>
<time>2010-10-09T12:53:42Z</time>
<extensions>
<tp1:TrackPointExtension>
<tp1:hr>166</tp1:hr>
</tp1:TrackPointExtension>
</extensions>
</trkpt>
<trkpt lat="52.6725083" lon="13.3990009">
<ele>37.1480713</ele>
<time>2010-10-09T12:53:50Z</time>
<extensions>
<tp1:TrackPointExtension>
<tp1:hr>166</tp1:hr>
</tp1:TrackPointExtension>
</extensions>
</trkpt>
<trkpt lat="52.6723573" lon="13.3981317">
<ele>36.1867676</ele>
<time>2010-10-09T12:53:57Z</time>
<extensions>
<tp1:TrackPointExtension>
<tp1:hr>166</tp1:hr>
</tp1:TrackPointExtension>
</extensions>
</trkpt>
<trkpt lat="52.6721669" lon="13.3976894">
<ele>35.7060547</ele>
<time>2010-10-09T12:54:01Z</time>
<extensions>
<tp1:TrackPointExtension>
<tp1:hr>165</tp1:hr>
</tp1:TrackPointExtension>
</extensions>
</trkpt>
<trkpt lat="52.6714861" lon="13.3966780">
<ele>34.2641602</ele>
<time>2010-10-09T12:54:12Z</time>
<extensions>
<tp1:TrackPointExtension>
<tp1:hr>164</tp1:hr>
</tp1:TrackPointExtension>
</extensions>
</trkpt>
<trkpt lat="52.6710672" lon="13.3960306">
<ele>33.7834473</ele>
<time>2010-10-09T12:54:19Z</time>
<extensions>
<tp1:TrackPointExtension>
<tp1:hr>163</tp1:hr>
</tp1:TrackPointExtension>
</extensions>
</trkpt>
<trkpt lat="52.6706542" lon="13.3950843">
<ele>33.7834473</ele>
<time>2010-10-09T12:54:28Z</time>
<extensions>
<tp1:TrackPointExtension>
<tp1:hr>163</tp1:hr>
</tp1:TrackPointExtension>
</extensions>
</trkpt>
<trkpt lat="52.6705683" lon="13.3948770">
<ele>34.7448730</ele>
<time>2010-10-09T12:54:30Z</time>
<extensions>
<tp1:TrackPointExtension>
<tp1:hr>163</tp1:hr>
</tp1:TrackPointExtension>
</extensions>
</trkpt>
<trkpt lat="52.6704248" lon="13.3944585">
<ele>36.1867676</ele>
<time>2010-10-09T12:54:34Z</time>
<extensions>
<tp1:TrackPointExtension>
<tp1:hr>163</tp1:hr>
</tp1:TrackPointExtension>
</extensions>
</trkpt>
<trkpt lat="52.6700694" lon="13.3936332">
<ele>37.6286621</ele>
<time>2010-10-09T12:54:43Z</time>
<extensions>
<tp1:TrackPointExtension>
<tp1:hr>165</tp1:hr>
</tp1:TrackPointExtension>
</extensions>
</trkpt>
<trkpt lat="52.6695492" lon="13.3924362">
<ele>39.0706787</ele>
<time>2010-10-09T12:54:56Z</time>
<extensions>
<tp1:TrackPointExtension>
<tp1:hr>166</tp1:hr>
</tp1:TrackPointExtension>
</extensions>
</trkpt>
<trkpt lat="52.6692961" lon="13.3919047">
<ele>39.5512695</ele>
<time>2010-10-09T12:55:02Z</time>
<extensions>
<tp1:TrackPointExtension>
<tp1:hr>166</tp1:hr>
</tp1:TrackPointExtension>
</extensions>
</trkpt>
<trkpt lat="52.6689614" lon="13.3913236">
<ele>40.0321045</ele>
<time>2010-10-09T12:55:09Z</time>
<extensions>
<tp1:TrackPointExtension>
<tp1:hr>166</tp1:hr>
</tp1:TrackPointExtension>
</extensions>
</trkpt>
<trkpt lat="52.6685559" lon="13.3906865">
<ele>40.0321045</ele>
<time>2010-10-09T12:55:17Z</time>
<extensions>
<tp1:TrackPointExtension>
<tp1:hr>165</tp1:hr>
</tp1:TrackPointExtension>
</extensions>
</trkpt>
<trkpt lat="52.6681411" lon="13.3900548">
<ele>40.5128174</ele>
<time>2010-10-09T12:55:25Z</time>
<extensions>
<tp1:TrackPointExtension>
<tp1:hr>166</tp1:hr>
</tp1:TrackPointExtension>
</extensions>
</trkpt>
<trkpt lat="52.6677493" lon="13.3895820">
<ele>40.9934082</ele>
<time>2010-10-09T12:55:32Z</time>
<extensions>
<tp1:TrackPointExtension>
<tp1:hr>165</tp1:hr>
</tp1:TrackPointExtension>
</extensions>
</trkpt>
<trkpt lat="52.6673153" lon="13.3891878">
<ele>41.9547119</ele>
<time>2010-10-09T12:55:39Z</time>
<extensions>
<tp1:TrackPointExtension>
<tp1:hr>164</tp1:hr>
</tp1:TrackPointExtension>
</extensions>
</trkpt>
<trkpt lat="52.6668734" lon="13.3888519">
<ele>41.9547119</ele>
<time>2010-10-09T12:55:46Z</time>
<extensions>
<tp1:TrackPointExtension>
<tp1:hr>164</tp1:hr>
</tp1:TrackPointExtension>
</extensions>
</trkpt>
<trkpt lat="52.6662225" lon="13.3883035">
<ele>40.9934082</ele>
<time>2010-10-09T12:55:56Z</time>
<extensions>
<tp1:TrackPointExtension>
<tp1:hr>163</tp1:hr>
</tp1:TrackPointExtension>
</extensions>
</trkpt>
<trkpt lat="52.6655408" lon="13.3877057">
<ele>39.5512695</ele>
<time>2010-10-09T12:56:06Z</time>
<extensions>
<tp1:TrackPointExtension>
<tp1:hr>159</tp1:hr>
</tp1:TrackPointExtension>
</extensions>
</trkpt>
<trkpt lat="52.6653369" lon="13.3873179">
<ele>39.5512695</ele>
<time>2010-10-09T12:56:10Z</time>
<extensions>
<tp1:TrackPointExtension>
<tp1:hr>158</tp1:hr>
</tp1:TrackPointExtension>
</extensions>
</trkpt>
<trkpt lat="52.6653146" lon="13.3871940">
<ele>39.5512695</ele>
<time>2010-10-09T12:56:11Z</time>
<extensions>
<tp1:TrackPointExtension>
<tp1:hr>158</tp1:hr>
</tp1:TrackPointExtension>
</extensions>
</trkpt>
<trkpt lat="52.6652596" lon="13.3863295">
<ele>40.5128174</ele>
<time>2010-10-09T12:56:18Z</time>
<extensions>
<tp1:TrackPointExtension>
<tp1:hr>156</tp1:hr>
</tp1:TrackPointExtension>
</extensions>
</trkpt>
<trkpt lat="52.6652349" lon="13.3855331">
<ele>39.0706787</ele>
<time>2010-10-09T12:56:24Z</time>
<extensions>
<tp1:TrackPointExtension>
<tp1:hr>155</tp1:hr>
</tp1:TrackPointExtension>
</extensions>
</trkpt>
<trkpt lat="52.6652526" lon="13.3846977">
<ele>38.5900879</ele>
<time>2010-10-09T12:56:30Z</time>
<extensions>
<tp1:TrackPointExtension>
<tp1:hr>153</tp1:hr>
</tp1:TrackPointExtension>
</extensions>
</trkpt>
<trkpt lat="52.6653691" lon="13.3842071">
<ele>38.5900879</ele>
<time>2010-10-09T12:56:34Z</time>
<extensions>
<tp1:TrackPointExtension>
<tp1:hr>150</tp1:hr>
</tp1:TrackPointExtension>
</extensions>
</trkpt>
<trkpt lat="52.6653462" lon="13.3836977">
<ele>38.1093750</ele>
<time>2010-10-09T12:56:38Z</time>
<extensions>
<tp1:TrackPointExtension>
<tp1:hr>148</tp1:hr>
</tp1:TrackPointExtension>
</extensions>
</trkpt>
<trkpt lat="52.6652427" lon="13.3834952">
<ele>37.6286621</ele>
<time>2010-10-09T12:56:40Z</time>
<extensions>
<tp1:TrackPointExtension>
<tp1:hr>149</tp1:hr>
</tp1:TrackPointExtension>
</extensions>
</trkpt>
<trkpt lat="52.6649785" lon="13.3830146">
<ele>36.6674805</ele>
<time>2010-10-09T12:56:45Z</time>
<extensions>
<tp1:TrackPointExtension>
<tp1:hr>149</tp1:hr>
</tp1:TrackPointExtension>
</extensions>
</trkpt>
<trkpt lat="52.6648624" lon="13.3825686">
<ele>36.6674805</ele>
<time>2010-10-09T12:56:49Z</time>
<extensions>
<tp1:TrackPointExtension>
<tp1:hr>149</tp1:hr>
</tp1:TrackPointExtension>
</extensions>
</trkpt>
<trkpt lat="52.6648863" lon="13.3822204">
<ele>37.1480713</ele>
<time>2010-10-09T12:56:52Z</time>
<extensions>
<tp1:TrackPointExtension>
<tp1:hr>149</tp1:hr>
</tp1:TrackPointExtension>
</extensions>
</trkpt>
<trkpt lat="52.6650275" lon="13.3816600">
<ele>38.1093750</ele>
<time>2010-10-09T12:56:57Z</time>
<extensions>
<tp1:TrackPointExtension>
<tp1:hr>151</tp1:hr>
</tp1:TrackPointExtension>
</extensions>
</trkpt>
<trkpt lat="52.6651798" lon="13.3811714">
<ele>38.5900879</ele>
<time>2010-10-09T12:57:02Z</time>
<extensions>
<tp1:TrackPointExtension>
<tp1:hr>154</tp1:hr>
</tp1:TrackPointExtension>
</extensions>
</trkpt>
<trkpt lat="52.6652878" lon="13.3805088">
<ele>39.0706787</ele>
<time>2010-10-09T12:57:08Z</time>
<extensions>
<tp1:TrackPointExtension>
<tp1:hr>156</tp1:hr>
</tp1:TrackPointExtension>
</extensions>
</trkpt>
<trkpt lat="52.6653941" lon="13.3797407">
<ele>40.0321045</ele>
<time>2010-10-09T12:57:15Z</time>
<extensions>
<tp1:TrackPointExtension>
<tp1:hr>157</tp1:hr>
</tp1:TrackPointExtension>
</extensions>
</trkpt>
<trkpt lat="52.6654577" lon="13.3790555">
<ele>39.5512695</ele>
<time>2010-10-09T12:57:22Z</time>
<extensions>
<tp1:TrackPointExtension>
<tp1:hr>157</tp1:hr>
</tp1:TrackPointExtension>
</extensions>
</trkpt>
<trkpt lat="52.6654649" lon="13.3789310">
<ele>39.0706787</ele>
<time>2010-10-09T12:57:25Z</time>
<extensions>
<tp1:TrackPointExtension>
<tp1:hr>156</tp1:hr>
</tp1:TrackPointExtension>
</extensions>
</trkpt>
<trkpt lat="52.6654471" lon="13.3788829">
<ele>39.0706787</ele>
<time>2010-10-09T12:57:31Z</time>
<extensions>
<tp1:TrackPointExtension>
<tp1:hr>154</tp1:hr>
</tp1:TrackPointExtension>
</extensions>
</trkpt>
<trkpt lat="52.6654372" lon="13.3788654">
<ele>39.0706787</ele>
<time>2010-10-09T12:57:32Z</time>
<extensions>
<tp1:TrackPointExtension>
<tp1:hr>154</tp1:hr>
</tp1:TrackPointExtension>
</extensions>
</trkpt>
<trkpt lat="52.6652982" lon="13.3787550">
<ele>39.5512695</ele>
<time>2010-10-09T12:57:37Z</time>
<extensions>
<tp1:TrackPointExtension>
<tp1:hr>153</tp1:hr>
</tp1:TrackPointExtension>
</extensions>
</trkpt>
<trkpt lat="52.6649822" lon="13.3786815">
<ele>39.5512695</ele>
<time>2010-10-09T12:57:43Z</time>
<extensions>
<tp1:TrackPointExtension>
<tp1:hr>151</tp1:hr>
</tp1:TrackPointExtension>
</extensions>
</trkpt>
<trkpt lat="52.6644657" lon="13.3785866">
<ele>39.0706787</ele>
<time>2010-10-09T12:57:51Z</time>
<extensions>
<tp1:TrackPointExtension>
<tp1:hr>150</tp1:hr>
</tp1:TrackPointExtension>
</extensions>
</trkpt>
<trkpt lat="52.6639306" lon="13.3785262">
<ele>39.0706787</ele>
<time>2010-10-09T12:57:59Z</time>
<extensions>
<tp1:TrackPointExtension>
<tp1:hr>151</tp1:hr>
</tp1:TrackPointExtension>
</extensions>
</trkpt>
<trkpt lat="52.6633743" lon="13.3784637">
<ele>39.5512695</ele>
<time>2010-10-09T12:58:07Z</time>
<extensions>
<tp1:TrackPointExtension>
<tp1:hr>153</tp1:hr>
</tp1:TrackPointExtension>
</extensions>
</trkpt>
<trkpt lat="52.6629646" lon="13.3784078">
<ele>41.9547119</ele>
<time>2010-10-09T12:58:13Z</time>
<extensions>
<tp1:TrackPointExtension>
<tp1:hr>153</tp1:hr>
</tp1:TrackPointExtension>
</extensions>
</trkpt>
<trkpt lat="52.6625963" lon="13.3783509">
<ele>42.4354248</ele>
<time>2010-10-09T12:58:18Z</time>
<extensions>
<tp1:TrackPointExtension>
<tp1:hr>154</tp1:hr>
</tp1:TrackPointExtension>
</extensions>
</trkpt>
<trkpt lat="52.6623656" lon="13.3782313">
<ele>42.9160156</ele>
<time>2010-10-09T12:58:23Z</time>
<extensions>
<tp1:TrackPointExtension>
<tp1:hr>154</tp1:hr>
</tp1:TrackPointExtension>
</extensions>
</trkpt>
<trkpt lat="52.6623496" lon="13.3782182">
<ele>43.3966064</ele>
<time>2010-10-09T12:58:24Z</time>
<extensions>
<tp1:TrackPointExtension>
<tp1:hr>153</tp1:hr>
</tp1:TrackPointExtension>
</extensions>
</trkpt>
<trkpt lat="52.6623107" lon="13.3781593">
<ele>42.9160156</ele>
<time>2010-10-09T12:58:30Z</time>
<extensions>
<tp1:TrackPointExtension>
<tp1:hr>151</tp1:hr>
</tp1:TrackPointExtension>
</extensions>
</trkpt>
<trkpt lat="52.6623060" lon="13.3781588">
<ele>42.9160156</ele>
<time>2010-10-09T12:58:33Z</time>
<extensions>
<tp1:TrackPointExtension>
<tp1:hr>151</tp1:hr>
</tp1:TrackPointExtension>
</extensions>
</trkpt>
<trkpt lat="52.6622427" lon="13.3781090">
<ele>41.9547119</ele>
<time>2010-10-09T12:58:37Z</time>
<extensions>
<tp1:TrackPointExtension>
<tp1:hr>151</tp1:hr>
</tp1:TrackPointExtension>
</extensions>
</trkpt>
<trkpt lat="52.6620429" lon="13.3778939">
<ele>42.9160156</ele>
<time>2010-10-09T12:58:43Z</time>
<extensions>
<tp1:TrackPointExtension>
<tp1:hr>151</tp1:hr>
</tp1:TrackPointExtension>
</extensions>
</trkpt>
<trkpt lat="52.6617705" lon="13.3776092">
<ele>43.8773193</ele>
<time>2010-10-09T12:58:49Z</time>
<extensions>
<tp1:TrackPointExtension>
<tp1:hr>151</tp1:hr>
</tp1:TrackPointExtension>
</extensions>
</trkpt>
<trkpt lat="52.6613389" lon="13.3772175">
<ele>44.3580322</ele>
<time>2010-10-09T12:58:57Z</time>
<extensions>
<tp1:TrackPointExtension>
<tp1:hr>153</tp1:hr>
</tp1:TrackPointExtension>
</extensions>
</trkpt>
<trkpt lat="52.6608526" lon="13.3769600">
<ele>42.4354248</ele>
<time>2010-10-09T12:59:05Z</time>
<extensions>
<tp1:TrackPointExtension>
<tp1:hr>156</tp1:hr>
</tp1:TrackPointExtension>
</extensions>
</trkpt>
<trkpt lat="52.6606883" lon="13.3768960">
<ele>42.4354248</ele>
<time>2010-10-09T12:59:08Z</time>
<extensions>
<tp1:TrackPointExtension>
<tp1:hr>156</tp1:hr>
</tp1:TrackPointExtension>
</extensions>
</trkpt>
<trkpt lat="52.6605356" lon="13.3768331">
<ele>41.9547119</ele>
<time>2010-10-09T12:59:13Z</time>
<extensions>
<tp1:TrackPointExtension>
<tp1:hr>156</tp1:hr>
</tp1:TrackPointExtension>
</extensions>
</trkpt>
<trkpt lat="52.6603340" lon="13.3767220">
<ele>42.4354248</ele>
<time>2010-10-09T12:59:19Z</time>
<extensions>
<tp1:TrackPointExtension>
<tp1:hr>157</tp1:hr>
</tp1:TrackPointExtension>
</extensions>
</trkpt>
<trkpt lat="52.6599176" lon="13.3766078">
<ele>42.4354248</ele>
<time>2010-10-09T12:59:26Z</time>
<extensions>
<tp1:TrackPointExtension>
<tp1:hr>158</tp1:hr>
</tp1:TrackPointExtension>
</extensions>
</trkpt>
<trkpt lat="52.6592657" lon="13.3764038">
<ele>43.3966064</ele>
<time>2010-10-09T12:59:36Z</time>
<extensions>
<tp1:TrackPointExtension>
<tp1:hr>162</tp1:hr>
</tp1:TrackPointExtension>
</extensions>
</trkpt>
<trkpt lat="52.6587205" lon="13.3762392">
<ele>43.3966064</ele>
<time>2010-10-09T12:59:44Z</time>
<extensions>
<tp1:TrackPointExtension>
<tp1:hr>162</tp1:hr>
</tp1:TrackPointExtension>
</extensions>
</trkpt>
<trkpt lat="52.6585183" lon="13.3762303">
<ele>43.3966064</ele>
<time>2010-10-09T12:59:47Z</time>
<extensions>
<tp1:TrackPointExtension>
<tp1:hr>162</tp1:hr>
</tp1:TrackPointExtension>
</extensions>
</trkpt>
<trkpt lat="52.6582734" lon="13.3763397">
<ele>43.8773193</ele>
<time>2010-10-09T12:59:51Z</time>
<extensions>
<tp1:TrackPointExtension>
<tp1:hr>161</tp1:hr>
</tp1:TrackPointExtension>
</extensions>
</trkpt>
<trkpt lat="52.6578776" lon="13.3765431">
<ele>42.9160156</ele>
<time>2010-10-09T12:59:57Z</time>
<extensions>
<tp1:TrackPointExtension>
<tp1:hr>160</tp1:hr>
</tp1:TrackPointExtension>
</extensions>
</trkpt>
<trkpt lat="52.6574315" lon="13.3767483">
<ele>41.9547119</ele>
<time>2010-10-09T13:00:03Z</time>
<extensions>
<tp1:TrackPointExtension>
<tp1:hr>161</tp1:hr>
</tp1:TrackPointExtension>
</extensions>
</trkpt>
<trkpt lat="52.6569379" lon="13.3766940">
<ele>40.9934082</ele>
<time>2010-10-09T13:00:09Z</time>
<extensions>
<tp1:TrackPointExtension>
<tp1:hr>161</tp1:hr>
</tp1:TrackPointExtension>
</extensions>
</trkpt>
<trkpt lat="52.6565473" lon="13.3764875">
<ele>41.4739990</ele>
<time>2010-10-09T13:00:14Z</time>
<extensions>
<tp1:TrackPointExtension>
<tp1:hr>160</tp1:hr>
</tp1:TrackPointExtension>
</extensions>
</trkpt>
<trkpt lat="52.6562161" lon="13.3761268">
<ele>41.9547119</ele>
<time>2010-10-09T13:00:19Z</time>
<extensions>
<tp1:TrackPointExtension>
<tp1:hr>160</tp1:hr>
</tp1:TrackPointExtension>
</extensions>
</trkpt>
<trkpt lat="52.6561059" lon="13.3759475">
<ele>41.9547119</ele>
<time>2010-10-09T13:00:21Z</time>
<extensions>
<tp1:TrackPointExtension>
<tp1:hr>160</tp1:hr>
</tp1:TrackPointExtension>
</extensions>
</trkpt>
<trkpt lat="52.6556761" lon="13.3754518">
<ele>41.9547119</ele>
<time>2010-10-09T13:00:28Z</time>
<extensions>
<tp1:TrackPointExtension>
<tp1:hr>161</tp1:hr>
</tp1:TrackPointExtension>
</extensions>
</trkpt>
<trkpt lat="52.6552450" lon="13.3752405">
<ele>41.4739990</ele>
<time>2010-10-09T13:00:34Z</time>
<extensions>
<tp1:TrackPointExtension>
<tp1:hr>164</tp1:hr>
</tp1:TrackPointExtension>
</extensions>
</trkpt>
<trkpt lat="52.6547166" lon="13.3751621">
<ele>40.9934082</ele>
<time>2010-10-09T13:00:41Z</time>
<extensions>
<tp1:TrackPointExtension>
<tp1:hr>164</tp1:hr>
</tp1:TrackPointExtension>
</extensions>
</trkpt>
<trkpt lat="52.6540270" lon="13.3750982">
<ele>39.5512695</ele>
<time>2010-10-09T13:00:50Z</time>
<extensions>
<tp1:TrackPointExtension>
<tp1:hr>164</tp1:hr>
</tp1:TrackPointExtension>
</extensions>
</trkpt>
<trkpt lat="52.6534249" lon="13.3751756">
<ele>39.0706787</ele>
<time>2010-10-09T13:00:58Z</time>
<extensions>
<tp1:TrackPointExtension>
<tp1:hr>164</tp1:hr>
</tp1:TrackPointExtension>
</extensions>
</trkpt>
<trkpt lat="52.6529147" lon="13.3752640">
<ele>38.5900879</ele>
<time>2010-10-09T13:01:05Z</time>
<extensions>
<tp1:TrackPointExtension>
<tp1:hr>165</tp1:hr>
</tp1:TrackPointExtension>
</extensions>
</trkpt>
<trkpt lat="52.6522765" lon="13.3753849">
<ele>36.1867676</ele>
<time>2010-10-09T13:01:13Z</time>
<extensions>
<tp1:TrackPointExtension>
<tp1:hr>164</tp1:hr>
</tp1:TrackPointExtension>
</extensions>
</trkpt>
<trkpt lat="52.6516351" lon="13.3754879">
<ele>35.7060547</ele>
<time>2010-10-09T13:01:21Z</time>
<extensions>
<tp1:TrackPointExtension>
<tp1:hr>163</tp1:hr>
</tp1:TrackPointExtension>
</extensions>
</trkpt>
<trkpt lat="52.6507804" lon="13.3756309">
<ele>35.2254639</ele>
<time>2010-10-09T13:01:32Z</time>
<extensions>
<tp1:TrackPointExtension>
<tp1:hr>163</tp1:hr>
</tp1:TrackPointExtension>
</extensions>
</trkpt>
<trkpt lat="52.6500521" lon="13.3757490">
<ele>34.2641602</ele>
<time>2010-10-09T13:01:41Z</time>
<extensions>
<tp1:TrackPointExtension>
<tp1:hr>163</tp1:hr>
</tp1:TrackPointExtension>
</extensions>
</trkpt>
<trkpt lat="52.6494676" lon="13.3758583">
<ele>34.7448730</ele>
<time>2010-10-09T13:01:48Z</time>
<extensions>
<tp1:TrackPointExtension>
<tp1:hr>163</tp1:hr>
</tp1:TrackPointExtension>
</extensions>
</trkpt>
<trkpt lat="52.6489201" lon="13.3759474">
<ele>37.1480713</ele>
<time>2010-10-09T13:01:55Z</time>
<extensions>
<tp1:TrackPointExtension>
<tp1:hr>163</tp1:hr>
</tp1:TrackPointExtension>
</extensions>
</trkpt>
<trkpt lat="52.6483131" lon="13.3760427">
<ele>39.5512695</ele>
<time>2010-10-09T13:02:03Z</time>
<extensions>
<tp1:TrackPointExtension>
<tp1:hr>164</tp1:hr>
</tp1:TrackPointExtension>
</extensions>
</trkpt>
<trkpt lat="52.6477973" lon="13.3761251">
<ele>39.0706787</ele>
<time>2010-10-09T13:02:10Z</time>
<extensions>
<tp1:TrackPointExtension>
<tp1:hr>165</tp1:hr>
</tp1:TrackPointExtension>
</extensions>
</trkpt>
<trkpt lat="52.6471881" lon="13.3762919">
<ele>37.6286621</ele>
<time>2010-10-09T13:02:18Z</time>
<extensions>
<tp1:TrackPointExtension>
<tp1:hr>164</tp1:hr>
</tp1:TrackPointExtension>
</extensions>
</trkpt>
<trkpt lat="52.6470555" lon="13.3763779">
<ele>37.6286621</ele>
<time>2010-10-09T13:02:20Z</time>
<extensions>
<tp1:TrackPointExtension>
<tp1:hr>164</tp1:hr>
</tp1:TrackPointExtension>
</extensions>
</trkpt>
<trkpt lat="52.6467740" lon="13.3764313">
<ele>37.1480713</ele>
<time>2010-10-09T13:02:24Z</time>
<extensions>
<tp1:TrackPointExtension>
<tp1:hr>163</tp1:hr>
</tp1:TrackPointExtension>
</extensions>
</trkpt>
<trkpt lat="52.6465514" lon="13.3763991">
<ele>37.6286621</ele>
<time>2010-10-09T13:02:27Z</time>
<extensions>
<tp1:TrackPointExtension>
<tp1:hr>163</tp1:hr>
</tp1:TrackPointExtension>
</extensions>
</trkpt>
<trkpt lat="52.6460230" lon="13.3764623">
<ele>38.1093750</ele>
<time>2010-10-09T13:02:34Z</time>
<extensions>
<tp1:TrackPointExtension>
<tp1:hr>164</tp1:hr>
</tp1:TrackPointExtension>
</extensions>
</trkpt>
<trkpt lat="52.6453963" lon="13.3765747">
<ele>37.6286621</ele>
<time>2010-10-09T13:02:42Z</time>
<extensions>
<tp1:TrackPointExtension>
<tp1:hr>163</tp1:hr>
</tp1:TrackPointExtension>
</extensions>
</trkpt>
<trkpt lat="52.6447751" lon="13.3766168">
<ele>37.6286621</ele>
<time>2010-10-09T13:02:50Z</time>
<extensions>
<tp1:TrackPointExtension>
<tp1:hr>162</tp1:hr>
</tp1:TrackPointExtension>
</extensions>
</trkpt>
<trkpt lat="52.6442249" lon="13.3766295">
<ele>36.1867676</ele>
<time>2010-10-09T13:02:57Z</time>
<extensions>
<tp1:TrackPointExtension>
<tp1:hr>161</tp1:hr>
</tp1:TrackPointExtension>
</extensions>
</trkpt>
<trkpt lat="52.6435242" lon="13.3765912">
<ele>34.7448730</ele>
<time>2010-10-09T13:03:06Z</time>
<extensions>
<tp1:TrackPointExtension>
<tp1:hr>162</tp1:hr>
</tp1:TrackPointExtension>
</extensions>
</trkpt>
<trkpt lat="52.6429040" lon="13.3765036">
<ele>33.7834473</ele>
<time>2010-10-09T13:03:14Z</time>
<extensions>
<tp1:TrackPointExtension>
<tp1:hr>162</tp1:hr>
</tp1:TrackPointExtension>
</extensions>
</trkpt>
<trkpt lat="52.6422887" lon="13.3764135">
<ele>33.7834473</ele>
<time>2010-10-09T13:03:22Z</time>
<extensions>
<tp1:TrackPointExtension>
<tp1:hr>163</tp1:hr>
</tp1:TrackPointExtension>
</extensions>
</trkpt>
<trkpt lat="52.6417479" lon="13.3763321">
<ele>32.8222656</ele>
<time>2010-10-09T13:03:29Z</time>
<extensions>
<tp1:TrackPointExtension>
<tp1:hr>164</tp1:hr>
</tp1:TrackPointExtension>
</extensions>
</trkpt>
<trkpt lat="52.6411954" lon="13.3762739">
<ele>32.8222656</ele>
<time>2010-10-09T13:03:36Z</time>
<extensions>
<tp1:TrackPointExtension>
<tp1:hr>164</tp1:hr>
</tp1:TrackPointExtension>
</extensions>
</trkpt>
<trkpt lat="52.6406574" lon="13.3761278">
<ele>32.3415527</ele>
<time>2010-10-09T13:03:43Z</time>
<extensions>
<tp1:TrackPointExtension>
<tp1:hr>163</tp1:hr>
</tp1:TrackPointExtension>
</extensions>
</trkpt>
<trkpt lat="52.6401302" lon="13.3759381">
<ele>32.3415527</ele>
<time>2010-10-09T13:03:50Z</time>
<extensions>
<tp1:TrackPointExtension>
<tp1:hr>162</tp1:hr>
</tp1:TrackPointExtension>
</extensions>
</trkpt>
<trkpt lat="52.6395888" lon="13.3757620">
<ele>31.3801270</ele>
<time>2010-10-09T13:03:57Z</time>
<extensions>
<tp1:TrackPointExtension>
<tp1:hr>160</tp1:hr>
</tp1:TrackPointExtension>
</extensions>
</trkpt>
<trkpt lat="52.6390905" lon="13.3756971">
<ele>30.8995361</ele>
<time>2010-10-09T13:04:03Z</time>
<extensions>
<tp1:TrackPointExtension>
<tp1:hr>158</tp1:hr>
</tp1:TrackPointExtension>
</extensions>
</trkpt>
<trkpt lat="52.6385035" lon="13.3756521">
<ele>30.4188232</ele>
<time>2010-10-09T13:04:10Z</time>
<extensions>
<tp1:TrackPointExtension>
<tp1:hr>157</tp1:hr>
</tp1:TrackPointExtension>
</extensions>
</trkpt>
<trkpt lat="52.6378584" lon="13.3756247">
<ele>29.9381104</ele>
<time>2010-10-09T13:04:18Z</time>
<extensions>
<tp1:TrackPointExtension>
<tp1:hr>160</tp1:hr>
</tp1:TrackPointExtension>
</extensions>
</trkpt>
<trkpt lat="52.6373147" lon="13.3755842">
<ele>30.4188232</ele>
<time>2010-10-09T13:04:25Z</time>
<extensions>
<tp1:TrackPointExtension>
<tp1:hr>160</tp1:hr>
</tp1:TrackPointExtension>
</extensions>
</trkpt>
<trkpt lat="52.6369283" lon="13.3755934">
<ele>30.4188232</ele>
<time>2010-10-09T13:04:31Z</time>
<extensions>
<tp1:TrackPointExtension>
<tp1:hr>158</tp1:hr>
</tp1:TrackPointExtension>
</extensions>
</trkpt>
<trkpt lat="52.6367800" lon="13.3756191">
<ele>30.4188232</ele>
<time>2010-10-09T13:04:35Z</time>
<extensions>
<tp1:TrackPointExtension>
<tp1:hr>157</tp1:hr>
</tp1:TrackPointExtension>
</extensions>
</trkpt>
<trkpt lat="52.6367236" lon="13.3756344">
<ele>30.8995361</ele>
<time>2010-10-09T13:04:41Z</time>
<extensions>
<tp1:TrackPointExtension>
<tp1:hr>156</tp1:hr>
</tp1:TrackPointExtension>
</extensions>
</trkpt>
<trkpt lat="52.6367411" lon="13.3756413">
<ele>30.8995361</ele>
<time>2010-10-09T13:04:49Z</time>
<extensions>
<tp1:TrackPointExtension>
<tp1:hr>154</tp1:hr>
</tp1:TrackPointExtension>
</extensions>
</trkpt>
<trkpt lat="52.6367521" lon="13.3756381">
<ele>31.3801270</ele>
<time>2010-10-09T13:04:55Z</time>
<extensions>
<tp1:TrackPointExtension>
<tp1:hr>152</tp1:hr>
</tp1:TrackPointExtension>
</extensions>
</trkpt>
<trkpt lat="52.6367473" lon="13.3756624">
<ele>31.3801270</ele>
<time>2010-10-09T13:05:08Z</time>
<extensions>
<tp1:TrackPointExtension>
<tp1:hr>147</tp1:hr>
</tp1:TrackPointExtension>
</extensions>
</trkpt>
<trkpt lat="52.6365909" lon="13.3757300">
<ele>30.8995361</ele>
<time>2010-10-09T13:05:13Z</time>
<extensions>
<tp1:TrackPointExtension>
<tp1:hr>144</tp1:hr>
</tp1:TrackPointExtension>
</extensions>
</trkpt>
<trkpt lat="52.6363902" lon="13.3758453">
<ele>30.8995361</ele>
<time>2010-10-09T13:05:17Z</time>
<extensions>
<tp1:TrackPointExtension>
<tp1:hr>145</tp1:hr>
</tp1:TrackPointExtension>
</extensions>
</trkpt>
<trkpt lat="52.6362081" lon="13.3761317">
<ele>30.4188232</ele>
<time>2010-10-09T13:05:21Z</time>
<extensions>
<tp1:TrackPointExtension>
<tp1:hr>146</tp1:hr>
</tp1:TrackPointExtension>
</extensions>
</trkpt>
<trkpt lat="52.6361419" lon="13.3763510">
<ele>30.4188232</ele>
<time>2010-10-09T13:05:23Z</time>
<extensions>
<tp1:TrackPointExtension>
<tp1:hr>148</tp1:hr>
</tp1:TrackPointExtension>
</extensions>
</trkpt>
<trkpt lat="52.6359150" lon="13.3771720">
<ele>30.8995361</ele>
<time>2010-10-09T13:05:30Z</time>
<extensions>
<tp1:TrackPointExtension>
<tp1:hr>154</tp1:hr>
</tp1:TrackPointExtension>
</extensions>
</trkpt>
<trkpt lat="52.6357280" lon="13.3779765">
<ele>32.8222656</ele>
<time>2010-10-09T13:05:37Z</time>
<extensions>
<tp1:TrackPointExtension>
<tp1:hr>155</tp1:hr>
</tp1:TrackPointExtension>
</extensions>
</trkpt>
<trkpt lat="52.6356415" lon="13.3783070">
<ele>34.2641602</ele>
<time>2010-10-09T13:05:40Z</time>
<extensions>
<tp1:TrackPointExtension>
<tp1:hr>155</tp1:hr>
</tp1:TrackPointExtension>
</extensions>
</trkpt>
<trkpt lat="52.6354614" lon="13.3786825">
<ele>34.2641602</ele>
<time>2010-10-09T13:05:44Z</time>
<extensions>
<tp1:TrackPointExtension>
<tp1:hr>155</tp1:hr>
</tp1:TrackPointExtension>
</extensions>
</trkpt>
<trkpt lat="52.6350271" lon="13.3792995">
<ele>32.8222656</ele>
<time>2010-10-09T13:05:52Z</time>
<extensions>
<tp1:TrackPointExtension>
<tp1:hr>155</tp1:hr>
</tp1:TrackPointExtension>
</extensions>
</trkpt>
<trkpt lat="52.6345564" lon="13.3798201">
<ele>32.3415527</ele>
<time>2010-10-09T13:06:00Z</time>
<extensions>
<tp1:TrackPointExtension>
<tp1:hr>155</tp1:hr>
</tp1:TrackPointExtension>
</extensions>
</trkpt>
<trkpt lat="52.6343766" lon="13.3799879">
<ele>32.3415527</ele>
<time>2010-10-09T13:06:03Z</time>
<extensions>
<tp1:TrackPointExtension>
<tp1:hr>162</tp1:hr>
</tp1:TrackPointExtension>
</extensions>
</trkpt>
<trkpt lat="52.6343185" lon="13.3800427">
<ele>32.8222656</ele>
<time>2010-10-09T13:06:04Z</time>
<extensions>
<tp1:TrackPointExtension>
<tp1:hr>162</tp1:hr>
</tp1:TrackPointExtension>
</extensions>
</trkpt>
<trkpt lat="52.6339133" lon="13.3803799">
<ele>33.3028564</ele>
<time>2010-10-09T13:06:11Z</time>
<extensions>
<tp1:TrackPointExtension>
<tp1:hr>162</tp1:hr>
</tp1:TrackPointExtension>
</extensions>
</trkpt>
<trkpt lat="52.6335747" lon="13.3805763">
<ele>33.7834473</ele>
<time>2010-10-09T13:06:17Z</time>
<extensions>
<tp1:TrackPointExtension>
<tp1:hr>163</tp1:hr>
</tp1:TrackPointExtension>
</extensions>
</trkpt>
<trkpt lat="52.6331282" lon="13.3807908">
<ele>33.7834473</ele>
<time>2010-10-09T13:06:25Z</time>
<extensions>
<tp1:TrackPointExtension>
<tp1:hr>168</tp1:hr>
</tp1:TrackPointExtension>
</extensions>
</trkpt>
<trkpt lat="52.6327941" lon="13.3809730">
<ele>34.2641602</ele>
<time>2010-10-09T13:06:31Z</time>
<extensions>
<tp1:TrackPointExtension>
<tp1:hr>168</tp1:hr>
</tp1:TrackPointExtension>
</extensions>
</trkpt>
<trkpt lat="52.6323465" lon="13.3812157">
<ele>35.2254639</ele>
<time>2010-10-09T13:06:39Z</time>
<extensions>
<tp1:TrackPointExtension>
<tp1:hr>170</tp1:hr>
</tp1:TrackPointExtension>
</extensions>
</trkpt>
<trkpt lat="52.6321805" lon="13.3813098">
<ele>35.7060547</ele>
<time>2010-10-09T13:06:43Z</time>
<extensions>
<tp1:TrackPointExtension>
<tp1:hr>169</tp1:hr>
</tp1:TrackPointExtension>
</extensions>
</trkpt>
<trkpt lat="52.6320196" lon="13.3814030">
<ele>35.2254639</ele>
<time>2010-10-09T13:06:47Z</time>
<extensions>
<tp1:TrackPointExtension>
<tp1:hr>167</tp1:hr>
</tp1:TrackPointExtension>
</extensions>
</trkpt>
<trkpt lat="52.6316904" lon="13.3815835">
<ele>36.1867676</ele>
<time>2010-10-09T13:06:53Z</time>
<extensions>
<tp1:TrackPointExtension>
<tp1:hr>165</tp1:hr>
</tp1:TrackPointExtension>
</extensions>
</trkpt>
<trkpt lat="52.6312788" lon="13.3818170">
<ele>37.1480713</ele>
<time>2010-10-09T13:07:00Z</time>
<extensions>
<tp1:TrackPointExtension>
<tp1:hr>165</tp1:hr>
</tp1:TrackPointExtension>
</extensions>
</trkpt>
<trkpt lat="52.6307515" lon="13.3821297">
<ele>36.6674805</ele>
<time>2010-10-09T13:07:09Z</time>
<extensions>
<tp1:TrackPointExtension>
<tp1:hr>167</tp1:hr>
</tp1:TrackPointExtension>
</extensions>
</trkpt>
<trkpt lat="52.6302792" lon="13.3823832">
<ele>37.1480713</ele>
<time>2010-10-09T13:07:17Z</time>
<extensions>
<tp1:TrackPointExtension>
<tp1:hr>169</tp1:hr>
</tp1:TrackPointExtension>
</extensions>
</trkpt>
<trkpt lat="52.6299271" lon="13.3825355">
<ele>38.1093750</ele>
<time>2010-10-09T13:07:23Z</time>
<extensions>
<tp1:TrackPointExtension>
<tp1:hr>170</tp1:hr>
</tp1:TrackPointExtension>
</extensions>
</trkpt>
<trkpt lat="52.6296015" lon="13.3827619">
<ele>39.0706787</ele>
<time>2010-10-09T13:07:29Z</time>
<extensions>
<tp1:TrackPointExtension>
<tp1:hr>171</tp1:hr>
</tp1:TrackPointExtension>
</extensions>
</trkpt>
<trkpt lat="52.6294987" lon="13.3828117">
<ele>39.5512695</ele>
<time>2010-10-09T13:07:31Z</time>
<extensions>
<tp1:TrackPointExtension>
<tp1:hr>171</tp1:hr>
</tp1:TrackPointExtension>
</extensions>
</trkpt>
<trkpt lat="52.6288997" lon="13.3831531">
<ele>41.9547119</ele>
<time>2010-10-09T13:07:42Z</time>
<extensions>
<tp1:TrackPointExtension>
<tp1:hr>171</tp1:hr>
</tp1:TrackPointExtension>
</extensions>
</trkpt>
<trkpt lat="52.6284718" lon="13.3834024">
<ele>41.9547119</ele>
<time>2010-10-09T13:07:50Z</time>
<extensions>
<tp1:TrackPointExtension>
<tp1:hr>172</tp1:hr>
</tp1:TrackPointExtension>
</extensions>
</trkpt>
<trkpt lat="52.6280909" lon="13.3836228">
<ele>41.9547119</ele>
<time>2010-10-09T13:07:57Z</time>
<extensions>
<tp1:TrackPointExtension>
<tp1:hr>172</tp1:hr>
</tp1:TrackPointExtension>
</extensions>
</trkpt>
<trkpt lat="52.6275720" lon="13.3839028">
<ele>42.9160156</ele>
<time>2010-10-09T13:08:06Z</time>
<extensions>
<tp1:TrackPointExtension>
<tp1:hr>170</tp1:hr>
</tp1:TrackPointExtension>
</extensions>
</trkpt>
<trkpt lat="52.6271216" lon="13.3841561">
<ele>44.3580322</ele>
<time>2010-10-09T13:08:14Z</time>
<extensions>
<tp1:TrackPointExtension>
<tp1:hr>169</tp1:hr>
</tp1:TrackPointExtension>
</extensions>
</trkpt>
<trkpt lat="52.6267188" lon="13.3843262">
<ele>45.3192139</ele>
<time>2010-10-09T13:08:21Z</time>
<extensions>
<tp1:TrackPointExtension>
<tp1:hr>168</tp1:hr>
</tp1:TrackPointExtension>
</extensions>
</trkpt>
<trkpt lat="52.6265540" lon="13.3843961">
<ele>44.3580322</ele>
<time>2010-10-09T13:08:24Z</time>
<extensions>
<tp1:TrackPointExtension>
<tp1:hr>168</tp1:hr>
</tp1:TrackPointExtension>
</extensions>
</trkpt>
<trkpt lat="52.6263501" lon="13.3845602">
<ele>43.8773193</ele>
<time>2010-10-09T13:08:28Z</time>
<extensions>
<tp1:TrackPointExtension>
<tp1:hr>168</tp1:hr>
</tp1:TrackPointExtension>
</extensions>
</trkpt>
<trkpt lat="52.6257909" lon="13.3848883">
<ele>44.8386230</ele>
<time>2010-10-09T13:08:38Z</time>
<extensions>
<tp1:TrackPointExtension>
<tp1:hr>170</tp1:hr>
</tp1:TrackPointExtension>
</extensions>
</trkpt>
<trkpt lat="52.6253304" lon="13.3851383">
<ele>46.7612305</ele>
<time>2010-10-09T13:08:46Z</time>
<extensions>
<tp1:TrackPointExtension>
<tp1:hr>170</tp1:hr>
</tp1:TrackPointExtension>
</extensions>
</trkpt>
<trkpt lat="52.6248197" lon="13.3854129">
<ele>47.7225342</ele>
<time>2010-10-09T13:08:55Z</time>
<extensions>
<tp1:TrackPointExtension>
<tp1:hr>168</tp1:hr>
</tp1:TrackPointExtension>
</extensions>
</trkpt>
<trkpt lat="52.6242442" lon="13.3857373">
<ele>47.7225342</ele>
<time>2010-10-09T13:09:05Z</time>
<extensions>
<tp1:TrackPointExtension>
<tp1:hr>167</tp1:hr>
</tp1:TrackPointExtension>
</extensions>
</trkpt>
<trkpt lat="52.6236015" lon="13.3860938">
<ele>47.7225342</ele>
<time>2010-10-09T13:09:16Z</time>
<extensions>
<tp1:TrackPointExtension>
<tp1:hr>167</tp1:hr>
</tp1:TrackPointExtension>
</extensions>
</trkpt>
<trkpt lat="52.6230751" lon="13.3863945">
<ele>48.2033691</ele>
<time>2010-10-09T13:09:25Z</time>
<extensions>
<tp1:TrackPointExtension>
<tp1:hr>167</tp1:hr>
</tp1:TrackPointExtension>
</extensions>
</trkpt>
<trkpt lat="52.6226191" lon="13.3867106">
<ele>48.2033691</ele>
<time>2010-10-09T13:09:33Z</time>
<extensions>
<tp1:TrackPointExtension>
<tp1:hr>167</tp1:hr>
</tp1:TrackPointExtension>
</extensions>
</trkpt>
<trkpt lat="52.6221927" lon="13.3870962">
<ele>47.2418213</ele>
<time>2010-10-09T13:09:41Z</time>
<extensions>
<tp1:TrackPointExtension>
<tp1:hr>167</tp1:hr>
</tp1:TrackPointExtension>
</extensions>
</trkpt>
<trkpt lat="52.6217086" lon="13.3876378">
<ele>45.7999268</ele>
<time>2010-10-09T13:09:50Z</time>
<extensions>
<tp1:TrackPointExtension>
<tp1:hr>167</tp1:hr>
</tp1:TrackPointExtension>
</extensions>
</trkpt>
<trkpt lat="52.6213854" lon="13.3880158">
<ele>43.3966064</ele>
<time>2010-10-09T13:09:56Z</time>
<extensions>
<tp1:TrackPointExtension>
<tp1:hr>167</tp1:hr>
</tp1:TrackPointExtension>
</extensions>
</trkpt>
<trkpt lat="52.6209021" lon="13.3885858">
<ele>41.4739990</ele>
<time>2010-10-09T13:10:04Z</time>
<extensions>
<tp1:TrackPointExtension>
<tp1:hr>165</tp1:hr>
</tp1:TrackPointExtension>
</extensions>
</trkpt>
<trkpt lat="52.6204890" lon="13.3890197">
<ele>41.9547119</ele>
<time>2010-10-09T13:10:10Z</time>
<extensions>
<tp1:TrackPointExtension>
<tp1:hr>164</tp1:hr>
</tp1:TrackPointExtension>
</extensions>
</trkpt>
<trkpt lat="52.6198923" lon="13.3894818">
<ele>41.4739990</ele>
<time>2010-10-09T13:10:18Z</time>
<extensions>
<tp1:TrackPointExtension>
<tp1:hr>163</tp1:hr>
</tp1:TrackPointExtension>
</extensions>
</trkpt>
<trkpt lat="52.6194640" lon="13.3897175">
<ele>40.9934082</ele>
<time>2010-10-09T13:10:24Z</time>
<extensions>
<tp1:TrackPointExtension>
<tp1:hr>160</tp1:hr>
</tp1:TrackPointExtension>
</extensions>
</trkpt>
<trkpt lat="52.6190206" lon="13.3899682">
<ele>42.4354248</ele>
<time>2010-10-09T13:10:31Z</time>
<extensions>
<tp1:TrackPointExtension>
<tp1:hr>157</tp1:hr>
</tp1:TrackPointExtension>
</extensions>
</trkpt>
<trkpt lat="52.6187751" lon="13.3901149">
<ele>42.9160156</ele>
<time>2010-10-09T13:10:36Z</time>
<extensions>
<tp1:TrackPointExtension>
<tp1:hr>156</tp1:hr>
</tp1:TrackPointExtension>
</extensions>
</trkpt>
<trkpt lat="52.6187512" lon="13.3901331">
<ele>42.9160156</ele>
<time>2010-10-09T13:10:37Z</time>
<extensions>
<tp1:TrackPointExtension>
<tp1:hr>156</tp1:hr>
</tp1:TrackPointExtension>
</extensions>
</trkpt>
<trkpt lat="52.6186601" lon="13.3901858">
<ele>43.3966064</ele>
<time>2010-10-09T13:10:44Z</time>
<extensions>
<tp1:TrackPointExtension>
<tp1:hr>152</tp1:hr>
</tp1:TrackPointExtension>
</extensions>
</trkpt>
<trkpt lat="52.6186311" lon="13.3902052">
<ele>44.8386230</ele>
<time>2010-10-09T13:10:50Z</time>
<extensions>
<tp1:TrackPointExtension>
<tp1:hr>148</tp1:hr>
</tp1:TrackPointExtension>
</extensions>
</trkpt>
<trkpt lat="52.6185041" lon="13.3902744">
<ele>45.3192139</ele>
<time>2010-10-09T13:10:54Z</time>
<extensions>
<tp1:TrackPointExtension>
<tp1:hr>148</tp1:hr>
</tp1:TrackPointExtension>
</extensions>
</trkpt>
<trkpt lat="52.6182809" lon="13.3904231">
<ele>45.7999268</ele>
<time>2010-10-09T13:10:58Z</time>
<extensions>
<tp1:TrackPointExtension>
<tp1:hr>149</tp1:hr>
</tp1:TrackPointExtension>
</extensions>
</trkpt>
<trkpt lat="52.6178801" lon="13.3906278">
<ele>45.7999268</ele>
<time>2010-10-09T13:11:04Z</time>
<extensions>
<tp1:TrackPointExtension>
<tp1:hr>152</tp1:hr>
</tp1:TrackPointExtension>
</extensions>
</trkpt>
<trkpt lat="52.6173532" lon="13.3909422">
<ele>45.7999268</ele>
<time>2010-10-09T13:11:11Z</time>
<extensions>
<tp1:TrackPointExtension>
<tp1:hr>156</tp1:hr>
</tp1:TrackPointExtension>
</extensions>
</trkpt>
<trkpt lat="52.6169113" lon="13.3913267">
<ele>44.3580322</ele>
<time>2010-10-09T13:11:17Z</time>
<extensions>
<tp1:TrackPointExtension>
<tp1:hr>157</tp1:hr>
</tp1:TrackPointExtension>
</extensions>
</trkpt>
<trkpt lat="52.6164419" lon="13.3919219">
<ele>42.9160156</ele>
<time>2010-10-09T13:11:24Z</time>
<extensions>
<tp1:TrackPointExtension>
<tp1:hr>158</tp1:hr>
</tp1:TrackPointExtension>
</extensions>
</trkpt>
<trkpt lat="52.6160176" lon="13.3926184">
<ele>42.4354248</ele>
<time>2010-10-09T13:11:31Z</time>
<extensions>
<tp1:TrackPointExtension>
<tp1:hr>158</tp1:hr>
</tp1:TrackPointExtension>
</extensions>
</trkpt>
<trkpt lat="52.6155701" lon="13.3933869">
<ele>41.9547119</ele>
<time>2010-10-09T13:11:39Z</time>
<extensions>
<tp1:TrackPointExtension>
<tp1:hr>159</tp1:hr>
</tp1:TrackPointExtension>
</extensions>
</trkpt>
<trkpt lat="52.6150175" lon="13.3942887">
<ele>41.9547119</ele>
<time>2010-10-09T13:11:49Z</time>
<extensions>
<tp1:TrackPointExtension>
<tp1:hr>163</tp1:hr>
</tp1:TrackPointExtension>
</extensions>
</trkpt>
<trkpt lat="52.6145876" lon="13.3948134">
<ele>42.4354248</ele>
<time>2010-10-09T13:11:56Z</time>
<extensions>
<tp1:TrackPointExtension>
<tp1:hr>164</tp1:hr>
</tp1:TrackPointExtension>
</extensions>
</trkpt>
<trkpt lat="52.6141042" lon="13.3952023">
<ele>42.9160156</ele>
<time>2010-10-09T13:12:03Z</time>
<extensions>
<tp1:TrackPointExtension>
<tp1:hr>164</tp1:hr>
</tp1:TrackPointExtension>
</extensions>
</trkpt>
<trkpt lat="52.6135116" lon="13.3955628">
<ele>42.9160156</ele>
<time>2010-10-09T13:12:11Z</time>
<extensions>
<tp1:TrackPointExtension>
<tp1:hr>165</tp1:hr>
</tp1:TrackPointExtension>
</extensions>
</trkpt>
<trkpt lat="52.6127580" lon="13.3960142">
<ele>42.4354248</ele>
<time>2010-10-09T13:12:21Z</time>
<extensions>
<tp1:TrackPointExtension>
<tp1:hr>166</tp1:hr>
</tp1:TrackPointExtension>
</extensions>
</trkpt>
<trkpt lat="52.6120185" lon="13.3964524">
<ele>40.9934082</ele>
<time>2010-10-09T13:12:31Z</time>
<extensions>
<tp1:TrackPointExtension>
<tp1:hr>167</tp1:hr>
</tp1:TrackPointExtension>
</extensions>
</trkpt>
<trkpt lat="52.6113656" lon="13.3968351">
<ele>39.5512695</ele>
<time>2010-10-09T13:12:40Z</time>
<extensions>
<tp1:TrackPointExtension>
<tp1:hr>167</tp1:hr>
</tp1:TrackPointExtension>
</extensions>
</trkpt>
<trkpt lat="52.6107304" lon="13.3972115">
<ele>38.5900879</ele>
<time>2010-10-09T13:12:49Z</time>
<extensions>
<tp1:TrackPointExtension>
<tp1:hr>165</tp1:hr>
</tp1:TrackPointExtension>
</extensions>
</trkpt>
<trkpt lat="52.6100162" lon="13.3976329">
<ele>37.1480713</ele>
<time>2010-10-09T13:12:59Z</time>
<extensions>
<tp1:TrackPointExtension>
<tp1:hr>165</tp1:hr>
</tp1:TrackPointExtension>
</extensions>
</trkpt>
<trkpt lat="52.6093708" lon="13.3980126">
<ele>37.1480713</ele>
<time>2010-10-09T13:13:08Z</time>
<extensions>
<tp1:TrackPointExtension>
<tp1:hr>166</tp1:hr>
</tp1:TrackPointExtension>
</extensions>
</trkpt>
<trkpt lat="52.6088032" lon="13.3983658">
<ele>38.1093750</ele>
<time>2010-10-09T13:13:16Z</time>
<extensions>
<tp1:TrackPointExtension>
<tp1:hr>166</tp1:hr>
</tp1:TrackPointExtension>
</extensions>
</trkpt>
<trkpt lat="52.6081705" lon="13.3987475">
<ele>38.5900879</ele>
<time>2010-10-09T13:13:25Z</time>
<extensions>
<tp1:TrackPointExtension>
<tp1:hr>169</tp1:hr>
</tp1:TrackPointExtension>
</extensions>
</trkpt>
<trkpt lat="52.6077766" lon="13.3989715">
<ele>37.6286621</ele>
<time>2010-10-09T13:13:31Z</time>
<extensions>
<tp1:TrackPointExtension>
<tp1:hr>170</tp1:hr>
</tp1:TrackPointExtension>
</extensions>
</trkpt>
<trkpt lat="52.6071842" lon="13.3993457">
<ele>39.5512695</ele>
<time>2010-10-09T13:13:40Z</time>
<extensions>
<tp1:TrackPointExtension>
<tp1:hr>171</tp1:hr>
</tp1:TrackPointExtension>
</extensions>
</trkpt>
<trkpt lat="52.6066690" lon="13.3996566">
<ele>40.5128174</ele>
<time>2010-10-09T13:13:48Z</time>
<extensions>
<tp1:TrackPointExtension>
<tp1:hr>171</tp1:hr>
</tp1:TrackPointExtension>
</extensions>
</trkpt>
<trkpt lat="52.6061019" lon="13.4000174">
<ele>42.4354248</ele>
<time>2010-10-09T13:13:57Z</time>
<extensions>
<tp1:TrackPointExtension>
<tp1:hr>170</tp1:hr>
</tp1:TrackPointExtension>
</extensions>
</trkpt>
<trkpt lat="52.6056084" lon="13.4003364">
<ele>43.3966064</ele>
<time>2010-10-09T13:14:05Z</time>
<extensions>
<tp1:TrackPointExtension>
<tp1:hr>170</tp1:hr>
</tp1:TrackPointExtension>
</extensions>
</trkpt>
<trkpt lat="52.6050019" lon="13.4006950">
<ele>43.8773193</ele>
<time>2010-10-09T13:14:15Z</time>
<extensions>
<tp1:TrackPointExtension>
<tp1:hr>167</tp1:hr>
</tp1:TrackPointExtension>
</extensions>
</trkpt>
<trkpt lat="52.6045904" lon="13.4009360">
<ele>43.8773193</ele>
<time>2010-10-09T13:14:22Z</time>
<extensions>
<tp1:TrackPointExtension>
<tp1:hr>166</tp1:hr>
</tp1:TrackPointExtension>
</extensions>
</trkpt>
<trkpt lat="52.6040859" lon="13.4012423">
<ele>44.3580322</ele>
<time>2010-10-09T13:14:30Z</time>
<extensions>
<tp1:TrackPointExtension>
<tp1:hr>166</tp1:hr>
</tp1:TrackPointExtension>
</extensions>
</trkpt>
<trkpt lat="52.6038310" lon="13.4013812">
<ele>44.8386230</ele>
<time>2010-10-09T13:14:34Z</time>
<extensions>
<tp1:TrackPointExtension>
<tp1:hr>165</tp1:hr>
</tp1:TrackPointExtension>
</extensions>
</trkpt>
<trkpt lat="52.6032066" lon="13.4017339">
<ele>45.7999268</ele>
<time>2010-10-09T13:14:44Z</time>
<extensions>
<tp1:TrackPointExtension>
<tp1:hr>163</tp1:hr>
</tp1:TrackPointExtension>
</extensions>
</trkpt>
<trkpt lat="52.6028110" lon="13.4019743">
<ele>44.3580322</ele>
<time>2010-10-09T13:14:50Z</time>
<extensions>
<tp1:TrackPointExtension>
<tp1:hr>163</tp1:hr>
</tp1:TrackPointExtension>
</extensions>
</trkpt>
<trkpt lat="52.6021496" lon="13.4023704">
<ele>41.9547119</ele>
<time>2010-10-09T13:15:00Z</time>
<extensions>
<tp1:TrackPointExtension>
<tp1:hr>163</tp1:hr>
</tp1:TrackPointExtension>
</extensions>
</trkpt>
<trkpt lat="52.6017383" lon="13.4025527">
<ele>43.3966064</ele>
<time>2010-10-09T13:15:06Z</time>
<extensions>
<tp1:TrackPointExtension>
<tp1:hr>163</tp1:hr>
</tp1:TrackPointExtension>
</extensions>
</trkpt>
<trkpt lat="52.6012240" lon="13.4026422">
<ele>45.3192139</ele>
<time>2010-10-09T13:15:13Z</time>
<extensions>
<tp1:TrackPointExtension>
<tp1:hr>163</tp1:hr>
</tp1:TrackPointExtension>
</extensions>
</trkpt>
<trkpt lat="52.6008692" lon="13.4026659">
<ele>45.3192139</ele>
<time>2010-10-09T13:15:18Z</time>
<extensions>
<tp1:TrackPointExtension>
<tp1:hr>163</tp1:hr>
</tp1:TrackPointExtension>
</extensions>
</trkpt>
<trkpt lat="52.6002889" lon="13.4026607">
<ele>46.2806396</ele>
<time>2010-10-09T13:15:26Z</time>
<extensions>
<tp1:TrackPointExtension>
<tp1:hr>163</tp1:hr>
</tp1:TrackPointExtension>
</extensions>
</trkpt>
<trkpt lat="52.5996373" lon="13.4026844">
<ele>46.2806396</ele>
<time>2010-10-09T13:15:35Z</time>
<extensions>
<tp1:TrackPointExtension>
<tp1:hr>163</tp1:hr>
</tp1:TrackPointExtension>
</extensions>
</trkpt>
<trkpt lat="52.5989320" lon="13.4027237">
<ele>46.7612305</ele>
<time>2010-10-09T13:15:45Z</time>
<extensions>
<tp1:TrackPointExtension>
<tp1:hr>162</tp1:hr>
</tp1:TrackPointExtension>
</extensions>
</trkpt>
<trkpt lat="52.5982784" lon="13.4027519">
<ele>46.2806396</ele>
<time>2010-10-09T13:15:54Z</time>
<extensions>
<tp1:TrackPointExtension>
<tp1:hr>161</tp1:hr>
</tp1:TrackPointExtension>
</extensions>
</trkpt>
<trkpt lat="52.5977435" lon="13.4027709">
<ele>45.7999268</ele>
<time>2010-10-09T13:16:01Z</time>
<extensions>
<tp1:TrackPointExtension>
<tp1:hr>161</tp1:hr>
</tp1:TrackPointExtension>
</extensions>
</trkpt>
<trkpt lat="52.5971333" lon="13.4027793">
<ele>46.7612305</ele>
<time>2010-10-09T13:16:09Z</time>
<extensions>
<tp1:TrackPointExtension>
<tp1:hr>158</tp1:hr>
</tp1:TrackPointExtension>
</extensions>
</trkpt>
<trkpt lat="52.5966323" lon="13.4028600">
<ele>46.2806396</ele>
<time>2010-10-09T13:16:16Z</time>
<extensions>
<tp1:TrackPointExtension>
<tp1:hr>158</tp1:hr>
</tp1:TrackPointExtension>
</extensions>
</trkpt>
<trkpt lat="52.5961842" lon="13.4029176">
<ele>45.7999268</ele>
<time>2010-10-09T13:16:22Z</time>
<extensions>
<tp1:TrackPointExtension>
<tp1:hr>160</tp1:hr>
</tp1:TrackPointExtension>
</extensions>
</trkpt>
<trkpt lat="52.5954966" lon="13.4029369">
<ele>45.7999268</ele>
<time>2010-10-09T13:16:31Z</time>
<extensions>
<tp1:TrackPointExtension>
<tp1:hr>161</tp1:hr>
</tp1:TrackPointExtension>
</extensions>
</trkpt>
<trkpt lat="52.5949753" lon="13.4029440">
<ele>47.2418213</ele>
<time>2010-10-09T13:16:38Z</time>
<extensions>
<tp1:TrackPointExtension>
<tp1:hr>161</tp1:hr>
</tp1:TrackPointExtension>
</extensions>
</trkpt>
<trkpt lat="52.5946344" lon="13.4029620">
<ele>48.6839600</ele>
<time>2010-10-09T13:16:43Z</time>
<extensions>
<tp1:TrackPointExtension>
<tp1:hr>160</tp1:hr>
</tp1:TrackPointExtension>
</extensions>
</trkpt>
<trkpt lat="52.5941292" lon="13.4029245">
<ele>48.6839600</ele>
<time>2010-10-09T13:16:50Z</time>
<extensions>
<tp1:TrackPointExtension>
<tp1:hr>159</tp1:hr>
</tp1:TrackPointExtension>
</extensions>
</trkpt>
<trkpt lat="52.5935470" lon="13.4027669">
<ele>48.2033691</ele>
<time>2010-10-09T13:16:58Z</time>
<extensions>
<tp1:TrackPointExtension>
<tp1:hr>158</tp1:hr>
</tp1:TrackPointExtension>
</extensions>
</trkpt>
<trkpt lat="52.5931166" lon="13.4026628">
<ele>45.7999268</ele>
<time>2010-10-09T13:17:04Z</time>
<extensions>
<tp1:TrackPointExtension>
<tp1:hr>156</tp1:hr>
</tp1:TrackPointExtension>
</extensions>
</trkpt>
<trkpt lat="52.5928077" lon="13.4025999">
<ele>44.8386230</ele>
<time>2010-10-09T13:17:08Z</time>
<extensions>
<tp1:TrackPointExtension>
<tp1:hr>156</tp1:hr>
</tp1:TrackPointExtension>
</extensions>
</trkpt>
<trkpt lat="52.5921872" lon="13.4023959">
<ele>40.9934082</ele>
<time>2010-10-09T13:17:16Z</time>
<extensions>
<tp1:TrackPointExtension>
<tp1:hr>156</tp1:hr>
</tp1:TrackPointExtension>
</extensions>
</trkpt>
<trkpt lat="52.5917385" lon="13.4022911">
<ele>38.5900879</ele>
<time>2010-10-09T13:17:22Z</time>
<extensions>
<tp1:TrackPointExtension>
<tp1:hr>154</tp1:hr>
</tp1:TrackPointExtension>
</extensions>
</trkpt>
<trkpt lat="52.5914144" lon="13.4021516">
<ele>40.0321045</ele>
<time>2010-10-09T13:17:26Z</time>
<extensions>
<tp1:TrackPointExtension>
<tp1:hr>153</tp1:hr>
</tp1:TrackPointExtension>
</extensions>
</trkpt>
<trkpt lat="52.5912743" lon="13.4021347">
<ele>40.9934082</ele>
<time>2010-10-09T13:17:28Z</time>
<extensions>
<tp1:TrackPointExtension>
<tp1:hr>153</tp1:hr>
</tp1:TrackPointExtension>
</extensions>
</trkpt>
<trkpt lat="52.5907723" lon="13.4019837">
<ele>39.0706787</ele>
<time>2010-10-09T13:17:35Z</time>
<extensions>
<tp1:TrackPointExtension>
<tp1:hr>151</tp1:hr>
</tp1:TrackPointExtension>
</extensions>
</trkpt>
<trkpt lat="52.5904663" lon="13.4018249">
<ele>39.0706787</ele>
<time>2010-10-09T13:17:40Z</time>
<extensions>
<tp1:TrackPointExtension>
<tp1:hr>150</tp1:hr>
</tp1:TrackPointExtension>
</extensions>
</trkpt>
<trkpt lat="52.5903348" lon="13.4017333">
<ele>39.0706787</ele>
<time>2010-10-09T13:17:44Z</time>
<extensions>
<tp1:TrackPointExtension>
<tp1:hr>149</tp1:hr>
</tp1:TrackPointExtension>
</extensions>
</trkpt>
<trkpt lat="52.5903199" lon="13.4017200">
<ele>39.0706787</ele>
<time>2010-10-09T13:17:45Z</time>
<extensions>
<tp1:TrackPointExtension>
<tp1:hr>148</tp1:hr>
</tp1:TrackPointExtension>
</extensions>
</trkpt>
<trkpt lat="52.5903515" lon="13.4017329">
<ele>41.4739990</ele>
<time>2010-10-09T13:17:52Z</time>
<extensions>
<tp1:TrackPointExtension>
<tp1:hr>147</tp1:hr>
</tp1:TrackPointExtension>
</extensions>
</trkpt>
<trkpt lat="52.5903499" lon="13.4017261">
<ele>42.9160156</ele>
<time>2010-10-09T13:17:59Z</time>
<extensions>
<tp1:TrackPointExtension>
<tp1:hr>147</tp1:hr>
</tp1:TrackPointExtension>
</extensions>
</trkpt>
<trkpt lat="52.5903736" lon="13.4017348">
<ele>44.3580322</ele>
<time>2010-10-09T13:18:13Z</time>
<extensions>
<tp1:TrackPointExtension>
<tp1:hr>144</tp1:hr>
</tp1:TrackPointExtension>
</extensions>
</trkpt>
<trkpt lat="52.5903543" lon="13.4017278">
<ele>44.8386230</ele>
<time>2010-10-09T13:18:18Z</time>
<extensions>
<tp1:TrackPointExtension>
<tp1:hr>140</tp1:hr>
</tp1:TrackPointExtension>
</extensions>
</trkpt>
<trkpt lat="52.5901785" lon="13.4016271">
<ele>46.2806396</ele>
<time>2010-10-09T13:18:24Z</time>
<extensions>
<tp1:TrackPointExtension>
<tp1:hr>135</tp1:hr>
</tp1:TrackPointExtension>
</extensions>
</trkpt>
<trkpt lat="52.5899668" lon="13.4015784">
<ele>48.2033691</ele>
<time>2010-10-09T13:18:28Z</time>
<extensions>
<tp1:TrackPointExtension>
<tp1:hr>137</tp1:hr>
</tp1:TrackPointExtension>
</extensions>
</trkpt>
<trkpt lat="52.5897043" lon="13.4015838">
<ele>49.6452637</ele>
<time>2010-10-09T13:18:32Z</time>
<extensions>
<tp1:TrackPointExtension>
<tp1:hr>142</tp1:hr>
</tp1:TrackPointExtension>
</extensions>
</trkpt>
<trkpt lat="52.5896381" lon="13.4015895">
<ele>49.6452637</ele>
<time>2010-10-09T13:18:33Z</time>
<extensions>
<tp1:TrackPointExtension>
<tp1:hr>142</tp1:hr>
</tp1:TrackPointExtension>
</extensions>
</trkpt>
<trkpt lat="52.5891299" lon="13.4016328">
<ele>46.2806396</ele>
<time>2010-10-09T13:18:39Z</time>
<extensions>
<tp1:TrackPointExtension>
<tp1:hr>143</tp1:hr>
</tp1:TrackPointExtension>
</extensions>
</trkpt>
<trkpt lat="52.5886808" lon="13.4015987">
<ele>42.9160156</ele>
<time>2010-10-09T13:18:45Z</time>
<extensions>
<tp1:TrackPointExtension>
<tp1:hr>145</tp1:hr>
</tp1:TrackPointExtension>
</extensions>
</trkpt>
<trkpt lat="52.5882356" lon="13.4016427">
<ele>41.4739990</ele>
<time>2010-10-09T13:18:51Z</time>
<extensions>
<tp1:TrackPointExtension>
<tp1:hr>149</tp1:hr>
</tp1:TrackPointExtension>
</extensions>
</trkpt>
<trkpt lat="52.5878503" lon="13.4016739">
<ele>43.8773193</ele>
<time>2010-10-09T13:18:57Z</time>
<extensions>
<tp1:TrackPointExtension>
<tp1:hr>149</tp1:hr>
</tp1:TrackPointExtension>
</extensions>
</trkpt>
<trkpt lat="52.5875392" lon="13.4017125">
<ele>47.2418213</ele>
<time>2010-10-09T13:19:01Z</time>
<extensions>
<tp1:TrackPointExtension>
<tp1:hr>149</tp1:hr>
</tp1:TrackPointExtension>
</extensions>
</trkpt>
<trkpt lat="52.5870625" lon="13.4016837">
<ele>45.7999268</ele>
<time>2010-10-09T13:19:07Z</time>
<extensions>
<tp1:TrackPointExtension>
<tp1:hr>150</tp1:hr>
</tp1:TrackPointExtension>
</extensions>
</trkpt>
<trkpt lat="52.5869749" lon="13.4017040">
<ele>46.2806396</ele>
<time>2010-10-09T13:19:08Z</time>
<extensions>
<tp1:TrackPointExtension>
<tp1:hr>150</tp1:hr>
</tp1:TrackPointExtension>
</extensions>
</trkpt>
<trkpt lat="52.5866217" lon="13.4019359">
<ele>43.8773193</ele>
<time>2010-10-09T13:19:13Z</time>
<extensions>
<tp1:TrackPointExtension>
<tp1:hr>152</tp1:hr>
</tp1:TrackPointExtension>
</extensions>
</trkpt>
<trkpt lat="52.5862996" lon="13.4022608">
<ele>43.8773193</ele>
<time>2010-10-09T13:19:18Z</time>
<extensions>
<tp1:TrackPointExtension>
<tp1:hr>154</tp1:hr>
</tp1:TrackPointExtension>
</extensions>
</trkpt>
<trkpt lat="52.5859623" lon="13.4024326">
<ele>43.3966064</ele>
<time>2010-10-09T13:19:23Z</time>
<extensions>
<tp1:TrackPointExtension>
<tp1:hr>156</tp1:hr>
</tp1:TrackPointExtension>
</extensions>
</trkpt>
<trkpt lat="52.5858380" lon="13.4024587">
<ele>42.9160156</ele>
<time>2010-10-09T13:19:25Z</time>
<extensions>
<tp1:TrackPointExtension>
<tp1:hr>158</tp1:hr>
</tp1:TrackPointExtension>
</extensions>
</trkpt>
<trkpt lat="52.5856133" lon="13.4025394">
<ele>42.9160156</ele>
<time>2010-10-09T13:19:29Z</time>
<extensions>
<tp1:TrackPointExtension>
<tp1:hr>159</tp1:hr>
</tp1:TrackPointExtension>
</extensions>
</trkpt>
<trkpt lat="52.5855328" lon="13.4025285">
<ele>42.9160156</ele>
<time>2010-10-09T13:19:35Z</time>
<extensions>
<tp1:TrackPointExtension>
<tp1:hr>159</tp1:hr>
</tp1:TrackPointExtension>
</extensions>
</trkpt>
<trkpt lat="52.5855053" lon="13.4025456">
<ele>42.9160156</ele>
<time>2010-10-09T13:19:36Z</time>
<extensions>
<tp1:TrackPointExtension>
<tp1:hr>159</tp1:hr>
</tp1:TrackPointExtension>
</extensions>
</trkpt>
<trkpt lat="52.5851842" lon="13.4026233">
<ele>44.3580322</ele>
<time>2010-10-09T13:19:42Z</time>
<extensions>
<tp1:TrackPointExtension>
<tp1:hr>161</tp1:hr>
</tp1:TrackPointExtension>
</extensions>
</trkpt>
<trkpt lat="52.5847600" lon="13.4026932">
<ele>44.3580322</ele>
<time>2010-10-09T13:19:48Z</time>
<extensions>
<tp1:TrackPointExtension>
<tp1:hr>164</tp1:hr>
</tp1:TrackPointExtension>
</extensions>
</trkpt>
<trkpt lat="52.5844296" lon="13.4027374">
<ele>40.5128174</ele>
<time>2010-10-09T13:19:53Z</time>
<extensions>
<tp1:TrackPointExtension>
<tp1:hr>165</tp1:hr>
</tp1:TrackPointExtension>
</extensions>
</trkpt>
<trkpt lat="52.5840247" lon="13.4028456">
<ele>38.5900879</ele>
<time>2010-10-09T13:19:59Z</time>
<extensions>
<tp1:TrackPointExtension>
<tp1:hr>166</tp1:hr>
</tp1:TrackPointExtension>
</extensions>
</trkpt>
<trkpt lat="52.5836414" lon="13.4029606">
<ele>35.2254639</ele>
<time>2010-10-09T13:20:04Z</time>
<extensions>
<tp1:TrackPointExtension>
<tp1:hr>167</tp1:hr>
</tp1:TrackPointExtension>
</extensions>
</trkpt>
<trkpt lat="52.5835731" lon="13.4030014">
<ele>34.7448730</ele>
<time>2010-10-09T13:20:05Z</time>
<extensions>
<tp1:TrackPointExtension>
<tp1:hr>167</tp1:hr>
</tp1:TrackPointExtension>
</extensions>
</trkpt>
<trkpt lat="52.5833915" lon="13.4030776">
<ele>32.3415527</ele>
<time>2010-10-09T13:20:08Z</time>
<extensions>
<tp1:TrackPointExtension>
<tp1:hr>167</tp1:hr>
</tp1:TrackPointExtension>
</extensions>
</trkpt>
<trkpt lat="52.5828951" lon="13.4033605">
<ele>31.3801270</ele>
<time>2010-10-09T13:20:16Z</time>
<extensions>
<tp1:TrackPointExtension>
<tp1:hr>167</tp1:hr>
</tp1:TrackPointExtension>
</extensions>
</trkpt>
<trkpt lat="52.5827625" lon="13.4034266">
<ele>31.8607178</ele>
<time>2010-10-09T13:20:18Z</time>
<extensions>
<tp1:TrackPointExtension>
<tp1:hr>167</tp1:hr>
</tp1:TrackPointExtension>
</extensions>
</trkpt>
<trkpt lat="52.5823755" lon="13.4036795">
<ele>33.3028564</ele>
<time>2010-10-09T13:20:24Z</time>
<extensions>
<tp1:TrackPointExtension>
<tp1:hr>167</tp1:hr>
</tp1:TrackPointExtension>
</extensions>
</trkpt>
<trkpt lat="52.5820982" lon="13.4038203">
<ele>35.2254639</ele>
<time>2010-10-09T13:20:29Z</time>
<extensions>
<tp1:TrackPointExtension>
<tp1:hr>165</tp1:hr>
</tp1:TrackPointExtension>
</extensions>
</trkpt>
<trkpt lat="52.5819773" lon="13.4038851">
<ele>36.1867676</ele>
<time>2010-10-09T13:20:33Z</time>
<extensions>
<tp1:TrackPointExtension>
<tp1:hr>162</tp1:hr>
</tp1:TrackPointExtension>
</extensions>
</trkpt>
<trkpt lat="52.5819591" lon="13.4038988">
<ele>36.1867676</ele>
<time>2010-10-09T13:20:34Z</time>
<extensions>
<tp1:TrackPointExtension>
<tp1:hr>161</tp1:hr>
</tp1:TrackPointExtension>
</extensions>
</trkpt>
<trkpt lat="52.5818116" lon="13.4040090">
<ele>37.1480713</ele>
<time>2010-10-09T13:20:42Z</time>
<extensions>
<tp1:TrackPointExtension>
<tp1:hr>155</tp1:hr>
</tp1:TrackPointExtension>
</extensions>
</trkpt>
<trkpt lat="52.5816514" lon="13.4040754">
<ele>36.6674805</ele>
<time>2010-10-09T13:20:46Z</time>
<extensions>
<tp1:TrackPointExtension>
<tp1:hr>155</tp1:hr>
</tp1:TrackPointExtension>
</extensions>
</trkpt>
<trkpt lat="52.5813506" lon="13.4040985">
<ele>37.6286621</ele>
<time>2010-10-09T13:20:51Z</time>
<extensions>
<tp1:TrackPointExtension>
<tp1:hr>155</tp1:hr>
</tp1:TrackPointExtension>
</extensions>
</trkpt>
<trkpt lat="52.5811667" lon="13.4040732">
<ele>38.1093750</ele>
<time>2010-10-09T13:20:54Z</time>
<extensions>
<tp1:TrackPointExtension>
<tp1:hr>154</tp1:hr>
</tp1:TrackPointExtension>
</extensions>
</trkpt>
<trkpt lat="52.5809640" lon="13.4038179">
<ele>40.0321045</ele>
<time>2010-10-09T13:20:58Z</time>
<extensions>
<tp1:TrackPointExtension>
<tp1:hr>153</tp1:hr>
</tp1:TrackPointExtension>
</extensions>
</trkpt>
<trkpt lat="52.5809371" lon="13.4036210">
<ele>41.4739990</ele>
<time>2010-10-09T13:21:00Z</time>
<extensions>
<tp1:TrackPointExtension>
<tp1:hr>152</tp1:hr>
</tp1:TrackPointExtension>
</extensions>
</trkpt>
<trkpt lat="52.5808542" lon="13.4030896">
<ele>42.9160156</ele>
<time>2010-10-09T13:21:05Z</time>
<extensions>
<tp1:TrackPointExtension>
<tp1:hr>152</tp1:hr>
</tp1:TrackPointExtension>
</extensions>
</trkpt>
<trkpt lat="52.5807245" lon="13.4022928">
<ele>42.4354248</ele>
<time>2010-10-09T13:21:12Z</time>
<extensions>
<tp1:TrackPointExtension>
<tp1:hr>151</tp1:hr>
</tp1:TrackPointExtension>
</extensions>
</trkpt>
<trkpt lat="52.5805903" lon="13.4014993">
<ele>43.8773193</ele>
<time>2010-10-09T13:21:19Z</time>
<extensions>
<tp1:TrackPointExtension>
<tp1:hr>149</tp1:hr>
</tp1:TrackPointExtension>
</extensions>
</trkpt>
<trkpt lat="52.5804789" lon="13.4006793">
<ele>43.3966064</ele>
<time>2010-10-09T13:21:26Z</time>
<extensions>
<tp1:TrackPointExtension>
<tp1:hr>149</tp1:hr>
</tp1:TrackPointExtension>
</extensions>
</trkpt>
<trkpt lat="52.5803828" lon="13.3997459">
<ele>43.3966064</ele>
<time>2010-10-09T13:21:34Z</time>
<extensions>
<tp1:TrackPointExtension>
<tp1:hr>151</tp1:hr>
</tp1:TrackPointExtension>
</extensions>
</trkpt>
<trkpt lat="52.5803577" lon="13.3994252">
<ele>43.8773193</ele>
<time>2010-10-09T13:21:37Z</time>
<extensions>
<tp1:TrackPointExtension>
<tp1:hr>153</tp1:hr>
</tp1:TrackPointExtension>
</extensions>
</trkpt>
<trkpt lat="52.5803181" lon="13.3992471">
<ele>43.8773193</ele>
<time>2010-10-09T13:21:39Z</time>
<extensions>
<tp1:TrackPointExtension>
<tp1:hr>153</tp1:hr>
</tp1:TrackPointExtension>
</extensions>
</trkpt>
<trkpt lat="52.5801073" lon="13.3988340">
<ele>45.7999268</ele>
<time>2010-10-09T13:21:44Z</time>
<extensions>
<tp1:TrackPointExtension>
<tp1:hr>151</tp1:hr>
</tp1:TrackPointExtension>
</extensions>
</trkpt>
<trkpt lat="52.5799229" lon="13.3984035">
<ele>44.8386230</ele>
<time>2010-10-09T13:21:49Z</time>
<extensions>
<tp1:TrackPointExtension>
<tp1:hr>150</tp1:hr>
</tp1:TrackPointExtension>
</extensions>
</trkpt>
<trkpt lat="52.5797176" lon="13.3982265">
<ele>43.8773193</ele>
<time>2010-10-09T13:21:54Z</time>
<extensions>
<tp1:TrackPointExtension>
<tp1:hr>148</tp1:hr>
</tp1:TrackPointExtension>
</extensions>
</trkpt>
<trkpt lat="52.5795843" lon="13.3981652">
<ele>43.8773193</ele>
<time>2010-10-09T13:21:58Z</time>
<extensions>
<tp1:TrackPointExtension>
<tp1:hr>146</tp1:hr>
</tp1:TrackPointExtension>
</extensions>
</trkpt>
<trkpt lat="52.5795700" lon="13.3981611">
<ele>44.3580322</ele>
<time>2010-10-09T13:22:03Z</time>
<extensions>
<tp1:TrackPointExtension>
<tp1:hr>145</tp1:hr>
</tp1:TrackPointExtension>
</extensions>
</trkpt>
<trkpt lat="52.5795834" lon="13.3981693">
<ele>44.8386230</ele>
<time>2010-10-09T13:22:13Z</time>
<extensions>
<tp1:TrackPointExtension>
<tp1:hr>144</tp1:hr>
</tp1:TrackPointExtension>
</extensions>
</trkpt>
<trkpt lat="52.5795866" lon="13.3981939">
<ele>45.3192139</ele>
<time>2010-10-09T13:22:20Z</time>
<extensions>
<tp1:TrackPointExtension>
<tp1:hr>145</tp1:hr>
</tp1:TrackPointExtension>
</extensions>
</trkpt>
<trkpt lat="52.5795326" lon="13.3981978">
<ele>44.8386230</ele>
<time>2010-10-09T13:22:26Z</time>
<extensions>
<tp1:TrackPointExtension>
<tp1:hr>144</tp1:hr>
</tp1:TrackPointExtension>
</extensions>
</trkpt>
<trkpt lat="52.5793691" lon="13.3981939">
<ele>44.8386230</ele>
<time>2010-10-09T13:22:30Z</time>
<extensions>
<tp1:TrackPointExtension>
<tp1:hr>143</tp1:hr>
</tp1:TrackPointExtension>
</extensions>
</trkpt>
<trkpt lat="52.5790785" lon="13.3981975">
<ele>44.8386230</ele>
<time>2010-10-09T13:22:35Z</time>
<extensions>
<tp1:TrackPointExtension>
<tp1:hr>144</tp1:hr>
</tp1:TrackPointExtension>
</extensions>
</trkpt>
<trkpt lat="52.5786365" lon="13.3982101">
<ele>44.8386230</ele>
<time>2010-10-09T13:22:42Z</time>
<extensions>
<tp1:TrackPointExtension>
<tp1:hr>147</tp1:hr>
</tp1:TrackPointExtension>
</extensions>
</trkpt>
<trkpt lat="52.5782713" lon="13.3982246">
<ele>43.8773193</ele>
<time>2010-10-09T13:22:48Z</time>
<extensions>
<tp1:TrackPointExtension>
<tp1:hr>145</tp1:hr>
</tp1:TrackPointExtension>
</extensions>
</trkpt>
<trkpt lat="52.5779062" lon="13.3982320">
<ele>44.3580322</ele>
<time>2010-10-09T13:22:54Z</time>
<extensions>
<tp1:TrackPointExtension>
<tp1:hr>144</tp1:hr>
</tp1:TrackPointExtension>
</extensions>
</trkpt>
<trkpt lat="52.5774440" lon="13.3982079">
<ele>41.9547119</ele>
<time>2010-10-09T13:23:01Z</time>
<extensions>
<tp1:TrackPointExtension>
<tp1:hr>143</tp1:hr>
</tp1:TrackPointExtension>
</extensions>
</trkpt>
<trkpt lat="52.5770623" lon="13.3982455">
<ele>44.8386230</ele>
<time>2010-10-09T13:23:06Z</time>
<extensions>
<tp1:TrackPointExtension>
<tp1:hr>144</tp1:hr>
</tp1:TrackPointExtension>
</extensions>
</trkpt>
<trkpt lat="52.5767350" lon="13.3982401">
<ele>41.4739990</ele>
<time>2010-10-09T13:23:11Z</time>
<extensions>
<tp1:TrackPointExtension>
<tp1:hr>147</tp1:hr>
</tp1:TrackPointExtension>
</extensions>
</trkpt>
<trkpt lat="52.5761153" lon="13.3985316">
<ele>40.0321045</ele>
<time>2010-10-09T13:23:19Z</time>
<extensions>
<tp1:TrackPointExtension>
<tp1:hr>148</tp1:hr>
</tp1:TrackPointExtension>
</extensions>
</trkpt>
<trkpt lat="52.5754286" lon="13.3988137">
<ele>38.1093750</ele>
<time>2010-10-09T13:23:28Z</time>
<extensions>
<tp1:TrackPointExtension>
<tp1:hr>149</tp1:hr>
</tp1:TrackPointExtension>
</extensions>
</trkpt>
<trkpt lat="52.5747472" lon="13.3990233">
<ele>37.6286621</ele>
<time>2010-10-09T13:23:37Z</time>
<extensions>
<tp1:TrackPointExtension>
<tp1:hr>152</tp1:hr>
</tp1:TrackPointExtension>
</extensions>
</trkpt>
<trkpt lat="52.5741452" lon="13.3991667">
<ele>38.5900879</ele>
<time>2010-10-09T13:23:45Z</time>
<extensions>
<tp1:TrackPointExtension>
<tp1:hr>155</tp1:hr>
</tp1:TrackPointExtension>
</extensions>
</trkpt>
<trkpt lat="52.5737296" lon="13.3990580">
<ele>39.0706787</ele>
<time>2010-10-09T13:23:51Z</time>
<extensions>
<tp1:TrackPointExtension>
<tp1:hr>157</tp1:hr>
</tp1:TrackPointExtension>
</extensions>
</trkpt>
<trkpt lat="52.5732741" lon="13.3989051">
<ele>40.0321045</ele>
<time>2010-10-09T13:23:58Z</time>
<extensions>
<tp1:TrackPointExtension>
<tp1:hr>157</tp1:hr>
</tp1:TrackPointExtension>
</extensions>
</trkpt>
<trkpt lat="52.5730234" lon="13.3988146">
<ele>40.9934082</ele>
<time>2010-10-09T13:24:02Z</time>
<extensions>
<tp1:TrackPointExtension>
<tp1:hr>157</tp1:hr>
</tp1:TrackPointExtension>
</extensions>
</trkpt>
<trkpt lat="52.5726472" lon="13.3986820">
<ele>41.4739990</ele>
<time>2010-10-09T13:24:09Z</time>
<extensions>
<tp1:TrackPointExtension>
<tp1:hr>155</tp1:hr>
</tp1:TrackPointExtension>
</extensions>
</trkpt>
<trkpt lat="52.5725644" lon="13.3986528">
<ele>41.4739990</ele>
<time>2010-10-09T13:24:11Z</time>
<extensions>
<tp1:TrackPointExtension>
<tp1:hr>154</tp1:hr>
</tp1:TrackPointExtension>
</extensions>
</trkpt>
<trkpt lat="52.5724422" lon="13.3986148">
<ele>40.0321045</ele>
<time>2010-10-09T13:24:17Z</time>
<extensions>
<tp1:TrackPointExtension>
<tp1:hr>151</tp1:hr>
</tp1:TrackPointExtension>
</extensions>
</trkpt>
<trkpt lat="52.5724060" lon="13.3986094">
<ele>40.9934082</ele>
<time>2010-10-09T13:24:22Z</time>
<extensions>
<tp1:TrackPointExtension>
<tp1:hr>150</tp1:hr>
</tp1:TrackPointExtension>
</extensions>
</trkpt>
<trkpt lat="52.5724023" lon="13.3986061">
<ele>41.4739990</ele>
<time>2010-10-09T13:24:31Z</time>
<extensions>
<tp1:TrackPointExtension>
<tp1:hr>145</tp1:hr>
</tp1:TrackPointExtension>
</extensions>
</trkpt>
<trkpt lat="52.5723890" lon="13.3985806">
<ele>44.3580322</ele>
<time>2010-10-09T13:24:40Z</time>
<extensions>
<tp1:TrackPointExtension>
<tp1:hr>140</tp1:hr>
</tp1:TrackPointExtension>
</extensions>
</trkpt>
<trkpt lat="52.5723289" lon="13.3985731">
<ele>43.3966064</ele>
<time>2010-10-09T13:24:44Z</time>
<extensions>
<tp1:TrackPointExtension>
<tp1:hr>139</tp1:hr>
</tp1:TrackPointExtension>
</extensions>
</trkpt>
<trkpt lat="52.5721791" lon="13.3985211">
<ele>43.3966064</ele>
<time>2010-10-09T13:24:48Z</time>
<extensions>
<tp1:TrackPointExtension>
<tp1:hr>139</tp1:hr>
</tp1:TrackPointExtension>
</extensions>
</trkpt>
<trkpt lat="52.5719657" lon="13.3984390">
<ele>43.3966064</ele>
<time>2010-10-09T13:24:52Z</time>
<extensions>
<tp1:TrackPointExtension>
<tp1:hr>140</tp1:hr>
</tp1:TrackPointExtension>
</extensions>
</trkpt>
<trkpt lat="52.5715721" lon="13.3982965">
<ele>41.9547119</ele>
<time>2010-10-09T13:24:58Z</time>
<extensions>
<tp1:TrackPointExtension>
<tp1:hr>143</tp1:hr>
</tp1:TrackPointExtension>
</extensions>
</trkpt>
<trkpt lat="52.5712300" lon="13.3982331">
<ele>40.9934082</ele>
<time>2010-10-09T13:25:03Z</time>
<extensions>
<tp1:TrackPointExtension>
<tp1:hr>146</tp1:hr>
</tp1:TrackPointExtension>
</extensions>
</trkpt>
<trkpt lat="52.5711558" lon="13.3982455">
<ele>40.9934082</ele>
<time>2010-10-09T13:25:04Z</time>
<extensions>
<tp1:TrackPointExtension>
<tp1:hr>147</tp1:hr>
</tp1:TrackPointExtension>
</extensions>
</trkpt>
<trkpt lat="52.5708037" lon="13.3984134">
<ele>41.4739990</ele>
<time>2010-10-09T13:25:09Z</time>
<extensions>
<tp1:TrackPointExtension>
<tp1:hr>148</tp1:hr>
</tp1:TrackPointExtension>
</extensions>
</trkpt>
<trkpt lat="52.5705117" lon="13.3990073">
<ele>43.3966064</ele>
<time>2010-10-09T13:25:15Z</time>
<extensions>
<tp1:TrackPointExtension>
<tp1:hr>150</tp1:hr>
</tp1:TrackPointExtension>
</extensions>
</trkpt>
<trkpt lat="52.5700314" lon="13.3999285">
<ele>49.6452637</ele>
<time>2010-10-09T13:25:24Z</time>
<extensions>
<tp1:TrackPointExtension>
<tp1:hr>154</tp1:hr>
</tp1:TrackPointExtension>
</extensions>
</trkpt>
<trkpt lat="52.5697469" lon="13.4003426">
<ele>48.6839600</ele>
<time>2010-10-09T13:25:29Z</time>
<extensions>
<tp1:TrackPointExtension>
<tp1:hr>160</tp1:hr>
</tp1:TrackPointExtension>
</extensions>
</trkpt>
<trkpt lat="52.5695083" lon="13.4007959">
<ele>51.0871582</ele>
<time>2010-10-09T13:25:35Z</time>
<extensions>
<tp1:TrackPointExtension>
<tp1:hr>161</tp1:hr>
</tp1:TrackPointExtension>
</extensions>
</trkpt>
<trkpt lat="52.5694223" lon="13.4008930">
<ele>49.1645508</ele>
<time>2010-10-09T13:25:38Z</time>
<extensions>
<tp1:TrackPointExtension>
<tp1:hr>159</tp1:hr>
</tp1:TrackPointExtension>
</extensions>
</trkpt>
<trkpt lat="52.5693944" lon="13.4009207">
<ele>46.7612305</ele>
<time>2010-10-09T13:25:43Z</time>
<extensions>
<tp1:TrackPointExtension>
<tp1:hr>157</tp1:hr>
</tp1:TrackPointExtension>
</extensions>
</trkpt>
<trkpt lat="52.5694061" lon="13.4009231">
<ele>45.7999268</ele>
<time>2010-10-09T13:25:50Z</time>
<extensions>
<tp1:TrackPointExtension>
<tp1:hr>152</tp1:hr>
</tp1:TrackPointExtension>
</extensions>
</trkpt>
<trkpt lat="52.5694264" lon="13.4009357">
<ele>46.7612305</ele>
<time>2010-10-09T13:25:59Z</time>
<extensions>
<tp1:TrackPointExtension>
<tp1:hr>150</tp1:hr>
</tp1:TrackPointExtension>
</extensions>
</trkpt>
<trkpt lat="52.5694194" lon="13.4009314">
<ele>46.2806396</ele>
<time>2010-10-09T13:26:07Z</time>
<extensions>
<tp1:TrackPointExtension>
<tp1:hr>146</tp1:hr>
</tp1:TrackPointExtension>
</extensions>
</trkpt>
<trkpt lat="52.5694256" lon="13.4009135">
<ele>42.9160156</ele>
<time>2010-10-09T13:26:18Z</time>
<extensions>
<tp1:TrackPointExtension>
<tp1:hr>141</tp1:hr>
</tp1:TrackPointExtension>
</extensions>
</trkpt>
<trkpt lat="52.5693963" lon="13.4009896">
<ele>41.9547119</ele>
<time>2010-10-09T13:26:23Z</time>
<extensions>
<tp1:TrackPointExtension>
<tp1:hr>139</tp1:hr>
</tp1:TrackPointExtension>
</extensions>
</trkpt>
<trkpt lat="52.5692858" lon="13.4012196">
<ele>42.4354248</ele>
<time>2010-10-09T13:26:27Z</time>
<extensions>
<tp1:TrackPointExtension>
<tp1:hr>139</tp1:hr>
</tp1:TrackPointExtension>
</extensions>
</trkpt>
<trkpt lat="52.5692052" lon="13.4013585">
<ele>42.4354248</ele>
<time>2010-10-09T13:26:29Z</time>
<extensions>
<tp1:TrackPointExtension>
<tp1:hr>140</tp1:hr>
</tp1:TrackPointExtension>
</extensions>
</trkpt>
<trkpt lat="52.5691286" lon="13.4017728">
<ele>42.4354248</ele>
<time>2010-10-09T13:26:33Z</time>
<extensions>
<tp1:TrackPointExtension>
<tp1:hr>144</tp1:hr>
</tp1:TrackPointExtension>
</extensions>
</trkpt>
<trkpt lat="52.5691418" lon="13.4020224">
<ele>42.4354248</ele>
<time>2010-10-09T13:26:35Z</time>
<extensions>
<tp1:TrackPointExtension>
<tp1:hr>146</tp1:hr>
</tp1:TrackPointExtension>
</extensions>
</trkpt>
<trkpt lat="52.5691635" lon="13.4022691">
<ele>42.4354248</ele>
<time>2010-10-09T13:26:37Z</time>
<extensions>
<tp1:TrackPointExtension>
<tp1:hr>150</tp1:hr>
</tp1:TrackPointExtension>
</extensions>
</trkpt>
<trkpt lat="52.5691980" lon="13.4025027">
<ele>42.9160156</ele>
<time>2010-10-09T13:26:39Z</time>
<extensions>
<tp1:TrackPointExtension>
<tp1:hr>155</tp1:hr>
</tp1:TrackPointExtension>
</extensions>
</trkpt>
<trkpt lat="52.5692167" lon="13.4026115">
<ele>43.3966064</ele>
<time>2010-10-09T13:26:40Z</time>
<extensions>
<tp1:TrackPointExtension>
<tp1:hr>152</tp1:hr>
</tp1:TrackPointExtension>
</extensions>
</trkpt>
<trkpt lat="52.5692591" lon="13.4030130">
<ele>44.8386230</ele>
<time>2010-10-09T13:26:44Z</time>
<extensions>
<tp1:TrackPointExtension>
<tp1:hr>156</tp1:hr>
</tp1:TrackPointExtension>
</extensions>
</trkpt>
<trkpt lat="52.5692881" lon="13.4032838">
<ele>44.8386230</ele>
<time>2010-10-09T13:26:47Z</time>
<extensions>
<tp1:TrackPointExtension>
<tp1:hr>157</tp1:hr>
</tp1:TrackPointExtension>
</extensions>
</trkpt>
<trkpt lat="52.5692611" lon="13.4035170">
<ele>43.8773193</ele>
<time>2010-10-09T13:26:51Z</time>
<extensions>
<tp1:TrackPointExtension>
<tp1:hr>155</tp1:hr>
</tp1:TrackPointExtension>
</extensions>
</trkpt>
<trkpt lat="52.5691741" lon="13.4036014">
<ele>42.9160156</ele>
<time>2010-10-09T13:26:54Z</time>
<extensions>
<tp1:TrackPointExtension>
<tp1:hr>154</tp1:hr>
</tp1:TrackPointExtension>
</extensions>
</trkpt>
<trkpt lat="52.5688556" lon="13.4038262">
<ele>40.5128174</ele>
<time>2010-10-09T13:27:00Z</time>
<extensions>
<tp1:TrackPointExtension>
<tp1:hr>153</tp1:hr>
</tp1:TrackPointExtension>
</extensions>
</trkpt>
<trkpt lat="52.5685279" lon="13.4040610">
<ele>40.0321045</ele>
<time>2010-10-09T13:27:05Z</time>
<extensions>
<tp1:TrackPointExtension>
<tp1:hr>155</tp1:hr>
</tp1:TrackPointExtension>
</extensions>
</trkpt>
<trkpt lat="52.5681982" lon="13.4042967">
<ele>40.0321045</ele>
<time>2010-10-09T13:27:10Z</time>
<extensions>
<tp1:TrackPointExtension>
<tp1:hr>157</tp1:hr>
</tp1:TrackPointExtension>
</extensions>
</trkpt>
<trkpt lat="52.5676703" lon="13.4046983">
<ele>40.0321045</ele>
<time>2010-10-09T13:27:18Z</time>
<extensions>
<tp1:TrackPointExtension>
<tp1:hr>162</tp1:hr>
</tp1:TrackPointExtension>
</extensions>
</trkpt>
<trkpt lat="52.5671529" lon="13.4051092">
<ele>37.6286621</ele>
<time>2010-10-09T13:27:26Z</time>
<extensions>
<tp1:TrackPointExtension>
<tp1:hr>165</tp1:hr>
</tp1:TrackPointExtension>
</extensions>
</trkpt>
<trkpt lat="52.5666945" lon="13.4054365">
<ele>36.6674805</ele>
<time>2010-10-09T13:27:33Z</time>
<extensions>
<tp1:TrackPointExtension>
<tp1:hr>165</tp1:hr>
</tp1:TrackPointExtension>
</extensions>
</trkpt>
<trkpt lat="52.5662365" lon="13.4057480">
<ele>34.2641602</ele>
<time>2010-10-09T13:27:40Z</time>
<extensions>
<tp1:TrackPointExtension>
<tp1:hr>166</tp1:hr>
</tp1:TrackPointExtension>
</extensions>
</trkpt>
<trkpt lat="52.5661121" lon="13.4058412">
<ele>33.3028564</ele>
<time>2010-10-09T13:27:42Z</time>
<extensions>
<tp1:TrackPointExtension>
<tp1:hr>167</tp1:hr>
</tp1:TrackPointExtension>
</extensions>
</trkpt>
<trkpt lat="52.5657649" lon="13.4060671">
<ele>35.7060547</ele>
<time>2010-10-09T13:27:48Z</time>
<extensions>
<tp1:TrackPointExtension>
<tp1:hr>164</tp1:hr>
</tp1:TrackPointExtension>
</extensions>
</trkpt>
<trkpt lat="52.5655921" lon="13.4061562">
<ele>35.7060547</ele>
<time>2010-10-09T13:27:53Z</time>
<extensions>
<tp1:TrackPointExtension>
<tp1:hr>161</tp1:hr>
</tp1:TrackPointExtension>
</extensions>
</trkpt>
<trkpt lat="52.5654677" lon="13.4062356">
<ele>37.1480713</ele>
<time>2010-10-09T13:28:00Z</time>
<extensions>
<tp1:TrackPointExtension>
<tp1:hr>157</tp1:hr>
</tp1:TrackPointExtension>
</extensions>
</trkpt>
<trkpt lat="52.5654785" lon="13.4063013">
<ele>38.5900879</ele>
<time>2010-10-09T13:28:07Z</time>
<extensions>
<tp1:TrackPointExtension>
<tp1:hr>154</tp1:hr>
</tp1:TrackPointExtension>
</extensions>
</trkpt>
<trkpt lat="52.5654883" lon="13.4063515">
<ele>40.5128174</ele>
<time>2010-10-09T13:28:10Z</time>
<extensions>
<tp1:TrackPointExtension>
<tp1:hr>151</tp1:hr>
</tp1:TrackPointExtension>
</extensions>
</trkpt>
<trkpt lat="52.5654624" lon="13.4063722">
<ele>43.8773193</ele>
<time>2010-10-09T13:28:14Z</time>
<extensions>
<tp1:TrackPointExtension>
<tp1:hr>148</tp1:hr>
</tp1:TrackPointExtension>
</extensions>
</trkpt>
<trkpt lat="52.5653076" lon="13.4064668">
<ele>41.9547119</ele>
<time>2010-10-09T13:28:20Z</time>
<extensions>
<tp1:TrackPointExtension>
<tp1:hr>145</tp1:hr>
</tp1:TrackPointExtension>
</extensions>
</trkpt>
<trkpt lat="52.5650611" lon="13.4066204">
<ele>41.4739990</ele>
<time>2010-10-09T13:28:25Z</time>
<extensions>
<tp1:TrackPointExtension>
<tp1:hr>146</tp1:hr>
</tp1:TrackPointExtension>
</extensions>
</trkpt>
<trkpt lat="52.5647171" lon="13.4068862">
<ele>41.4739990</ele>
<time>2010-10-09T13:28:31Z</time>
<extensions>
<tp1:TrackPointExtension>
<tp1:hr>149</tp1:hr>
</tp1:TrackPointExtension>
</extensions>
</trkpt>
<trkpt lat="52.5643925" lon="13.4072114">
<ele>40.9934082</ele>
<time>2010-10-09T13:28:37Z</time>
<extensions>
<tp1:TrackPointExtension>
<tp1:hr>154</tp1:hr>
</tp1:TrackPointExtension>
</extensions>
</trkpt>
<trkpt lat="52.5643360" lon="13.4072825">
<ele>40.9934082</ele>
<time>2010-10-09T13:28:38Z</time>
<extensions>
<tp1:TrackPointExtension>
<tp1:hr>154</tp1:hr>
</tp1:TrackPointExtension>
</extensions>
</trkpt>
<trkpt lat="52.5640176" lon="13.4076940">
<ele>41.9547119</ele>
<time>2010-10-09T13:28:43Z</time>
<extensions>
<tp1:TrackPointExtension>
<tp1:hr>155</tp1:hr>
</tp1:TrackPointExtension>
</extensions>
</trkpt>
<trkpt lat="52.5639131" lon="13.4078227">
<ele>42.4354248</ele>
<time>2010-10-09T13:28:45Z</time>
<extensions>
<tp1:TrackPointExtension>
<tp1:hr>155</tp1:hr>
</tp1:TrackPointExtension>
</extensions>
</trkpt>
<trkpt lat="52.5634957" lon="13.4085614">
<ele>43.3966064</ele>
<time>2010-10-09T13:28:54Z</time>
<extensions>
<tp1:TrackPointExtension>
<tp1:hr>159</tp1:hr>
</tp1:TrackPointExtension>
</extensions>
</trkpt>
<trkpt lat="52.5632122" lon="13.4090415">
<ele>43.3966064</ele>
<time>2010-10-09T13:29:00Z</time>
<extensions>
<tp1:TrackPointExtension>
<tp1:hr>163</tp1:hr>
</tp1:TrackPointExtension>
</extensions>
</trkpt>
<trkpt lat="52.5628705" lon="13.4094374">
<ele>45.3192139</ele>
<time>2010-10-09T13:29:06Z</time>
<extensions>
<tp1:TrackPointExtension>
<tp1:hr>166</tp1:hr>
</tp1:TrackPointExtension>
</extensions>
</trkpt>
<trkpt lat="52.5628160" lon="13.4094917">
<ele>44.8386230</ele>
<time>2010-10-09T13:29:07Z</time>
<extensions>
<tp1:TrackPointExtension>
<tp1:hr>167</tp1:hr>
</tp1:TrackPointExtension>
</extensions>
</trkpt>
<trkpt lat="52.5624234" lon="13.4098407">
<ele>40.9934082</ele>
<time>2010-10-09T13:29:14Z</time>
<extensions>
<tp1:TrackPointExtension>
<tp1:hr>167</tp1:hr>
</tp1:TrackPointExtension>
</extensions>
</trkpt>
<trkpt lat="52.5619764" lon="13.4102013">
<ele>38.5900879</ele>
<time>2010-10-09T13:29:22Z</time>
<extensions>
<tp1:TrackPointExtension>
<tp1:hr>168</tp1:hr>
</tp1:TrackPointExtension>
</extensions>
</trkpt>
<trkpt lat="52.5619246" lon="13.4102447">
<ele>38.1093750</ele>
<time>2010-10-09T13:29:23Z</time>
<extensions>
<tp1:TrackPointExtension>
<tp1:hr>168</tp1:hr>
</tp1:TrackPointExtension>
</extensions>
</trkpt>
<trkpt lat="52.5616499" lon="13.4104516">
<ele>37.1480713</ele>
<time>2010-10-09T13:29:28Z</time>
<extensions>
<tp1:TrackPointExtension>
<tp1:hr>168</tp1:hr>
</tp1:TrackPointExtension>
</extensions>
</trkpt>
<trkpt lat="52.5612961" lon="13.4107354">
<ele>38.1093750</ele>
<time>2010-10-09T13:29:34Z</time>
<extensions>
<tp1:TrackPointExtension>
<tp1:hr>168</tp1:hr>
</tp1:TrackPointExtension>
</extensions>
</trkpt>
<trkpt lat="52.5608231" lon="13.4111062">
<ele>38.5900879</ele>
<time>2010-10-09T13:29:42Z</time>
<extensions>
<tp1:TrackPointExtension>
<tp1:hr>168</tp1:hr>
</tp1:TrackPointExtension>
</extensions>
</trkpt>
<trkpt lat="52.5603658" lon="13.4113798">
<ele>40.9934082</ele>
<time>2010-10-09T13:29:49Z</time>
<extensions>
<tp1:TrackPointExtension>
<tp1:hr>167</tp1:hr>
</tp1:TrackPointExtension>
</extensions>
</trkpt>
<trkpt lat="52.5599685" lon="13.4117225">
<ele>41.9547119</ele>
<time>2010-10-09T13:29:56Z</time>
<extensions>
<tp1:TrackPointExtension>
<tp1:hr>166</tp1:hr>
</tp1:TrackPointExtension>
</extensions>
</trkpt>
<trkpt lat="52.5597225" lon="13.4119424">
<ele>42.4354248</ele>
<time>2010-10-09T13:30:01Z</time>
<extensions>
<tp1:TrackPointExtension>
<tp1:hr>164</tp1:hr>
</tp1:TrackPointExtension>
</extensions>
</trkpt>
<trkpt lat="52.5596125" lon="13.4120205">
<ele>45.3192139</ele>
<time>2010-10-09T13:30:04Z</time>
<extensions>
<tp1:TrackPointExtension>
<tp1:hr>162</tp1:hr>
</tp1:TrackPointExtension>
</extensions>
</trkpt>
<trkpt lat="52.5595679" lon="13.4120774">
<ele>46.2806396</ele>
<time>2010-10-09T13:30:07Z</time>
<extensions>
<tp1:TrackPointExtension>
<tp1:hr>161</tp1:hr>
</tp1:TrackPointExtension>
</extensions>
</trkpt>
<trkpt lat="52.5594267" lon="13.4121582">
<ele>46.2806396</ele>
<time>2010-10-09T13:30:13Z</time>
<extensions>
<tp1:TrackPointExtension>
<tp1:hr>158</tp1:hr>
</tp1:TrackPointExtension>
</extensions>
</trkpt>
<trkpt lat="52.5592910" lon="13.4122799">
<ele>45.7999268</ele>
<time>2010-10-09T13:30:18Z</time>
<extensions>
<tp1:TrackPointExtension>
<tp1:hr>156</tp1:hr>
</tp1:TrackPointExtension>
</extensions>
</trkpt>
<trkpt lat="52.5591365" lon="13.4125009">
<ele>44.8386230</ele>
<time>2010-10-09T13:30:25Z</time>
<extensions>
<tp1:TrackPointExtension>
<tp1:hr>153</tp1:hr>
</tp1:TrackPointExtension>
</extensions>
</trkpt>
<trkpt lat="52.5590745" lon="13.4125629">
<ele>43.8773193</ele>
<time>2010-10-09T13:30:30Z</time>
<extensions>
<tp1:TrackPointExtension>
<tp1:hr>148</tp1:hr>
</tp1:TrackPointExtension>
</extensions>
</trkpt>
<trkpt lat="52.5590025" lon="13.4126557">
<ele>42.4354248</ele>
<time>2010-10-09T13:30:34Z</time>
<extensions>
<tp1:TrackPointExtension>
<tp1:hr>147</tp1:hr>
</tp1:TrackPointExtension>
</extensions>
</trkpt>
<trkpt lat="52.5588263" lon="13.4128975">
<ele>42.4354248</ele>
<time>2010-10-09T13:30:38Z</time>
<extensions>
<tp1:TrackPointExtension>
<tp1:hr>148</tp1:hr>
</tp1:TrackPointExtension>
</extensions>
</trkpt>
<trkpt lat="52.5585791" lon="13.4130916">
<ele>42.4354248</ele>
<time>2010-10-09T13:30:42Z</time>
<extensions>
<tp1:TrackPointExtension>
<tp1:hr>153</tp1:hr>
</tp1:TrackPointExtension>
</extensions>
</trkpt>
<trkpt lat="52.5582244" lon="13.4133623">
<ele>42.4354248</ele>
<time>2010-10-09T13:30:47Z</time>
<extensions>
<tp1:TrackPointExtension>
<tp1:hr>156</tp1:hr>
</tp1:TrackPointExtension>
</extensions>
</trkpt>
<trkpt lat="52.5577498" lon="13.4136337">
<ele>42.9160156</ele>
<time>2010-10-09T13:30:53Z</time>
<extensions>
<tp1:TrackPointExtension>
<tp1:hr>158</tp1:hr>
</tp1:TrackPointExtension>
</extensions>
</trkpt>
<trkpt lat="52.5571058" lon="13.4139930">
<ele>42.4354248</ele>
<time>2010-10-09T13:31:01Z</time>
<extensions>
<tp1:TrackPointExtension>
<tp1:hr>158</tp1:hr>
</tp1:TrackPointExtension>
</extensions>
</trkpt>
<trkpt lat="52.5566303" lon="13.4140599">
<ele>45.3192139</ele>
<time>2010-10-09T13:31:07Z</time>
<extensions>
<tp1:TrackPointExtension>
<tp1:hr>159</tp1:hr>
</tp1:TrackPointExtension>
</extensions>
</trkpt>
<trkpt lat="52.5561807" lon="13.4141557">
<ele>44.3580322</ele>
<time>2010-10-09T13:31:13Z</time>
<extensions>
<tp1:TrackPointExtension>
<tp1:hr>159</tp1:hr>
</tp1:TrackPointExtension>
</extensions>
</trkpt>
<trkpt lat="52.5556892" lon="13.4142023">
<ele>44.8386230</ele>
<time>2010-10-09T13:31:20Z</time>
<extensions>
<tp1:TrackPointExtension>
<tp1:hr>162</tp1:hr>
</tp1:TrackPointExtension>
</extensions>
</trkpt>
<trkpt lat="52.5552749" lon="13.4142776">
<ele>43.8773193</ele>
<time>2010-10-09T13:31:26Z</time>
<extensions>
<tp1:TrackPointExtension>
<tp1:hr>162</tp1:hr>
</tp1:TrackPointExtension>
</extensions>
</trkpt>
<trkpt lat="52.5550227" lon="13.4143076">
<ele>42.4354248</ele>
<time>2010-10-09T13:31:30Z</time>
<extensions>
<tp1:TrackPointExtension>
<tp1:hr>162</tp1:hr>
</tp1:TrackPointExtension>
</extensions>
</trkpt>
<trkpt lat="52.5548137" lon="13.4142981">
<ele>45.7999268</ele>
<time>2010-10-09T13:31:34Z</time>
<extensions>
<tp1:TrackPointExtension>
<tp1:hr>160</tp1:hr>
</tp1:TrackPointExtension>
</extensions>
</trkpt>
<trkpt lat="52.5545598" lon="13.4143844">
<ele>45.7999268</ele>
<time>2010-10-09T13:31:38Z</time>
<extensions>
<tp1:TrackPointExtension>
<tp1:hr>159</tp1:hr>
</tp1:TrackPointExtension>
</extensions>
</trkpt>
<trkpt lat="52.5542457" lon="13.4144139">
<ele>49.6452637</ele>
<time>2010-10-09T13:31:44Z</time>
<extensions>
<tp1:TrackPointExtension>
<tp1:hr>159</tp1:hr>
</tp1:TrackPointExtension>
</extensions>
</trkpt>
<trkpt lat="52.5542013" lon="13.4144190">
<ele>50.6065674</ele>
<time>2010-10-09T13:31:45Z</time>
<extensions>
<tp1:TrackPointExtension>
<tp1:hr>159</tp1:hr>
</tp1:TrackPointExtension>
</extensions>
</trkpt>
<trkpt lat="52.5540275" lon="13.4144397">
<ele>53.0097656</ele>
<time>2010-10-09T13:31:51Z</time>
<extensions>
<tp1:TrackPointExtension>
<tp1:hr>157</tp1:hr>
</tp1:TrackPointExtension>
</extensions>
</trkpt>
<trkpt lat="52.5539856" lon="13.4143338">
<ele>50.1259766</ele>
<time>2010-10-09T13:31:56Z</time>
<extensions>
<tp1:TrackPointExtension>
<tp1:hr>154</tp1:hr>
</tp1:TrackPointExtension>
</extensions>
</trkpt>
<trkpt lat="52.5540047" lon="13.4143320">
<ele>41.9547119</ele>
<time>2010-10-09T13:32:07Z</time>
<extensions>
<tp1:TrackPointExtension>
<tp1:hr>150</tp1:hr>
</tp1:TrackPointExtension>
</extensions>
</trkpt>
<trkpt lat="52.5539990" lon="13.4143516">
<ele>31.3801270</ele>
<time>2010-10-09T13:32:19Z</time>
<extensions>
<tp1:TrackPointExtension>
<tp1:hr>144</tp1:hr>
</tp1:TrackPointExtension>
</extensions>
</trkpt>
<trkpt lat="52.5540040" lon="13.4143281">
<ele>33.3028564</ele>
<time>2010-10-09T13:32:32Z</time>
<extensions>
<tp1:TrackPointExtension>
<tp1:hr>139</tp1:hr>
</tp1:TrackPointExtension>
</extensions>
</trkpt>
<trkpt lat="52.5539918" lon="13.4143393">
<ele>33.7834473</ele>
<time>2010-10-09T13:32:38Z</time>
<extensions>
<tp1:TrackPointExtension>
<tp1:hr>135</tp1:hr>
</tp1:TrackPointExtension>
</extensions>
</trkpt>
<trkpt lat="52.5539978" lon="13.4145243">
<ele>40.5128174</ele>
<time>2010-10-09T13:32:43Z</time>
<extensions>
<tp1:TrackPointExtension>
<tp1:hr>134</tp1:hr>
</tp1:TrackPointExtension>
</extensions>
</trkpt>
<trkpt lat="52.5539901" lon="13.4146106">
<ele>40.5128174</ele>
<time>2010-10-09T13:32:45Z</time>
<extensions>
<tp1:TrackPointExtension>
<tp1:hr>134</tp1:hr>
</tp1:TrackPointExtension>
</extensions>
</trkpt>
<trkpt lat="52.5539861" lon="13.4148863">
<ele>45.7999268</ele>
<time>2010-10-09T13:32:51Z</time>
<extensions>
<tp1:TrackPointExtension>
<tp1:hr>127</tp1:hr>
</tp1:TrackPointExtension>
</extensions>
</trkpt>
<trkpt lat="52.5539819" lon="13.4149173">
<ele>45.7999268</ele>
<time>2010-10-09T13:32:52Z</time>
<extensions>
<tp1:TrackPointExtension>
<tp1:hr>126</tp1:hr>
</tp1:TrackPointExtension>
</extensions>
</trkpt>
<trkpt lat="52.5539673" lon="13.4149417">
<ele>45.7999268</ele>
<time>2010-10-09T13:32:57Z</time>
<extensions>
<tp1:TrackPointExtension>
<tp1:hr>125</tp1:hr>
</tp1:TrackPointExtension>
</extensions>
</trkpt>
<trkpt lat="52.5539886" lon="13.4149412">
<ele>46.7612305</ele>
<time>2010-10-09T13:33:04Z</time>
<extensions>
<tp1:TrackPointExtension>
<tp1:hr>131</tp1:hr>
</tp1:TrackPointExtension>
</extensions>
</trkpt>
<trkpt lat="52.5539864" lon="13.4149400">
<ele>46.7612305</ele>
<time>2010-10-09T13:33:13Z</time>
<extensions>
<tp1:TrackPointExtension>
<tp1:hr>132</tp1:hr>
</tp1:TrackPointExtension>
</extensions>
</trkpt>
<trkpt lat="52.5538535" lon="13.4149235">
<ele>46.2806396</ele>
<time>2010-10-09T13:33:18Z</time>
<extensions>
<tp1:TrackPointExtension>
<tp1:hr>131</tp1:hr>
</tp1:TrackPointExtension>
</extensions>
</trkpt>
<trkpt lat="52.5537524" lon="13.4149001">
<ele>46.7612305</ele>
<time>2010-10-09T13:33:21Z</time>
<extensions>
<tp1:TrackPointExtension>
<tp1:hr>131</tp1:hr>
</tp1:TrackPointExtension>
</extensions>
</trkpt>
<trkpt lat="52.5536255" lon="13.4148814">
<ele>47.2418213</ele>
<time>2010-10-09T13:33:25Z</time>
<extensions>
<tp1:TrackPointExtension>
<tp1:hr>130</tp1:hr>
</tp1:TrackPointExtension>
</extensions>
</trkpt>
<trkpt lat="52.5535495" lon="13.4151818">
<ele>48.6839600</ele>
<time>2010-10-09T13:33:29Z</time>
<extensions>
<tp1:TrackPointExtension>
<tp1:hr>131</tp1:hr>
</tp1:TrackPointExtension>
</extensions>
</trkpt>
<trkpt lat="52.5534560" lon="13.4157174">
<ele>48.2033691</ele>
<time>2010-10-09T13:33:34Z</time>
<extensions>
<tp1:TrackPointExtension>
<tp1:hr>138</tp1:hr>
</tp1:TrackPointExtension>
</extensions>
</trkpt>
<trkpt lat="52.5533752" lon="13.4160424">
<ele>48.6839600</ele>
<time>2010-10-09T13:33:37Z</time>
<extensions>
<tp1:TrackPointExtension>
<tp1:hr>143</tp1:hr>
</tp1:TrackPointExtension>
</extensions>
</trkpt>
<trkpt lat="52.5533148" lon="13.4162650">
<ele>48.6839600</ele>
<time>2010-10-09T13:33:39Z</time>
<extensions>
<tp1:TrackPointExtension>
<tp1:hr>148</tp1:hr>
</tp1:TrackPointExtension>
</extensions>
</trkpt>
<trkpt lat="52.5531872" lon="13.4169686">
<ele>47.2418213</ele>
<time>2010-10-09T13:33:45Z</time>
<extensions>
<tp1:TrackPointExtension>
<tp1:hr>151</tp1:hr>
</tp1:TrackPointExtension>
</extensions>
</trkpt>
<trkpt lat="52.5531026" lon="13.4177027">
<ele>46.7612305</ele>
<time>2010-10-09T13:33:51Z</time>
<extensions>
<tp1:TrackPointExtension>
<tp1:hr>152</tp1:hr>
</tp1:TrackPointExtension>
</extensions>
</trkpt>
<trkpt lat="52.5530811" lon="13.4184469">
<ele>48.2033691</ele>
<time>2010-10-09T13:33:57Z</time>
<extensions>
<tp1:TrackPointExtension>
<tp1:hr>155</tp1:hr>
</tp1:TrackPointExtension>
</extensions>
</trkpt>
<trkpt lat="52.5529639" lon="13.4192987">
<ele>46.7612305</ele>
<time>2010-10-09T13:34:04Z</time>
<extensions>
<tp1:TrackPointExtension>
<tp1:hr>158</tp1:hr>
</tp1:TrackPointExtension>
</extensions>
</trkpt>
<trkpt lat="52.5528846" lon="13.4200252">
<ele>46.7612305</ele>
<time>2010-10-09T13:34:10Z</time>
<extensions>
<tp1:TrackPointExtension>
<tp1:hr>161</tp1:hr>
</tp1:TrackPointExtension>
</extensions>
</trkpt>
<trkpt lat="52.5528370" lon="13.4208672">
<ele>47.2418213</ele>
<time>2010-10-09T13:34:17Z</time>
<extensions>
<tp1:TrackPointExtension>
<tp1:hr>162</tp1:hr>
</tp1:TrackPointExtension>
</extensions>
</trkpt>
<trkpt lat="52.5528274" lon="13.4209868">
<ele>47.2418213</ele>
<time>2010-10-09T13:34:18Z</time>
<extensions>
<tp1:TrackPointExtension>
<tp1:hr>162</tp1:hr>
</tp1:TrackPointExtension>
</extensions>
</trkpt>
<trkpt lat="52.5527531" lon="13.4218322">
<ele>47.7225342</ele>
<time>2010-10-09T13:34:25Z</time>
<extensions>
<tp1:TrackPointExtension>
<tp1:hr>163</tp1:hr>
</tp1:TrackPointExtension>
</extensions>
</trkpt>
<trkpt lat="52.5526947" lon="13.4225373">
<ele>48.6839600</ele>
<time>2010-10-09T13:34:31Z</time>
<extensions>
<tp1:TrackPointExtension>
<tp1:hr>163</tp1:hr>
</tp1:TrackPointExtension>
</extensions>
</trkpt>
<trkpt lat="52.5526201" lon="13.4232930">
<ele>48.6839600</ele>
<time>2010-10-09T13:34:38Z</time>
<extensions>
<tp1:TrackPointExtension>
<tp1:hr>162</tp1:hr>
</tp1:TrackPointExtension>
</extensions>
</trkpt>
<trkpt lat="52.5525772" lon="13.4237663">
<ele>49.1645508</ele>
<time>2010-10-09T13:34:43Z</time>
<extensions>
<tp1:TrackPointExtension>
<tp1:hr>160</tp1:hr>
</tp1:TrackPointExtension>
</extensions>
</trkpt>
<trkpt lat="52.5525557" lon="13.4239369">
<ele>49.6452637</ele>
<time>2010-10-09T13:34:45Z</time>
<extensions>
<tp1:TrackPointExtension>
<tp1:hr>159</tp1:hr>
</tp1:TrackPointExtension>
</extensions>
</trkpt>
<trkpt lat="52.5525341" lon="13.4241058">
<ele>49.1645508</ele>
<time>2010-10-09T13:34:49Z</time>
<extensions>
<tp1:TrackPointExtension>
<tp1:hr>158</tp1:hr>
</tp1:TrackPointExtension>
</extensions>
</trkpt>
<trkpt lat="52.5525351" lon="13.4241001">
<ele>49.1645508</ele>
<time>2010-10-09T13:34:54Z</time>
<extensions>
<tp1:TrackPointExtension>
<tp1:hr>157</tp1:hr>
</tp1:TrackPointExtension>
</extensions>
</trkpt>
<trkpt lat="52.5525797" lon="13.4240803">
<ele>52.0485840</ele>
<time>2010-10-09T13:35:03Z</time>
<extensions>
<tp1:TrackPointExtension>
<tp1:hr>155</tp1:hr>
</tp1:TrackPointExtension>
</extensions>
</trkpt>
<trkpt lat="52.5526154" lon="13.4240768">
<ele>53.4904785</ele>
<time>2010-10-09T13:35:08Z</time>
<extensions>
<tp1:TrackPointExtension>
<tp1:hr>148</tp1:hr>
</tp1:TrackPointExtension>
</extensions>
</trkpt>
<trkpt lat="52.5526181" lon="13.4241125">
<ele>53.4904785</ele>
<time>2010-10-09T13:35:11Z</time>
<extensions>
<tp1:TrackPointExtension>
<tp1:hr>146</tp1:hr>
</tp1:TrackPointExtension>
</extensions>
</trkpt>
<trkpt lat="52.5525535" lon="13.4243911">
<ele>51.5678711</ele>
<time>2010-10-09T13:35:16Z</time>
<extensions>
<tp1:TrackPointExtension>
<tp1:hr>145</tp1:hr>
</tp1:TrackPointExtension>
</extensions>
</trkpt>
<trkpt lat="52.5525144" lon="13.4248310">
<ele>52.0485840</ele>
<time>2010-10-09T13:35:21Z</time>
<extensions>
<tp1:TrackPointExtension>
<tp1:hr>145</tp1:hr>
</tp1:TrackPointExtension>
</extensions>
</trkpt>
<trkpt lat="52.5524927" lon="13.4249345">
<ele>52.5291748</ele>
<time>2010-10-09T13:35:22Z</time>
<extensions>
<tp1:TrackPointExtension>
<tp1:hr>146</tp1:hr>
</tp1:TrackPointExtension>
</extensions>
</trkpt>
<trkpt lat="52.5523863" lon="13.4257411">
<ele>51.5678711</ele>
<time>2010-10-09T13:35:29Z</time>
<extensions>
<tp1:TrackPointExtension>
<tp1:hr>151</tp1:hr>
</tp1:TrackPointExtension>
</extensions>
</trkpt>
<trkpt lat="52.5523135" lon="13.4263167">
<ele>52.0485840</ele>
<time>2010-10-09T13:35:34Z</time>
<extensions>
<tp1:TrackPointExtension>
<tp1:hr>156</tp1:hr>
</tp1:TrackPointExtension>
</extensions>
</trkpt>
<trkpt lat="52.5522062" lon="13.4268894">
<ele>52.0485840</ele>
<time>2010-10-09T13:35:39Z</time>
<extensions>
<tp1:TrackPointExtension>
<tp1:hr>157</tp1:hr>
</tp1:TrackPointExtension>
</extensions>
</trkpt>
<trkpt lat="52.5520610" lon="13.4274319">
<ele>52.0485840</ele>
<time>2010-10-09T13:35:44Z</time>
<extensions>
<tp1:TrackPointExtension>
<tp1:hr>157</tp1:hr>
</tp1:TrackPointExtension>
</extensions>
</trkpt>
<trkpt lat="52.5517088" lon="13.4283048">
<ele>50.6065674</ele>
<time>2010-10-09T13:35:53Z</time>
<extensions>
<tp1:TrackPointExtension>
<tp1:hr>158</tp1:hr>
</tp1:TrackPointExtension>
</extensions>
</trkpt>
<trkpt lat="52.5513547" lon="13.4291197">
<ele>52.5291748</ele>
<time>2010-10-09T13:36:02Z</time>
<extensions>
<tp1:TrackPointExtension>
<tp1:hr>160</tp1:hr>
</tp1:TrackPointExtension>
</extensions>
</trkpt>
<trkpt lat="52.5511779" lon="13.4296163">
<ele>52.5291748</ele>
<time>2010-10-09T13:36:09Z</time>
<extensions>
<tp1:TrackPointExtension>
<tp1:hr>159</tp1:hr>
</tp1:TrackPointExtension>
</extensions>
</trkpt>
<trkpt lat="52.5510990" lon="13.4297921">
<ele>51.5678711</ele>
<time>2010-10-09T13:36:12Z</time>
<extensions>
<tp1:TrackPointExtension>
<tp1:hr>158</tp1:hr>
</tp1:TrackPointExtension>
</extensions>
</trkpt>
<trkpt lat="52.5510095" lon="13.4298873">
<ele>50.1259766</ele>
<time>2010-10-09T13:36:15Z</time>
<extensions>
<tp1:TrackPointExtension>
<tp1:hr>156</tp1:hr>
</tp1:TrackPointExtension>
</extensions>
</trkpt>
<trkpt lat="52.5508546" lon="13.4298609">
<ele>49.1645508</ele>
<time>2010-10-09T13:36:20Z</time>
<extensions>
<tp1:TrackPointExtension>
<tp1:hr>154</tp1:hr>
</tp1:TrackPointExtension>
</extensions>
</trkpt>
<trkpt lat="52.5506872" lon="13.4297930">
<ele>49.6452637</ele>
<time>2010-10-09T13:36:24Z</time>
<extensions>
<tp1:TrackPointExtension>
<tp1:hr>154</tp1:hr>
</tp1:TrackPointExtension>
</extensions>
</trkpt>
<trkpt lat="52.5503186" lon="13.4296333">
<ele>48.2033691</ele>
<time>2010-10-09T13:36:30Z</time>
<extensions>
<tp1:TrackPointExtension>
<tp1:hr>154</tp1:hr>
</tp1:TrackPointExtension>
</extensions>
</trkpt>
<trkpt lat="52.5497674" lon="13.4293878">
<ele>48.6839600</ele>
<time>2010-10-09T13:36:38Z</time>
<extensions>
<tp1:TrackPointExtension>
<tp1:hr>156</tp1:hr>
</tp1:TrackPointExtension>
</extensions>
</trkpt>
<trkpt lat="52.5493348" lon="13.4291919">
<ele>48.2033691</ele>
<time>2010-10-09T13:36:44Z</time>
<extensions>
<tp1:TrackPointExtension>
<tp1:hr>156</tp1:hr>
</tp1:TrackPointExtension>
</extensions>
</trkpt>
<trkpt lat="52.5488189" lon="13.4289203">
<ele>48.6839600</ele>
<time>2010-10-09T13:36:51Z</time>
<extensions>
<tp1:TrackPointExtension>
<tp1:hr>156</tp1:hr>
</tp1:TrackPointExtension>
</extensions>
</trkpt>
<trkpt lat="52.5480863" lon="13.4285783">
<ele>48.2033691</ele>
<time>2010-10-09T13:37:01Z</time>
<extensions>
<tp1:TrackPointExtension>
<tp1:hr>157</tp1:hr>
</tp1:TrackPointExtension>
</extensions>
</trkpt>
<trkpt lat="52.5472924" lon="13.4282036">
<ele>48.6839600</ele>
<time>2010-10-09T13:37:12Z</time>
<extensions>
<tp1:TrackPointExtension>
<tp1:hr>157</tp1:hr>
</tp1:TrackPointExtension>
</extensions>
</trkpt>
<trkpt lat="52.5466716" lon="13.4279379">
<ele>49.6452637</ele>
<time>2010-10-09T13:37:21Z</time>
<extensions>
<tp1:TrackPointExtension>
<tp1:hr>161</tp1:hr>
</tp1:TrackPointExtension>
</extensions>
</trkpt>
<trkpt lat="52.5463642" lon="13.4277671">
<ele>49.1645508</ele>
<time>2010-10-09T13:37:26Z</time>
<extensions>
<tp1:TrackPointExtension>
<tp1:hr>163</tp1:hr>
</tp1:TrackPointExtension>
</extensions>
</trkpt>
<trkpt lat="52.5462475" lon="13.4277095">
<ele>48.6839600</ele>
<time>2010-10-09T13:37:29Z</time>
<extensions>
<tp1:TrackPointExtension>
<tp1:hr>164</tp1:hr>
</tp1:TrackPointExtension>
</extensions>
</trkpt>
<trkpt lat="52.5462178" lon="13.4276967">
<ele>48.6839600</ele>
<time>2010-10-09T13:37:30Z</time>
<extensions>
<tp1:TrackPointExtension>
<tp1:hr>163</tp1:hr>
</tp1:TrackPointExtension>
</extensions>
</trkpt>
<trkpt lat="52.5461572" lon="13.4276645">
<ele>48.2033691</ele>
<time>2010-10-09T13:37:34Z</time>
<extensions>
<tp1:TrackPointExtension>
<tp1:hr>163</tp1:hr>
</tp1:TrackPointExtension>
</extensions>
</trkpt>
<trkpt lat="52.5459532" lon="13.4276187">
<ele>51.5678711</ele>
<time>2010-10-09T13:37:39Z</time>
<extensions>
<tp1:TrackPointExtension>
<tp1:hr>162</tp1:hr>
</tp1:TrackPointExtension>
</extensions>
</trkpt>
<trkpt lat="52.5455667" lon="13.4275120">
<ele>52.5291748</ele>
<time>2010-10-09T13:37:45Z</time>
<extensions>
<tp1:TrackPointExtension>
<tp1:hr>163</tp1:hr>
</tp1:TrackPointExtension>
</extensions>
</trkpt>
<trkpt lat="52.5450966" lon="13.4273036">
<ele>52.5291748</ele>
<time>2010-10-09T13:37:52Z</time>
<extensions>
<tp1:TrackPointExtension>
<tp1:hr>166</tp1:hr>
</tp1:TrackPointExtension>
</extensions>
</trkpt>
<trkpt lat="52.5449831" lon="13.4273077">
<ele>54.4517822</ele>
<time>2010-10-09T13:37:54Z</time>
<extensions>
<tp1:TrackPointExtension>
<tp1:hr>166</tp1:hr>
</tp1:TrackPointExtension>
</extensions>
</trkpt>
<trkpt lat="52.5448860" lon="13.4272340">
<ele>55.8937988</ele>
<time>2010-10-09T13:37:56Z</time>
<extensions>
<tp1:TrackPointExtension>
<tp1:hr>165</tp1:hr>
</tp1:TrackPointExtension>
</extensions>
</trkpt>
<trkpt lat="52.5447943" lon="13.4271792">
<ele>55.8937988</ele>
<time>2010-10-09T13:37:59Z</time>
<extensions>
<tp1:TrackPointExtension>
<tp1:hr>163</tp1:hr>
</tp1:TrackPointExtension>
</extensions>
</trkpt>
<trkpt lat="52.5447301" lon="13.4271753">
<ele>54.9323730</ele>
<time>2010-10-09T13:38:03Z</time>
<extensions>
<tp1:TrackPointExtension>
<tp1:hr>160</tp1:hr>
</tp1:TrackPointExtension>
</extensions>
</trkpt>
<trkpt lat="52.5445672" lon="13.4271683">
<ele>54.4517822</ele>
<time>2010-10-09T13:38:08Z</time>
<extensions>
<tp1:TrackPointExtension>
<tp1:hr>159</tp1:hr>
</tp1:TrackPointExtension>
</extensions>
</trkpt>
<trkpt lat="52.5443562" lon="13.4270832">
<ele>53.9711914</ele>
<time>2010-10-09T13:38:12Z</time>
<extensions>
<tp1:TrackPointExtension>
<tp1:hr>159</tp1:hr>
</tp1:TrackPointExtension>
</extensions>
</trkpt>
<trkpt lat="52.5439588" lon="13.4268367">
<ele>53.4904785</ele>
<time>2010-10-09T13:38:19Z</time>
<extensions>
<tp1:TrackPointExtension>
<tp1:hr>161</tp1:hr>
</tp1:TrackPointExtension>
</extensions>
</trkpt>
<trkpt lat="52.5439033" lon="13.4267923">
<ele>53.4904785</ele>
<time>2010-10-09T13:38:20Z</time>
<extensions>
<tp1:TrackPointExtension>
<tp1:hr>162</tp1:hr>
</tp1:TrackPointExtension>
</extensions>
</trkpt>
<trkpt lat="52.5434721" lon="13.4265539">
<ele>52.0485840</ele>
<time>2010-10-09T13:38:27Z</time>
<extensions>
<tp1:TrackPointExtension>
<tp1:hr>160</tp1:hr>
</tp1:TrackPointExtension>
</extensions>
</trkpt>
<trkpt lat="52.5432876" lon="13.4264420">
<ele>51.5678711</ele>
<time>2010-10-09T13:38:31Z</time>
<extensions>
<tp1:TrackPointExtension>
<tp1:hr>159</tp1:hr>
</tp1:TrackPointExtension>
</extensions>
</trkpt>
<trkpt lat="52.5431660" lon="13.4263576">
<ele>50.1259766</ele>
<time>2010-10-09T13:38:36Z</time>
<extensions>
<tp1:TrackPointExtension>
<tp1:hr>159</tp1:hr>
</tp1:TrackPointExtension>
</extensions>
</trkpt>
<trkpt lat="52.5431248" lon="13.4263263">
<ele>49.1645508</ele>
<time>2010-10-09T13:38:41Z</time>
<extensions>
<tp1:TrackPointExtension>
<tp1:hr>159</tp1:hr>
</tp1:TrackPointExtension>
</extensions>
</trkpt>
<trkpt lat="52.5430802" lon="13.4262852">
<ele>49.1645508</ele>
<time>2010-10-09T13:38:49Z</time>
<extensions>
<tp1:TrackPointExtension>
<tp1:hr>156</tp1:hr>
</tp1:TrackPointExtension>
</extensions>
</trkpt>
<trkpt lat="52.5431036" lon="13.4262146">
<ele>49.6452637</ele>
<time>2010-10-09T13:38:54Z</time>
<extensions>
<tp1:TrackPointExtension>
<tp1:hr>152</tp1:hr>
</tp1:TrackPointExtension>
</extensions>
</trkpt>
<trkpt lat="52.5430890" lon="13.4261979">
<ele>51.0871582</ele>
<time>2010-10-09T13:39:00Z</time>
<extensions>
<tp1:TrackPointExtension>
<tp1:hr>150</tp1:hr>
</tp1:TrackPointExtension>
</extensions>
</trkpt>
<trkpt lat="52.5430730" lon="13.4261814">
<ele>54.4517822</ele>
<time>2010-10-09T13:39:13Z</time>
<extensions>
<tp1:TrackPointExtension>
<tp1:hr>144</tp1:hr>
</tp1:TrackPointExtension>
</extensions>
</trkpt>
<trkpt lat="52.5430063" lon="13.4261761">
<ele>53.9711914</ele>
<time>2010-10-09T13:39:18Z</time>
<extensions>
<tp1:TrackPointExtension>
<tp1:hr>143</tp1:hr>
</tp1:TrackPointExtension>
</extensions>
</trkpt>
<trkpt lat="52.5428484" lon="13.4261450">
<ele>53.0097656</ele>
<time>2010-10-09T13:39:22Z</time>
<extensions>
<tp1:TrackPointExtension>
<tp1:hr>143</tp1:hr>
</tp1:TrackPointExtension>
</extensions>
</trkpt>
<trkpt lat="52.5425914" lon="13.4259844">
<ele>52.0485840</ele>
<time>2010-10-09T13:39:27Z</time>
<extensions>
<tp1:TrackPointExtension>
<tp1:hr>145</tp1:hr>
</tp1:TrackPointExtension>
</extensions>
</trkpt>
<trkpt lat="52.5421858" lon="13.4257674">
<ele>53.4904785</ele>
<time>2010-10-09T13:39:33Z</time>
<extensions>
<tp1:TrackPointExtension>
<tp1:hr>150</tp1:hr>
</tp1:TrackPointExtension>
</extensions>
</trkpt>
<trkpt lat="52.5418495" lon="13.4256065">
<ele>52.0485840</ele>
<time>2010-10-09T13:39:37Z</time>
<extensions>
<tp1:TrackPointExtension>
<tp1:hr>155</tp1:hr>
</tp1:TrackPointExtension>
</extensions>
</trkpt>
<trkpt lat="52.5414746" lon="13.4253572">
<ele>50.1259766</ele>
<time>2010-10-09T13:39:41Z</time>
<extensions>
<tp1:TrackPointExtension>
<tp1:hr>160</tp1:hr>
</tp1:TrackPointExtension>
</extensions>
</trkpt>
<trkpt lat="52.5410957" lon="13.4251334">
<ele>50.6065674</ele>
<time>2010-10-09T13:39:45Z</time>
<extensions>
<tp1:TrackPointExtension>
<tp1:hr>165</tp1:hr>
</tp1:TrackPointExtension>
</extensions>
</trkpt>
<trkpt lat="52.5408285" lon="13.4249719">
<ele>49.6452637</ele>
<time>2010-10-09T13:39:48Z</time>
<extensions>
<tp1:TrackPointExtension>
<tp1:hr>172</tp1:hr>
</tp1:TrackPointExtension>
</extensions>
</trkpt>
<trkpt lat="52.5403209" lon="13.4246424">
<ele>49.6452637</ele>
<time>2010-10-09T13:39:54Z</time>
<extensions>
<tp1:TrackPointExtension>
<tp1:hr>177</tp1:hr>
</tp1:TrackPointExtension>
</extensions>
</trkpt>
<trkpt lat="52.5401620" lon="13.4245404">
<ele>49.1645508</ele>
<time>2010-10-09T13:39:56Z</time>
<extensions>
<tp1:TrackPointExtension>
<tp1:hr>177</tp1:hr>
</tp1:TrackPointExtension>
</extensions>
</trkpt>
<trkpt lat="52.5400148" lon="13.4244751">
<ele>49.1645508</ele>
<time>2010-10-09T13:39:58Z</time>
<extensions>
<tp1:TrackPointExtension>
<tp1:hr>179</tp1:hr>
</tp1:TrackPointExtension>
</extensions>
</trkpt>
<trkpt lat="52.5395723" lon="13.4241955">
<ele>50.6065674</ele>
<time>2010-10-09T13:40:04Z</time>
<extensions>
<tp1:TrackPointExtension>
<tp1:hr>180</tp1:hr>
</tp1:TrackPointExtension>
</extensions>
</trkpt>
<trkpt lat="52.5395029" lon="13.4241498">
<ele>50.6065674</ele>
<time>2010-10-09T13:40:05Z</time>
<extensions>
<tp1:TrackPointExtension>
<tp1:hr>181</tp1:hr>
</tp1:TrackPointExtension>
</extensions>
</trkpt>
<trkpt lat="52.5392052" lon="13.4239541">
<ele>51.5678711</ele>
<time>2010-10-09T13:40:10Z</time>
<extensions>
<tp1:TrackPointExtension>
<tp1:hr>181</tp1:hr>
</tp1:TrackPointExtension>
</extensions>
</trkpt>
<trkpt lat="52.5391600" lon="13.4239240">
<ele>51.5678711</ele>
<time>2010-10-09T13:40:11Z</time>
<extensions>
<tp1:TrackPointExtension>
<tp1:hr>181</tp1:hr>
</tp1:TrackPointExtension>
</extensions>
</trkpt>
<trkpt lat="52.5390534" lon="13.4238348">
<ele>52.0485840</ele>
<time>2010-10-09T13:40:16Z</time>
<extensions>
<tp1:TrackPointExtension>
<tp1:hr>179</tp1:hr>
</tp1:TrackPointExtension>
</extensions>
</trkpt>
<trkpt lat="52.5390539" lon="13.4238617">
<ele>53.0097656</ele>
<time>2010-10-09T13:40:27Z</time>
<extensions>
<tp1:TrackPointExtension>
<tp1:hr>173</tp1:hr>
</tp1:TrackPointExtension>
</extensions>
</trkpt>
<trkpt lat="52.5390498" lon="13.4238820">
<ele>52.5291748</ele>
<time>2010-10-09T13:40:32Z</time>
<extensions>
<tp1:TrackPointExtension>
<tp1:hr>169</tp1:hr>
</tp1:TrackPointExtension>
</extensions>
</trkpt>
<trkpt lat="52.5390144" lon="13.4240638">
<ele>52.5291748</ele>
<time>2010-10-09T13:40:36Z</time>
<extensions>
<tp1:TrackPointExtension>
<tp1:hr>167</tp1:hr>
</tp1:TrackPointExtension>
</extensions>
</trkpt>
<trkpt lat="52.5389146" lon="13.4244591">
<ele>52.5291748</ele>
<time>2010-10-09T13:40:41Z</time>
<extensions>
<tp1:TrackPointExtension>
<tp1:hr>166</tp1:hr>
</tp1:TrackPointExtension>
</extensions>
</trkpt>
<trkpt lat="52.5387032" lon="13.4250561">
<ele>53.4904785</ele>
<time>2010-10-09T13:40:47Z</time>
<extensions>
<tp1:TrackPointExtension>
<tp1:hr>166</tp1:hr>
</tp1:TrackPointExtension>
</extensions>
</trkpt>
<trkpt lat="52.5384607" lon="13.4257840">
<ele>57.3358154</ele>
<time>2010-10-09T13:40:54Z</time>
<extensions>
<tp1:TrackPointExtension>
<tp1:hr>165</tp1:hr>
</tp1:TrackPointExtension>
</extensions>
</trkpt>
<trkpt lat="52.5381666" lon="13.4266871">
<ele>53.4904785</ele>
<time>2010-10-09T13:41:02Z</time>
<extensions>
<tp1:TrackPointExtension>
<tp1:hr>164</tp1:hr>
</tp1:TrackPointExtension>
</extensions>
</trkpt>
<trkpt lat="52.5379593" lon="13.4273549">
<ele>50.6065674</ele>
<time>2010-10-09T13:41:08Z</time>
<extensions>
<tp1:TrackPointExtension>
<tp1:hr>160</tp1:hr>
</tp1:TrackPointExtension>
</extensions>
</trkpt>
<trkpt lat="52.5377490" lon="13.4279699">
<ele>46.7612305</ele>
<time>2010-10-09T13:41:14Z</time>
<extensions>
<tp1:TrackPointExtension>
<tp1:hr>158</tp1:hr>
</tp1:TrackPointExtension>
</extensions>
</trkpt>
<trkpt lat="52.5375470" lon="13.4285052">
<ele>43.8773193</ele>
<time>2010-10-09T13:41:20Z</time>
<extensions>
<tp1:TrackPointExtension>
<tp1:hr>157</tp1:hr>
</tp1:TrackPointExtension>
</extensions>
</trkpt>
<trkpt lat="52.5373357" lon="13.4285212">
<ele>43.3966064</ele>
<time>2010-10-09T13:41:24Z</time>
<extensions>
<tp1:TrackPointExtension>
<tp1:hr>154</tp1:hr>
</tp1:TrackPointExtension>
</extensions>
</trkpt>
<trkpt lat="52.5372432" lon="13.4283965">
<ele>46.2806396</ele>
<time>2010-10-09T13:41:26Z</time>
<extensions>
<tp1:TrackPointExtension>
<tp1:hr>153</tp1:hr>
</tp1:TrackPointExtension>
</extensions>
</trkpt>
<trkpt lat="52.5368632" lon="13.4280456">
<ele>48.6839600</ele>
<time>2010-10-09T13:41:33Z</time>
<extensions>
<tp1:TrackPointExtension>
<tp1:hr>154</tp1:hr>
</tp1:TrackPointExtension>
</extensions>
</trkpt>
<trkpt lat="52.5365063" lon="13.4277289">
<ele>50.1259766</ele>
<time>2010-10-09T13:41:40Z</time>
<extensions>
<tp1:TrackPointExtension>
<tp1:hr>154</tp1:hr>
</tp1:TrackPointExtension>
</extensions>
</trkpt>
<trkpt lat="52.5363613" lon="13.4276216">
<ele>49.1645508</ele>
<time>2010-10-09T13:41:43Z</time>
<extensions>
<tp1:TrackPointExtension>
<tp1:hr>154</tp1:hr>
</tp1:TrackPointExtension>
</extensions>
</trkpt>
<trkpt lat="52.5362699" lon="13.4275490">
<ele>49.1645508</ele>
<time>2010-10-09T13:41:45Z</time>
<extensions>
<tp1:TrackPointExtension>
<tp1:hr>153</tp1:hr>
</tp1:TrackPointExtension>
</extensions>
</trkpt>
<trkpt lat="52.5361059" lon="13.4273295">
<ele>50.6065674</ele>
<time>2010-10-09T13:41:49Z</time>
<extensions>
<tp1:TrackPointExtension>
<tp1:hr>152</tp1:hr>
</tp1:TrackPointExtension>
</extensions>
</trkpt>
<trkpt lat="52.5359348" lon="13.4271129">
<ele>50.1259766</ele>
<time>2010-10-09T13:41:53Z</time>
<extensions>
<tp1:TrackPointExtension>
<tp1:hr>152</tp1:hr>
</tp1:TrackPointExtension>
</extensions>
</trkpt>
<trkpt lat="52.5356274" lon="13.4267930">
<ele>49.6452637</ele>
<time>2010-10-09T13:42:01Z</time>
<extensions>
<tp1:TrackPointExtension>
<tp1:hr>147</tp1:hr>
</tp1:TrackPointExtension>
</extensions>
</trkpt>
<trkpt lat="52.5353791" lon="13.4265457">
<ele>49.6452637</ele>
<time>2010-10-09T13:42:09Z</time>
<extensions>
<tp1:TrackPointExtension>
<tp1:hr>142</tp1:hr>
</tp1:TrackPointExtension>
</extensions>
</trkpt>
<trkpt lat="52.5351604" lon="13.4264119">
<ele>51.5678711</ele>
<time>2010-10-09T13:42:15Z</time>
<extensions>
<tp1:TrackPointExtension>
<tp1:hr>140</tp1:hr>
</tp1:TrackPointExtension>
</extensions>
</trkpt>
<trkpt lat="52.5350237" lon="13.4262731">
<ele>53.0097656</ele>
<time>2010-10-09T13:42:19Z</time>
<extensions>
<tp1:TrackPointExtension>
<tp1:hr>140</tp1:hr>
</tp1:TrackPointExtension>
</extensions>
</trkpt>
<trkpt lat="52.5347761" lon="13.4260053">
<ele>53.0097656</ele>
<time>2010-10-09T13:42:27Z</time>
<extensions>
<tp1:TrackPointExtension>
<tp1:hr>141</tp1:hr>
</tp1:TrackPointExtension>
</extensions>
</trkpt>
<trkpt lat="52.5345700" lon="13.4258537">
<ele>53.0097656</ele>
<time>2010-10-09T13:42:35Z</time>
<extensions>
<tp1:TrackPointExtension>
<tp1:hr>137</tp1:hr>
</tp1:TrackPointExtension>
</extensions>
</trkpt>
<trkpt lat="52.5344439" lon="13.4258850">
<ele>51.5678711</ele>
<time>2010-10-09T13:42:40Z</time>
<extensions>
<tp1:TrackPointExtension>
<tp1:hr>135</tp1:hr>
</tp1:TrackPointExtension>
</extensions>
</trkpt>
<trkpt lat="52.5343644" lon="13.4258689">
<ele>49.6452637</ele>
<time>2010-10-09T13:42:45Z</time>
<extensions>
<tp1:TrackPointExtension>
<tp1:hr>131</tp1:hr>
</tp1:TrackPointExtension>
</extensions>
</trkpt>
<trkpt lat="52.5342225" lon="13.4257297">
<ele>52.0485840</ele>
<time>2010-10-09T13:42:53Z</time>
<extensions>
<tp1:TrackPointExtension>
<tp1:hr>130</tp1:hr>
</tp1:TrackPointExtension>
</extensions>
</trkpt>
<trkpt lat="52.5342115" lon="13.4257091">
<ele>52.5291748</ele>
<time>2010-10-09T13:42:58Z</time>
<extensions>
<tp1:TrackPointExtension>
<tp1:hr>130</tp1:hr>
</tp1:TrackPointExtension>
</extensions>
</trkpt>
<trkpt lat="52.5341851" lon="13.4257508">
<ele>53.0097656</ele>
<time>2010-10-09T13:43:10Z</time>
<extensions>
<tp1:TrackPointExtension>
<tp1:hr>136</tp1:hr>
</tp1:TrackPointExtension>
</extensions>
</trkpt>
<trkpt lat="52.5341997" lon="13.4258256">
<ele>59.7391357</ele>
<time>2010-10-09T13:43:31Z</time>
<extensions>
<tp1:TrackPointExtension>
<tp1:hr>134</tp1:hr>
</tp1:TrackPointExtension>
</extensions>
</trkpt>
<trkpt lat="52.5341717" lon="13.4257896">
<ele>55.8937988</ele>
<time>2010-10-09T13:43:36Z</time>
<extensions>
<tp1:TrackPointExtension>
<tp1:hr>134</tp1:hr>
</tp1:TrackPointExtension>
</extensions>
</trkpt>
<trkpt lat="52.5340246" lon="13.4256609">
<ele>55.8937988</ele>
<time>2010-10-09T13:43:43Z</time>
<extensions>
<tp1:TrackPointExtension>
<tp1:hr>134</tp1:hr>
</tp1:TrackPointExtension>
</extensions>
</trkpt>
<trkpt lat="52.5339012" lon="13.4255204">
<ele>59.2584229</ele>
<time>2010-10-09T13:43:49Z</time>
<extensions>
<tp1:TrackPointExtension>
<tp1:hr>130</tp1:hr>
</tp1:TrackPointExtension>
</extensions>
</trkpt>
<trkpt lat="52.5337717" lon="13.4253723">
<ele>59.7391357</ele>
<time>2010-10-09T13:43:56Z</time>
<extensions>
<tp1:TrackPointExtension>
<tp1:hr>129</tp1:hr>
</tp1:TrackPointExtension>
</extensions>
</trkpt>
<trkpt lat="52.5336602" lon="13.4252506">
<ele>58.2971191</ele>
<time>2010-10-09T13:44:02Z</time>
<extensions>
<tp1:TrackPointExtension>
<tp1:hr>129</tp1:hr>
</tp1:TrackPointExtension>
</extensions>
</trkpt>
<trkpt lat="52.5335636" lon="13.4251541">
<ele>51.5678711</ele>
<time>2010-10-09T13:44:07Z</time>
<extensions>
<tp1:TrackPointExtension>
<tp1:hr>129</tp1:hr>
</tp1:TrackPointExtension>
</extensions>
</trkpt>
<trkpt lat="52.5334614" lon="13.4250449">
<ele>47.2418213</ele>
<time>2010-10-09T13:44:11Z</time>
<extensions>
<tp1:TrackPointExtension>
<tp1:hr>131</tp1:hr>
</tp1:TrackPointExtension>
</extensions>
</trkpt>
<trkpt lat="52.5333400" lon="13.4248475">
<ele>44.3580322</ele>
<time>2010-10-09T13:44:16Z</time>
<extensions>
<tp1:TrackPointExtension>
<tp1:hr>133</tp1:hr>
</tp1:TrackPointExtension>
</extensions>
</trkpt>
<trkpt lat="52.5331419" lon="13.4246040">
<ele>43.3966064</ele>
<time>2010-10-09T13:44:22Z</time>
<extensions>
<tp1:TrackPointExtension>
<tp1:hr>133</tp1:hr>
</tp1:TrackPointExtension>
</extensions>
</trkpt>
<trkpt lat="52.5330827" lon="13.4245128">
<ele>43.8773193</ele>
<time>2010-10-09T13:44:24Z</time>
<extensions>
<tp1:TrackPointExtension>
<tp1:hr>135</tp1:hr>
</tp1:TrackPointExtension>
</extensions>
</trkpt>
<trkpt lat="52.5329150" lon="13.4242599">
<ele>48.6839600</ele>
<time>2010-10-09T13:44:30Z</time>
<extensions>
<tp1:TrackPointExtension>
<tp1:hr>133</tp1:hr>
</tp1:TrackPointExtension>
</extensions>
</trkpt>
<trkpt lat="52.5327570" lon="13.4241378">
<ele>53.9711914</ele>
<time>2010-10-09T13:44:36Z</time>
<extensions>
<tp1:TrackPointExtension>
<tp1:hr>132</tp1:hr>
</tp1:TrackPointExtension>
</extensions>
</trkpt>
<trkpt lat="52.5326264" lon="13.4240410">
<ele>56.8551025</ele>
<time>2010-10-09T13:44:41Z</time>
<extensions>
<tp1:TrackPointExtension>
<tp1:hr>131</tp1:hr>
</tp1:TrackPointExtension>
</extensions>
</trkpt>
<trkpt lat="52.5324708" lon="13.4241570">
<ele>61.1810303</ele>
<time>2010-10-09T13:44:46Z</time>
<extensions>
<tp1:TrackPointExtension>
<tp1:hr>131</tp1:hr>
</tp1:TrackPointExtension>
</extensions>
</trkpt>
<trkpt lat="52.5323523" lon="13.4243887">
<ele>64.0650635</ele>
<time>2010-10-09T13:44:51Z</time>
<extensions>
<tp1:TrackPointExtension>
<tp1:hr>129</tp1:hr>
</tp1:TrackPointExtension>
</extensions>
</trkpt>
<trkpt lat="52.5322655" lon="13.4245425">
<ele>63.1036377</ele>
<time>2010-10-09T13:44:56Z</time>
<extensions>
<tp1:TrackPointExtension>
<tp1:hr>127</tp1:hr>
</tp1:TrackPointExtension>
</extensions>
</trkpt>
<trkpt lat="52.5322388" lon="13.4246620">
<ele>60.2197266</ele>
<time>2010-10-09T13:45:00Z</time>
<extensions>
<tp1:TrackPointExtension>
<tp1:hr>127</tp1:hr>
</tp1:TrackPointExtension>
</extensions>
</trkpt>
<trkpt lat="52.5322274" lon="13.4246637">
<ele>60.2197266</ele>
<time>2010-10-09T13:45:05Z</time>
<extensions>
<tp1:TrackPointExtension>
<tp1:hr>127</tp1:hr>
</tp1:TrackPointExtension>
</extensions>
</trkpt>
<trkpt lat="52.5322353" lon="13.4245335">
<ele>60.2197266</ele>
<time>2010-10-09T13:45:09Z</time>
<extensions>
<tp1:TrackPointExtension>
<tp1:hr>129</tp1:hr>
</tp1:TrackPointExtension>
</extensions>
</trkpt>
<trkpt lat="52.5322358" lon="13.4243516">
<ele>60.2197266</ele>
<time>2010-10-09T13:45:13Z</time>
<extensions>
<tp1:TrackPointExtension>
<tp1:hr>131</tp1:hr>
</tp1:TrackPointExtension>
</extensions>
</trkpt>
<trkpt lat="52.5322709" lon="13.4242440">
<ele>60.2197266</ele>
<time>2010-10-09T13:45:16Z</time>
<extensions>
<tp1:TrackPointExtension>
<tp1:hr>129</tp1:hr>
</tp1:TrackPointExtension>
</extensions>
</trkpt>
<trkpt lat="52.5322919" lon="13.4239234">
<ele>62.6229248</ele>
<time>2010-10-09T13:45:23Z</time>
<extensions>
<tp1:TrackPointExtension>
<tp1:hr>127</tp1:hr>
</tp1:TrackPointExtension>
</extensions>
</trkpt>
<trkpt lat="52.5324066" lon="13.4237143">
<ele>60.2197266</ele>
<time>2010-10-09T13:45:29Z</time>
<extensions>
<tp1:TrackPointExtension>
<tp1:hr>128</tp1:hr>
</tp1:TrackPointExtension>
</extensions>
</trkpt>
<trkpt lat="52.5324103" lon="13.4236754">
<ele>60.2197266</ele>
<time>2010-10-09T13:45:30Z</time>
<extensions>
<tp1:TrackPointExtension>
<tp1:hr>128</tp1:hr>
</tp1:TrackPointExtension>
</extensions>
</trkpt>
<trkpt lat="52.5324309" lon="13.4236473">
<ele>57.8165283</ele>
<time>2010-10-09T13:45:34Z</time>
<extensions>
<tp1:TrackPointExtension>
<tp1:hr>128</tp1:hr>
</tp1:TrackPointExtension>
</extensions>
</trkpt>
<trkpt lat="52.5324853" lon="13.4236452">
<ele>54.9323730</ele>
<time>2010-10-09T13:45:38Z</time>
<extensions>
<tp1:TrackPointExtension>
<tp1:hr>128</tp1:hr>
</tp1:TrackPointExtension>
</extensions>
</trkpt>
<trkpt lat="52.5324447" lon="13.4235012">
<ele>53.0097656</ele>
<time>2010-10-09T13:45:44Z</time>
<extensions>
<tp1:TrackPointExtension>
<tp1:hr>129</tp1:hr>
</tp1:TrackPointExtension>
</extensions>
</trkpt>
<trkpt lat="52.5324116" lon="13.4233851">
<ele>48.6839600</ele>
<time>2010-10-09T13:45:49Z</time>
<extensions>
<tp1:TrackPointExtension>
<tp1:hr>129</tp1:hr>
</tp1:TrackPointExtension>
</extensions>
</trkpt>
<trkpt lat="52.5324095" lon="13.4233060">
<ele>46.7612305</ele>
<time>2010-10-09T13:45:52Z</time>
<extensions>
<tp1:TrackPointExtension>
<tp1:hr>129</tp1:hr>
</tp1:TrackPointExtension>
</extensions>
</trkpt>
</trkseg>
<trkseg>
<trkpt lat="52.5319648" lon="13.4242866">
<ele>62.1423340</ele>
<time>2010-10-09T13:54:41Z</time>
<extensions>
<tp1:TrackPointExtension>
<tp1:hr>135</tp1:hr>
</tp1:TrackPointExtension>
</extensions>
</trkpt>
<trkpt lat="52.5319645" lon="13.4242860">
<ele>61.6617432</ele>
<time>2010-10-09T13:54:42Z</time>
<extensions>
<tp1:TrackPointExtension>
<tp1:hr>136</tp1:hr>
</tp1:TrackPointExtension>
</extensions>
</trkpt>
<trkpt lat="52.5319635" lon="13.4242851">
<ele>60.7003174</ele>
<time>2010-10-09T13:54:43Z</time>
<extensions>
<tp1:TrackPointExtension>
<tp1:hr>135</tp1:hr>
</tp1:TrackPointExtension>
</extensions>
</trkpt>
<trkpt lat="52.5319642" lon="13.4242839">
<ele>60.7003174</ele>
<time>2010-10-09T13:54:44Z</time>
<extensions>
<tp1:TrackPointExtension>
<tp1:hr>134</tp1:hr>
</tp1:TrackPointExtension>
</extensions>
</trkpt>
</trkseg>
</trk>
</gpx>
